<?xml version="1.0" encoding="UTF-8" standalone="no" ?>
<gpx xmlns="http://www.topografix.com/GPX/1/1" xmlns:xsi="http://www.w3.org/2001/XMLSchema-instance" xsi:schemaLocation="http://www.topografix.com/GPX/1/1 http://www.topografix.com/GPX/1/1/gpx.xsd" version="1.1" creator="VisuGPX - https://www.visugpx.com">
  <metadata>
    <name>Rando Roche Tuilère et Sanadoire</name>
    <desc><![CDATA[Montée dangereuse de la Sanadoire...]]></desc>
  </metadata>
  <trk>
    <name><![CDATA[ROCHE TUILLERE]]></name>
    <trkseg>
      <trkpt lat="45.62124" lon="2.82043">
        <ele>1261.39</ele>
        <time>2014-08-31T08:51:57Z</time>
      </trkpt>
      <trkpt lat="45.62119" lon="2.82044">
        <ele>1261.87</ele>
        <time>2014-08-31T08:52:12Z</time>
      </trkpt>
      <trkpt lat="45.62111" lon="2.82045">
        <ele>1262.35</ele>
        <time>2014-08-31T08:52:21Z</time>
      </trkpt>
      <trkpt lat="45.62097" lon="2.82048">
        <ele>1262.83</ele>
        <time>2014-08-31T08:52:33Z</time>
      </trkpt>
      <trkpt lat="45.62095" lon="2.82048">
        <ele>1262.83</ele>
        <time>2014-08-31T08:52:34Z</time>
      </trkpt>
      <trkpt lat="45.62094" lon="2.82048">
        <ele>1262.83</ele>
        <time>2014-08-31T08:52:35Z</time>
      </trkpt>
      <trkpt lat="45.62092" lon="2.82048">
        <ele>1262.83</ele>
        <time>2014-08-31T08:52:36Z</time>
      </trkpt>
      <trkpt lat="45.62091" lon="2.82048">
        <ele>1262.83</ele>
        <time>2014-08-31T08:52:37Z</time>
      </trkpt>
      <trkpt lat="45.62089" lon="2.82049">
        <ele>1262.83</ele>
        <time>2014-08-31T08:52:38Z</time>
      </trkpt>
      <trkpt lat="45.62088" lon="2.82049">
        <ele>1262.83</ele>
        <time>2014-08-31T08:52:39Z</time>
      </trkpt>
      <trkpt lat="45.62087" lon="2.8205">
        <ele>1262.83</ele>
        <time>2014-08-31T08:52:40Z</time>
      </trkpt>
      <trkpt lat="45.62086" lon="2.82051">
        <ele>1262.83</ele>
        <time>2014-08-31T08:52:41Z</time>
      </trkpt>
      <trkpt lat="45.62085" lon="2.82051">
        <ele>1262.83</ele>
        <time>2014-08-31T08:52:42Z</time>
      </trkpt>
      <trkpt lat="45.62086" lon="2.82052">
        <ele>1262.83</ele>
        <time>2014-08-31T08:52:57Z</time>
      </trkpt>
      <trkpt lat="45.62085" lon="2.82052">
        <ele>1262.83</ele>
        <time>2014-08-31T08:52:59Z</time>
      </trkpt>
      <trkpt lat="45.62084" lon="2.82053">
        <ele>1262.83</ele>
        <time>2014-08-31T08:53:00Z</time>
      </trkpt>
      <trkpt lat="45.62083" lon="2.82054">
        <ele>1263.31</ele>
        <time>2014-08-31T08:53:01Z</time>
      </trkpt>
      <trkpt lat="45.62082" lon="2.82055">
        <ele>1262.83</ele>
        <time>2014-08-31T08:53:02Z</time>
      </trkpt>
      <trkpt lat="45.62075" lon="2.82057">
        <ele>1262.83</ele>
        <time>2014-08-31T08:53:08Z</time>
      </trkpt>
      <trkpt lat="45.62074" lon="2.82057">
        <ele>1262.83</ele>
        <time>2014-08-31T08:53:09Z</time>
      </trkpt>
      <trkpt lat="45.62062" lon="2.82058">
        <ele>1262.35</ele>
        <time>2014-08-31T08:53:23Z</time>
      </trkpt>
      <trkpt lat="45.62053" lon="2.82051">
        <ele>1262.35</ele>
        <time>2014-08-31T08:53:32Z</time>
      </trkpt>
      <trkpt lat="45.62052" lon="2.8205">
        <ele>1262.35</ele>
        <time>2014-08-31T08:53:33Z</time>
      </trkpt>
      <trkpt lat="45.6205" lon="2.82052">
        <ele>1262.35</ele>
        <time>2014-08-31T08:53:47Z</time>
      </trkpt>
      <trkpt lat="45.6205" lon="2.82054">
        <ele>1262.35</ele>
        <time>2014-08-31T08:54:04Z</time>
      </trkpt>
      <trkpt lat="45.6205" lon="2.82054">
        <ele>1262.35</ele>
        <time>2014-08-31T08:54:11Z</time>
      </trkpt>
      <trkpt lat="45.62046" lon="2.8205">
        <ele>1262.35</ele>
        <time>2014-08-31T08:54:18Z</time>
      </trkpt>
      <trkpt lat="45.62044" lon="2.82048">
        <ele>1262.83</ele>
        <time>2014-08-31T08:54:20Z</time>
      </trkpt>
      <trkpt lat="45.62036" lon="2.82039">
        <ele>1262.83</ele>
        <time>2014-08-31T08:54:33Z</time>
      </trkpt>
      <trkpt lat="45.62033" lon="2.82037">
        <ele>1262.83</ele>
        <time>2014-08-31T08:54:53Z</time>
      </trkpt>
      <trkpt lat="45.62032" lon="2.82037">
        <ele>1262.83</ele>
        <time>2014-08-31T08:54:54Z</time>
      </trkpt>
      <trkpt lat="45.62031" lon="2.82037">
        <ele>1262.83</ele>
        <time>2014-08-31T08:54:55Z</time>
      </trkpt>
      <trkpt lat="45.62029" lon="2.82037">
        <ele>1262.83</ele>
        <time>2014-08-31T08:54:56Z</time>
      </trkpt>
      <trkpt lat="45.62028" lon="2.82037">
        <ele>1262.83</ele>
        <time>2014-08-31T08:54:57Z</time>
      </trkpt>
      <trkpt lat="45.62025" lon="2.82036">
        <ele>1262.83</ele>
        <time>2014-08-31T08:54:59Z</time>
      </trkpt>
      <trkpt lat="45.62024" lon="2.82035">
        <ele>1262.83</ele>
        <time>2014-08-31T08:55:00Z</time>
      </trkpt>
      <trkpt lat="45.62023" lon="2.82034">
        <ele>1262.83</ele>
        <time>2014-08-31T08:55:01Z</time>
      </trkpt>
      <trkpt lat="45.62015" lon="2.82031">
        <ele>1263.31</ele>
        <time>2014-08-31T08:55:09Z</time>
      </trkpt>
      <trkpt lat="45.62014" lon="2.8203">
        <ele>1263.31</ele>
        <time>2014-08-31T08:55:10Z</time>
      </trkpt>
      <trkpt lat="45.61998" lon="2.82022">
        <ele>1264.27</ele>
        <time>2014-08-31T08:55:26Z</time>
      </trkpt>
      <trkpt lat="45.62" lon="2.82023">
        <ele>1264.27</ele>
        <time>2014-08-31T08:55:28Z</time>
      </trkpt>
      <trkpt lat="45.62001" lon="2.82024">
        <ele>1264.27</ele>
        <time>2014-08-31T08:55:29Z</time>
      </trkpt>
      <trkpt lat="45.62002" lon="2.82025">
        <ele>1264.27</ele>
        <time>2014-08-31T08:55:30Z</time>
      </trkpt>
      <trkpt lat="45.6202" lon="2.82033">
        <ele>1263.79</ele>
        <time>2014-08-31T08:55:46Z</time>
      </trkpt>
      <trkpt lat="45.6203" lon="2.82039">
        <ele>1263.31</ele>
        <time>2014-08-31T08:55:58Z</time>
      </trkpt>
      <trkpt lat="45.6204" lon="2.82045">
        <ele>1263.31</ele>
        <time>2014-08-31T08:56:09Z</time>
      </trkpt>
      <trkpt lat="45.62041" lon="2.82046">
        <ele>1263.31</ele>
        <time>2014-08-31T08:56:10Z</time>
      </trkpt>
      <trkpt lat="45.62046" lon="2.82051">
        <ele>1263.31</ele>
        <time>2014-08-31T08:56:16Z</time>
      </trkpt>
      <trkpt lat="45.62044" lon="2.82058">
        <ele>1262.83</ele>
        <time>2014-08-31T08:56:25Z</time>
      </trkpt>
      <trkpt lat="45.62041" lon="2.82079">
        <ele>1261.39</ele>
        <time>2014-08-31T08:56:38Z</time>
      </trkpt>
      <trkpt lat="45.62037" lon="2.82082">
        <ele>1261.39</ele>
        <time>2014-08-31T08:56:42Z</time>
      </trkpt>
      <trkpt lat="45.62036" lon="2.82084">
        <ele>1261.39</ele>
        <time>2014-08-31T08:56:43Z</time>
      </trkpt>
      <trkpt lat="45.62035" lon="2.82085">
        <ele>1261.39</ele>
        <time>2014-08-31T08:56:44Z</time>
      </trkpt>
      <trkpt lat="45.62034" lon="2.82086">
        <ele>1260.43</ele>
        <time>2014-08-31T08:56:45Z</time>
      </trkpt>
      <trkpt lat="45.62033" lon="2.82088">
        <ele>1261.87</ele>
        <time>2014-08-31T08:56:46Z</time>
      </trkpt>
      <trkpt lat="45.62032" lon="2.82089">
        <ele>1260.91</ele>
        <time>2014-08-31T08:56:47Z</time>
      </trkpt>
      <trkpt lat="45.62032" lon="2.82091">
        <ele>1260.91</ele>
        <time>2014-08-31T08:56:48Z</time>
      </trkpt>
      <trkpt lat="45.62031" lon="2.82092">
        <ele>1258.5</ele>
        <time>2014-08-31T08:56:49Z</time>
      </trkpt>
      <trkpt lat="45.6203" lon="2.82094">
        <ele>1261.87</ele>
        <time>2014-08-31T08:56:50Z</time>
      </trkpt>
      <trkpt lat="45.62029" lon="2.82095">
        <ele>1260.43</ele>
        <time>2014-08-31T08:56:51Z</time>
      </trkpt>
      <trkpt lat="45.62028" lon="2.82096">
        <ele>1260.43</ele>
        <time>2014-08-31T08:56:52Z</time>
      </trkpt>
      <trkpt lat="45.62025" lon="2.82097">
        <ele>1258.98</ele>
        <time>2014-08-31T08:57:03Z</time>
      </trkpt>
      <trkpt lat="45.62022" lon="2.82097">
        <ele>1258.02</ele>
        <time>2014-08-31T08:57:14Z</time>
      </trkpt>
      <trkpt lat="45.62012" lon="2.82102">
        <ele>1256.58</ele>
        <time>2014-08-31T08:57:24Z</time>
      </trkpt>
      <trkpt lat="45.61989" lon="2.82122">
        <ele>1255.62</ele>
        <time>2014-08-31T08:57:33Z</time>
      </trkpt>
      <trkpt lat="45.61978" lon="2.82125">
        <ele>1253.7</ele>
        <time>2014-08-31T08:57:39Z</time>
      </trkpt>
      <trkpt lat="45.61972" lon="2.82131">
        <ele>1252.74</ele>
        <time>2014-08-31T08:57:49Z</time>
      </trkpt>
      <trkpt lat="45.61969" lon="2.82132">
        <ele>1252.25</ele>
        <time>2014-08-31T08:57:50Z</time>
      </trkpt>
      <trkpt lat="45.61967" lon="2.82133">
        <ele>1252.25</ele>
        <time>2014-08-31T08:57:51Z</time>
      </trkpt>
      <trkpt lat="45.61966" lon="2.82134">
        <ele>1251.77</ele>
        <time>2014-08-31T08:57:52Z</time>
      </trkpt>
      <trkpt lat="45.61965" lon="2.82136">
        <ele>1251.77</ele>
        <time>2014-08-31T08:57:53Z</time>
      </trkpt>
      <trkpt lat="45.61964" lon="2.82137">
        <ele>1251.77</ele>
        <time>2014-08-31T08:57:54Z</time>
      </trkpt>
      <trkpt lat="45.61963" lon="2.82139">
        <ele>1251.77</ele>
        <time>2014-08-31T08:57:55Z</time>
      </trkpt>
      <trkpt lat="45.61963" lon="2.82142">
        <ele>1251.29</ele>
        <time>2014-08-31T08:57:57Z</time>
      </trkpt>
      <trkpt lat="45.61961" lon="2.82162">
        <ele>1249.37</ele>
        <time>2014-08-31T08:58:10Z</time>
      </trkpt>
      <trkpt lat="45.61959" lon="2.82186">
        <ele>1247.93</ele>
        <time>2014-08-31T08:58:21Z</time>
      </trkpt>
      <trkpt lat="45.61958" lon="2.82194">
        <ele>1247.45</ele>
        <time>2014-08-31T08:58:31Z</time>
      </trkpt>
      <trkpt lat="45.61957" lon="2.82196">
        <ele>1247.45</ele>
        <time>2014-08-31T08:58:32Z</time>
      </trkpt>
      <trkpt lat="45.61956" lon="2.82198">
        <ele>1247.45</ele>
        <time>2014-08-31T08:58:33Z</time>
      </trkpt>
      <trkpt lat="45.61954" lon="2.822">
        <ele>1247.45</ele>
        <time>2014-08-31T08:58:34Z</time>
      </trkpt>
      <trkpt lat="45.61952" lon="2.82202">
        <ele>1246.97</ele>
        <time>2014-08-31T08:58:35Z</time>
      </trkpt>
      <trkpt lat="45.61951" lon="2.82204">
        <ele>1247.45</ele>
        <time>2014-08-31T08:58:36Z</time>
      </trkpt>
      <trkpt lat="45.61949" lon="2.82223">
        <ele>1246.97</ele>
        <time>2014-08-31T08:58:43Z</time>
      </trkpt>
      <trkpt lat="45.61941" lon="2.8223">
        <ele>1246.49</ele>
        <time>2014-08-31T08:58:55Z</time>
      </trkpt>
      <trkpt lat="45.61934" lon="2.82227">
        <ele>1245.53</ele>
        <time>2014-08-31T08:59:03Z</time>
      </trkpt>
      <trkpt lat="45.61932" lon="2.82227">
        <ele>1245.53</ele>
        <time>2014-08-31T08:59:06Z</time>
      </trkpt>
      <trkpt lat="45.61931" lon="2.82229">
        <ele>1244.56</ele>
        <time>2014-08-31T08:59:14Z</time>
      </trkpt>
      <trkpt lat="45.61924" lon="2.82229">
        <ele>1244.56</ele>
        <time>2014-08-31T08:59:24Z</time>
      </trkpt>
      <trkpt lat="45.61922" lon="2.82229">
        <ele>1244.08</ele>
        <time>2014-08-31T08:59:25Z</time>
      </trkpt>
      <trkpt lat="45.6192" lon="2.8223">
        <ele>1244.08</ele>
        <time>2014-08-31T08:59:26Z</time>
      </trkpt>
      <trkpt lat="45.61916" lon="2.82234">
        <ele>1244.08</ele>
        <time>2014-08-31T08:59:29Z</time>
      </trkpt>
      <trkpt lat="45.61914" lon="2.82235">
        <ele>1244.08</ele>
        <time>2014-08-31T08:59:30Z</time>
      </trkpt>
      <trkpt lat="45.61911" lon="2.82237">
        <ele>1244.08</ele>
        <time>2014-08-31T08:59:31Z</time>
      </trkpt>
      <trkpt lat="45.61909" lon="2.82238">
        <ele>1244.08</ele>
        <time>2014-08-31T08:59:32Z</time>
      </trkpt>
      <trkpt lat="45.61908" lon="2.82238">
        <ele>1243.6</ele>
        <time>2014-08-31T08:59:33Z</time>
      </trkpt>
      <trkpt lat="45.61906" lon="2.82239">
        <ele>1244.08</ele>
        <time>2014-08-31T08:59:34Z</time>
      </trkpt>
      <trkpt lat="45.61891" lon="2.82236">
        <ele>1244.08</ele>
        <time>2014-08-31T08:59:46Z</time>
      </trkpt>
      <trkpt lat="45.61883" lon="2.82234">
        <ele>1244.08</ele>
        <time>2014-08-31T08:59:53Z</time>
      </trkpt>
      <trkpt lat="45.61882" lon="2.82233">
        <ele>1243.6</ele>
        <time>2014-08-31T08:59:54Z</time>
      </trkpt>
      <trkpt lat="45.61881" lon="2.82233">
        <ele>1243.6</ele>
        <time>2014-08-31T08:59:55Z</time>
      </trkpt>
      <trkpt lat="45.61881" lon="2.82212">
        <ele>1242.64</ele>
        <time>2014-08-31T09:00:09Z</time>
      </trkpt>
      <trkpt lat="45.61882" lon="2.82195">
        <ele>1242.64</ele>
        <time>2014-08-31T09:00:23Z</time>
      </trkpt>
      <trkpt lat="45.61872" lon="2.82184">
        <ele>1243.12</ele>
        <time>2014-08-31T09:00:35Z</time>
      </trkpt>
      <trkpt lat="45.6187" lon="2.82174">
        <ele>1243.12</ele>
        <time>2014-08-31T09:00:42Z</time>
      </trkpt>
      <trkpt lat="45.61866" lon="2.82166">
        <ele>1245.04</ele>
        <time>2014-08-31T09:00:54Z</time>
      </trkpt>
      <trkpt lat="45.61861" lon="2.82157">
        <ele>1246.97</ele>
        <time>2014-08-31T09:01:07Z</time>
      </trkpt>
      <trkpt lat="45.6186" lon="2.82155">
        <ele>1247.93</ele>
        <time>2014-08-31T09:01:10Z</time>
      </trkpt>
      <trkpt lat="45.61854" lon="2.8215">
        <ele>1247.93</ele>
        <time>2014-08-31T09:01:17Z</time>
      </trkpt>
      <trkpt lat="45.61842" lon="2.82142">
        <ele>1247.93</ele>
        <time>2014-08-31T09:01:29Z</time>
      </trkpt>
      <trkpt lat="45.61837" lon="2.82134">
        <ele>1247.45</ele>
        <time>2014-08-31T09:01:45Z</time>
      </trkpt>
      <trkpt lat="45.61836" lon="2.82132">
        <ele>1247.93</ele>
        <time>2014-08-31T09:02:11Z</time>
      </trkpt>
      <trkpt lat="45.61835" lon="2.82132">
        <ele>1247.45</ele>
        <time>2014-08-31T09:02:36Z</time>
      </trkpt>
      <trkpt lat="45.61835" lon="2.82131">
        <ele>1247.93</ele>
        <time>2014-08-31T09:02:52Z</time>
      </trkpt>
      <trkpt lat="45.61834" lon="2.82132">
        <ele>1247.45</ele>
        <time>2014-08-31T09:03:19Z</time>
      </trkpt>
      <trkpt lat="45.61833" lon="2.82125">
        <ele>1247.45</ele>
        <time>2014-08-31T09:03:42Z</time>
      </trkpt>
      <trkpt lat="45.61838" lon="2.82104">
        <ele>1247.45</ele>
        <time>2014-08-31T09:03:57Z</time>
      </trkpt>
      <trkpt lat="45.61846" lon="2.82093">
        <ele>1246.97</ele>
        <time>2014-08-31T09:04:05Z</time>
      </trkpt>
      <trkpt lat="45.6185" lon="2.82081">
        <ele>1246.97</ele>
        <time>2014-08-31T09:04:15Z</time>
      </trkpt>
      <trkpt lat="45.61851" lon="2.82079">
        <ele>1246.97</ele>
        <time>2014-08-31T09:04:16Z</time>
      </trkpt>
      <trkpt lat="45.61853" lon="2.82077">
        <ele>1246.97</ele>
        <time>2014-08-31T09:04:17Z</time>
      </trkpt>
      <trkpt lat="45.61863" lon="2.82059">
        <ele>1246.97</ele>
        <time>2014-08-31T09:04:29Z</time>
      </trkpt>
      <trkpt lat="45.61864" lon="2.8204">
        <ele>1247.45</ele>
        <time>2014-08-31T09:04:43Z</time>
      </trkpt>
      <trkpt lat="45.61862" lon="2.82029">
        <ele>1247.93</ele>
        <time>2014-08-31T09:04:49Z</time>
      </trkpt>
      <trkpt lat="45.61862" lon="2.82027">
        <ele>1247.93</ele>
        <time>2014-08-31T09:04:50Z</time>
      </trkpt>
      <trkpt lat="45.61861" lon="2.82026">
        <ele>1247.93</ele>
        <time>2014-08-31T09:04:51Z</time>
      </trkpt>
      <trkpt lat="45.61856" lon="2.82013">
        <ele>1248.41</ele>
        <time>2014-08-31T09:04:58Z</time>
      </trkpt>
      <trkpt lat="45.61857" lon="2.82011">
        <ele>1248.41</ele>
        <time>2014-08-31T09:04:59Z</time>
      </trkpt>
      <trkpt lat="45.61857" lon="2.82008">
        <ele>1248.41</ele>
        <time>2014-08-31T09:05:00Z</time>
      </trkpt>
      <trkpt lat="45.61856" lon="2.81987">
        <ele>1249.37</ele>
        <time>2014-08-31T09:05:11Z</time>
      </trkpt>
      <trkpt lat="45.61856" lon="2.81985">
        <ele>1249.37</ele>
        <time>2014-08-31T09:05:12Z</time>
      </trkpt>
      <trkpt lat="45.6185" lon="2.81966">
        <ele>1249.85</ele>
        <time>2014-08-31T09:05:23Z</time>
      </trkpt>
      <trkpt lat="45.6185" lon="2.81962">
        <ele>1249.85</ele>
        <time>2014-08-31T09:05:25Z</time>
      </trkpt>
      <trkpt lat="45.6185" lon="2.8196">
        <ele>1249.85</ele>
        <time>2014-08-31T09:05:26Z</time>
      </trkpt>
      <trkpt lat="45.6185" lon="2.81958">
        <ele>1249.85</ele>
        <time>2014-08-31T09:05:27Z</time>
      </trkpt>
      <trkpt lat="45.61847" lon="2.81949">
        <ele>1250.33</ele>
        <time>2014-08-31T09:05:34Z</time>
      </trkpt>
      <trkpt lat="45.61848" lon="2.81947">
        <ele>1250.33</ele>
        <time>2014-08-31T09:05:38Z</time>
      </trkpt>
      <trkpt lat="45.61859" lon="2.81937">
        <ele>1250.81</ele>
        <time>2014-08-31T09:05:46Z</time>
      </trkpt>
      <trkpt lat="45.6186" lon="2.81935">
        <ele>1250.81</ele>
        <time>2014-08-31T09:05:47Z</time>
      </trkpt>
      <trkpt lat="45.61862" lon="2.81928">
        <ele>1251.29</ele>
        <time>2014-08-31T09:05:52Z</time>
      </trkpt>
      <trkpt lat="45.61865" lon="2.81921">
        <ele>1251.29</ele>
        <time>2014-08-31T09:05:58Z</time>
      </trkpt>
      <trkpt lat="45.61866" lon="2.81918">
        <ele>1251.29</ele>
        <time>2014-08-31T09:05:59Z</time>
      </trkpt>
      <trkpt lat="45.61868" lon="2.8191">
        <ele>1251.77</ele>
        <time>2014-08-31T09:06:03Z</time>
      </trkpt>
      <trkpt lat="45.61869" lon="2.81907">
        <ele>1251.29</ele>
        <time>2014-08-31T09:06:04Z</time>
      </trkpt>
      <trkpt lat="45.61869" lon="2.81905">
        <ele>1251.77</ele>
        <time>2014-08-31T09:06:05Z</time>
      </trkpt>
      <trkpt lat="45.61868" lon="2.81896">
        <ele>1251.77</ele>
        <time>2014-08-31T09:06:08Z</time>
      </trkpt>
      <trkpt lat="45.61867" lon="2.81894">
        <ele>1251.77</ele>
        <time>2014-08-31T09:06:09Z</time>
      </trkpt>
      <trkpt lat="45.61867" lon="2.81891">
        <ele>1251.77</ele>
        <time>2014-08-31T09:06:10Z</time>
      </trkpt>
      <trkpt lat="45.61868" lon="2.81874">
        <ele>1252.25</ele>
        <time>2014-08-31T09:06:20Z</time>
      </trkpt>
      <trkpt lat="45.61864" lon="2.81867">
        <ele>1253.22</ele>
        <time>2014-08-31T09:06:26Z</time>
      </trkpt>
      <trkpt lat="45.61856" lon="2.81855">
        <ele>1251.29</ele>
        <time>2014-08-31T09:06:39Z</time>
      </trkpt>
      <trkpt lat="45.61846" lon="2.81847">
        <ele>1250.81</ele>
        <time>2014-08-31T09:06:49Z</time>
      </trkpt>
      <trkpt lat="45.61831" lon="2.81844">
        <ele>1249.37</ele>
        <time>2014-08-31T09:07:00Z</time>
      </trkpt>
      <trkpt lat="45.61824" lon="2.81844">
        <ele>1248.89</ele>
        <time>2014-08-31T09:07:05Z</time>
      </trkpt>
      <trkpt lat="45.61823" lon="2.81845">
        <ele>1248.89</ele>
        <time>2014-08-31T09:07:06Z</time>
      </trkpt>
      <trkpt lat="45.61821" lon="2.81845">
        <ele>1248.89</ele>
        <time>2014-08-31T09:07:10Z</time>
      </trkpt>
      <trkpt lat="45.61818" lon="2.81842">
        <ele>1248.41</ele>
        <time>2014-08-31T09:07:12Z</time>
      </trkpt>
      <trkpt lat="45.61816" lon="2.81842">
        <ele>1247.93</ele>
        <time>2014-08-31T09:07:14Z</time>
      </trkpt>
      <trkpt lat="45.61815" lon="2.81842">
        <ele>1247.93</ele>
        <time>2014-08-31T09:07:15Z</time>
      </trkpt>
      <trkpt lat="45.61815" lon="2.81836">
        <ele>1247.45</ele>
        <time>2014-08-31T09:07:21Z</time>
      </trkpt>
      <trkpt lat="45.61813" lon="2.81823">
        <ele>1246.97</ele>
        <time>2014-08-31T09:07:30Z</time>
      </trkpt>
      <trkpt lat="45.61812" lon="2.81821">
        <ele>1246.97</ele>
        <time>2014-08-31T09:07:32Z</time>
      </trkpt>
      <trkpt lat="45.61794" lon="2.81812">
        <ele>1245.53</ele>
        <time>2014-08-31T09:07:46Z</time>
      </trkpt>
      <trkpt lat="45.6179" lon="2.81806">
        <ele>1244.56</ele>
        <time>2014-08-31T09:07:56Z</time>
      </trkpt>
      <trkpt lat="45.61776" lon="2.81801">
        <ele>1243.12</ele>
        <time>2014-08-31T09:08:11Z</time>
      </trkpt>
      <trkpt lat="45.61762" lon="2.81803">
        <ele>1241.68</ele>
        <time>2014-08-31T09:08:28Z</time>
      </trkpt>
      <trkpt lat="45.6176" lon="2.81805">
        <ele>1241.68</ele>
        <time>2014-08-31T09:08:42Z</time>
      </trkpt>
      <trkpt lat="45.61754" lon="2.81808">
        <ele>1241.68</ele>
        <time>2014-08-31T09:08:55Z</time>
      </trkpt>
      <trkpt lat="45.61754" lon="2.81808">
        <ele>1241.2</ele>
        <time>2014-08-31T09:08:56Z</time>
      </trkpt>
      <trkpt lat="45.61751" lon="2.81809">
        <ele>1241.68</ele>
        <time>2014-08-31T09:08:58Z</time>
      </trkpt>
      <trkpt lat="45.61746" lon="2.81812">
        <ele>1241.68</ele>
        <time>2014-08-31T09:09:01Z</time>
      </trkpt>
      <trkpt lat="45.61735" lon="2.81815">
        <ele>1241.68</ele>
        <time>2014-08-31T09:09:13Z</time>
      </trkpt>
      <trkpt lat="45.61729" lon="2.81819">
        <ele>1241.68</ele>
        <time>2014-08-31T09:09:17Z</time>
      </trkpt>
      <trkpt lat="45.61717" lon="2.81815">
        <ele>1242.16</ele>
        <time>2014-08-31T09:09:30Z</time>
      </trkpt>
      <trkpt lat="45.61711" lon="2.81811">
        <ele>1242.64</ele>
        <time>2014-08-31T09:09:34Z</time>
      </trkpt>
      <trkpt lat="45.61701" lon="2.81806">
        <ele>1243.6</ele>
        <time>2014-08-31T09:09:48Z</time>
      </trkpt>
      <trkpt lat="45.61689" lon="2.81806">
        <ele>1244.08</ele>
        <time>2014-08-31T09:10:02Z</time>
      </trkpt>
      <trkpt lat="45.61678" lon="2.81798">
        <ele>1244.56</ele>
        <time>2014-08-31T09:10:15Z</time>
      </trkpt>
      <trkpt lat="45.61665" lon="2.81787">
        <ele>1246.01</ele>
        <time>2014-08-31T09:10:30Z</time>
      </trkpt>
      <trkpt lat="45.61662" lon="2.81782">
        <ele>1246.49</ele>
        <time>2014-08-31T09:10:47Z</time>
      </trkpt>
      <trkpt lat="45.61663" lon="2.8178">
        <ele>1246.01</ele>
        <time>2014-08-31T09:11:03Z</time>
      </trkpt>
      <trkpt lat="45.61664" lon="2.81778">
        <ele>1246.49</ele>
        <time>2014-08-31T09:11:07Z</time>
      </trkpt>
      <trkpt lat="45.61665" lon="2.81765">
        <ele>1247.93</ele>
        <time>2014-08-31T09:11:18Z</time>
      </trkpt>
      <trkpt lat="45.61668" lon="2.81745">
        <ele>1249.37</ele>
        <time>2014-08-31T09:11:31Z</time>
      </trkpt>
      <trkpt lat="45.61677" lon="2.81726">
        <ele>1251.77</ele>
        <time>2014-08-31T09:11:46Z</time>
      </trkpt>
      <trkpt lat="45.61676" lon="2.81718">
        <ele>1251.29</ele>
        <time>2014-08-31T09:11:58Z</time>
      </trkpt>
      <trkpt lat="45.61684" lon="2.81703">
        <ele>1252.74</ele>
        <time>2014-08-31T09:12:12Z</time>
      </trkpt>
      <trkpt lat="45.61689" lon="2.81692">
        <ele>1253.7</ele>
        <time>2014-08-31T09:12:23Z</time>
      </trkpt>
      <trkpt lat="45.61691" lon="2.81685">
        <ele>1254.18</ele>
        <time>2014-08-31T09:12:30Z</time>
      </trkpt>
      <trkpt lat="45.61693" lon="2.81679">
        <ele>1254.66</ele>
        <time>2014-08-31T09:12:36Z</time>
      </trkpt>
      <trkpt lat="45.61691" lon="2.81674">
        <ele>1255.62</ele>
        <time>2014-08-31T09:12:40Z</time>
      </trkpt>
      <trkpt lat="45.61679" lon="2.81665">
        <ele>1256.58</ele>
        <time>2014-08-31T09:12:53Z</time>
      </trkpt>
      <trkpt lat="45.61674" lon="2.81649">
        <ele>1258.98</ele>
        <time>2014-08-31T09:13:08Z</time>
      </trkpt>
      <trkpt lat="45.61678" lon="2.81639">
        <ele>1261.39</ele>
        <time>2014-08-31T09:13:22Z</time>
      </trkpt>
      <trkpt lat="45.61676" lon="2.81632">
        <ele>1262.35</ele>
        <time>2014-08-31T09:13:39Z</time>
      </trkpt>
      <trkpt lat="45.61677" lon="2.8163">
        <ele>1262.83</ele>
        <time>2014-08-31T09:13:58Z</time>
      </trkpt>
      <trkpt lat="45.6167" lon="2.81617">
        <ele>1263.31</ele>
        <time>2014-08-31T09:14:13Z</time>
      </trkpt>
      <trkpt lat="45.61673" lon="2.81615">
        <ele>1264.75</ele>
        <time>2014-08-31T09:14:33Z</time>
      </trkpt>
      <trkpt lat="45.61675" lon="2.81613">
        <ele>1267.64</ele>
        <time>2014-08-31T09:14:49Z</time>
      </trkpt>
      <trkpt lat="45.61682" lon="2.81616">
        <ele>1271</ele>
        <time>2014-08-31T09:15:05Z</time>
      </trkpt>
      <trkpt lat="45.61687" lon="2.81611">
        <ele>1273.88</ele>
        <time>2014-08-31T09:15:23Z</time>
      </trkpt>
      <trkpt lat="45.61687" lon="2.81611">
        <ele>1274.36</ele>
        <time>2014-08-31T09:15:25Z</time>
      </trkpt>
      <trkpt lat="45.6169" lon="2.81605">
        <ele>1275.33</ele>
        <time>2014-08-31T09:15:42Z</time>
      </trkpt>
      <trkpt lat="45.61693" lon="2.8159">
        <ele>1273.88</ele>
        <time>2014-08-31T09:15:56Z</time>
      </trkpt>
      <trkpt lat="45.61694" lon="2.81572">
        <ele>1274.36</ele>
        <time>2014-08-31T09:16:15Z</time>
      </trkpt>
      <trkpt lat="45.61697" lon="2.81567">
        <ele>1273.88</ele>
        <time>2014-08-31T09:16:33Z</time>
      </trkpt>
      <trkpt lat="45.61698" lon="2.81566">
        <ele>1274.36</ele>
        <time>2014-08-31T09:16:56Z</time>
      </trkpt>
      <trkpt lat="45.61698" lon="2.81566">
        <ele>1274.36</ele>
        <time>2014-08-31T09:17:23Z</time>
      </trkpt>
      <trkpt lat="45.61696" lon="2.81562">
        <ele>1273.4</ele>
        <time>2014-08-31T09:17:47Z</time>
      </trkpt>
      <trkpt lat="45.61698" lon="2.81563">
        <ele>1274.36</ele>
        <time>2014-08-31T09:18:03Z</time>
      </trkpt>
      <trkpt lat="45.61713" lon="2.81572">
        <ele>1274.85</ele>
        <time>2014-08-31T09:20:30Z</time>
      </trkpt>
      <trkpt lat="45.61711" lon="2.81564">
        <ele>1275.33</ele>
        <time>2014-08-31T09:20:59Z</time>
      </trkpt>
      <trkpt lat="45.61698" lon="2.81569">
        <ele>1275.33</ele>
        <time>2014-08-31T09:21:26Z</time>
      </trkpt>
      <trkpt lat="45.61703" lon="2.81568">
        <ele>1275.81</ele>
        <time>2014-08-31T09:21:57Z</time>
      </trkpt>
      <trkpt lat="45.61697" lon="2.81561">
        <ele>1275.81</ele>
        <time>2014-08-31T09:22:13Z</time>
      </trkpt>
      <trkpt lat="45.61694" lon="2.81555">
        <ele>1275.81</ele>
        <time>2014-08-31T09:22:24Z</time>
      </trkpt>
      <trkpt lat="45.61695" lon="2.81578">
        <ele>1276.29</ele>
        <time>2014-08-31T09:22:43Z</time>
      </trkpt>
      <trkpt lat="45.61695" lon="2.81585">
        <ele>1277.25</ele>
        <time>2014-08-31T09:23:01Z</time>
      </trkpt>
      <trkpt lat="45.61697" lon="2.81595">
        <ele>1278.69</ele>
        <time>2014-08-31T09:23:17Z</time>
      </trkpt>
      <trkpt lat="45.61701" lon="2.81598">
        <ele>1281.09</ele>
        <time>2014-08-31T09:23:31Z</time>
      </trkpt>
      <trkpt lat="45.61706" lon="2.81599">
        <ele>1283.02</ele>
        <time>2014-08-31T09:23:45Z</time>
      </trkpt>
      <trkpt lat="45.61707" lon="2.81597">
        <ele>1283.98</ele>
        <time>2014-08-31T09:23:58Z</time>
      </trkpt>
      <trkpt lat="45.61709" lon="2.81594">
        <ele>1283.98</ele>
        <time>2014-08-31T09:24:20Z</time>
      </trkpt>
      <trkpt lat="45.61708" lon="2.81592">
        <ele>1284.94</ele>
        <time>2014-08-31T09:24:32Z</time>
      </trkpt>
      <trkpt lat="45.61707" lon="2.81584">
        <ele>1286.86</ele>
        <time>2014-08-31T09:24:49Z</time>
      </trkpt>
      <trkpt lat="45.61708" lon="2.8158">
        <ele>1289.75</ele>
        <time>2014-08-31T09:25:06Z</time>
      </trkpt>
      <trkpt lat="45.61704" lon="2.8157">
        <ele>1289.75</ele>
        <time>2014-08-31T09:25:20Z</time>
      </trkpt>
      <trkpt lat="45.61704" lon="2.81568">
        <ele>1289.27</ele>
        <time>2014-08-31T09:25:40Z</time>
      </trkpt>
      <trkpt lat="45.61711" lon="2.81564">
        <ele>1290.23</ele>
        <time>2014-08-31T09:25:53Z</time>
      </trkpt>
      <trkpt lat="45.61712" lon="2.81559">
        <ele>1291.19</ele>
        <time>2014-08-31T09:25:59Z</time>
      </trkpt>
      <trkpt lat="45.61714" lon="2.81555">
        <ele>1292.63</ele>
        <time>2014-08-31T09:26:11Z</time>
      </trkpt>
      <trkpt lat="45.61716" lon="2.81546">
        <ele>1295.03</ele>
        <time>2014-08-31T09:26:23Z</time>
      </trkpt>
      <trkpt lat="45.61718" lon="2.81536">
        <ele>1296.48</ele>
        <time>2014-08-31T09:26:34Z</time>
      </trkpt>
      <trkpt lat="45.6172" lon="2.81523">
        <ele>1297.92</ele>
        <time>2014-08-31T09:26:47Z</time>
      </trkpt>
      <trkpt lat="45.6172" lon="2.8151">
        <ele>1299.36</ele>
        <time>2014-08-31T09:27:01Z</time>
      </trkpt>
      <trkpt lat="45.61715" lon="2.81495">
        <ele>1300.8</ele>
        <time>2014-08-31T09:27:16Z</time>
      </trkpt>
      <trkpt lat="45.61708" lon="2.81479">
        <ele>1301.28</ele>
        <time>2014-08-31T09:27:28Z</time>
      </trkpt>
      <trkpt lat="45.61705" lon="2.81467">
        <ele>1301.76</ele>
        <time>2014-08-31T09:27:43Z</time>
      </trkpt>
      <trkpt lat="45.61706" lon="2.81458">
        <ele>1301.76</ele>
        <time>2014-08-31T09:27:50Z</time>
      </trkpt>
      <trkpt lat="45.61704" lon="2.81453">
        <ele>1302.24</ele>
        <time>2014-08-31T09:27:53Z</time>
      </trkpt>
      <trkpt lat="45.61699" lon="2.81442">
        <ele>1302.72</ele>
        <time>2014-08-31T09:28:06Z</time>
      </trkpt>
      <trkpt lat="45.61697" lon="2.81437">
        <ele>1302.72</ele>
        <time>2014-08-31T09:28:18Z</time>
      </trkpt>
      <trkpt lat="45.61697" lon="2.81437">
        <ele>1302.72</ele>
        <time>2014-08-31T09:28:19Z</time>
      </trkpt>
      <trkpt lat="45.61694" lon="2.81427">
        <ele>1303.2</ele>
        <time>2014-08-31T09:28:27Z</time>
      </trkpt>
      <trkpt lat="45.61686" lon="2.81419">
        <ele>1303.69</ele>
        <time>2014-08-31T09:28:38Z</time>
      </trkpt>
      <trkpt lat="45.61679" lon="2.81409">
        <ele>1303.2</ele>
        <time>2014-08-31T09:28:50Z</time>
      </trkpt>
      <trkpt lat="45.61675" lon="2.81404">
        <ele>1303.69</ele>
        <time>2014-08-31T09:28:59Z</time>
      </trkpt>
      <trkpt lat="45.61672" lon="2.81394">
        <ele>1304.17</ele>
        <time>2014-08-31T09:29:08Z</time>
      </trkpt>
      <trkpt lat="45.61671" lon="2.81393">
        <ele>1304.17</ele>
        <time>2014-08-31T09:29:10Z</time>
      </trkpt>
      <trkpt lat="45.61667" lon="2.81385">
        <ele>1304.17</ele>
        <time>2014-08-31T09:29:17Z</time>
      </trkpt>
      <trkpt lat="45.61664" lon="2.81384">
        <ele>1304.17</ele>
        <time>2014-08-31T09:29:23Z</time>
      </trkpt>
      <trkpt lat="45.61663" lon="2.81381">
        <ele>1304.17</ele>
        <time>2014-08-31T09:29:25Z</time>
      </trkpt>
      <trkpt lat="45.61654" lon="2.81371">
        <ele>1303.69</ele>
        <time>2014-08-31T09:29:36Z</time>
      </trkpt>
      <trkpt lat="45.61647" lon="2.81366">
        <ele>1302.24</ele>
        <time>2014-08-31T09:29:45Z</time>
      </trkpt>
      <trkpt lat="45.61643" lon="2.81357">
        <ele>1303.2</ele>
        <time>2014-08-31T09:29:58Z</time>
      </trkpt>
      <trkpt lat="45.61642" lon="2.81358">
        <ele>1303.2</ele>
        <time>2014-08-31T09:30:07Z</time>
      </trkpt>
      <trkpt lat="45.61639" lon="2.81355">
        <ele>1303.69</ele>
        <time>2014-08-31T09:30:11Z</time>
      </trkpt>
      <trkpt lat="45.61635" lon="2.81351">
        <ele>1305.13</ele>
        <time>2014-08-31T09:30:15Z</time>
      </trkpt>
      <trkpt lat="45.61626" lon="2.8133">
        <ele>1304.65</ele>
        <time>2014-08-31T09:30:25Z</time>
      </trkpt>
      <trkpt lat="45.61623" lon="2.81312">
        <ele>1306.09</ele>
        <time>2014-08-31T09:30:36Z</time>
      </trkpt>
      <trkpt lat="45.61622" lon="2.81309">
        <ele>1306.57</ele>
        <time>2014-08-31T09:30:43Z</time>
      </trkpt>
      <trkpt lat="45.61623" lon="2.81303">
        <ele>1306.57</ele>
        <time>2014-08-31T09:30:48Z</time>
      </trkpt>
      <trkpt lat="45.61624" lon="2.81301">
        <ele>1307.05</ele>
        <time>2014-08-31T09:30:52Z</time>
      </trkpt>
      <trkpt lat="45.61623" lon="2.81293">
        <ele>1308.01</ele>
        <time>2014-08-31T09:31:02Z</time>
      </trkpt>
      <trkpt lat="45.61625" lon="2.81291">
        <ele>1308.01</ele>
        <time>2014-08-31T09:31:18Z</time>
      </trkpt>
      <trkpt lat="45.61625" lon="2.81291">
        <ele>1308.01</ele>
        <time>2014-08-31T09:31:38Z</time>
      </trkpt>
      <trkpt lat="45.61625" lon="2.81289">
        <ele>1308.01</ele>
        <time>2014-08-31T09:31:43Z</time>
      </trkpt>
      <trkpt lat="45.61624" lon="2.81286">
        <ele>1308.01</ele>
        <time>2014-08-31T09:31:45Z</time>
      </trkpt>
      <trkpt lat="45.61616" lon="2.81272">
        <ele>1308.49</ele>
        <time>2014-08-31T09:31:58Z</time>
      </trkpt>
      <trkpt lat="45.61608" lon="2.8126">
        <ele>1308.49</ele>
        <time>2014-08-31T09:32:09Z</time>
      </trkpt>
      <trkpt lat="45.61601" lon="2.81256">
        <ele>1308.97</ele>
        <time>2014-08-31T09:32:14Z</time>
      </trkpt>
      <trkpt lat="45.61595" lon="2.81248">
        <ele>1308.97</ele>
        <time>2014-08-31T09:32:21Z</time>
      </trkpt>
      <trkpt lat="45.61593" lon="2.81244">
        <ele>1309.45</ele>
        <time>2014-08-31T09:32:26Z</time>
      </trkpt>
      <trkpt lat="45.61592" lon="2.81236">
        <ele>1309.45</ele>
        <time>2014-08-31T09:32:32Z</time>
      </trkpt>
      <trkpt lat="45.61588" lon="2.81232">
        <ele>1309.93</ele>
        <time>2014-08-31T09:32:38Z</time>
      </trkpt>
      <trkpt lat="45.61586" lon="2.81226">
        <ele>1310.41</ele>
        <time>2014-08-31T09:32:42Z</time>
      </trkpt>
      <trkpt lat="45.61579" lon="2.8121">
        <ele>1310.9</ele>
        <time>2014-08-31T09:32:55Z</time>
      </trkpt>
      <trkpt lat="45.61576" lon="2.81203">
        <ele>1310.9</ele>
        <time>2014-08-31T09:33:11Z</time>
      </trkpt>
      <trkpt lat="45.61574" lon="2.81202">
        <ele>1310.9</ele>
        <time>2014-08-31T09:33:23Z</time>
      </trkpt>
      <trkpt lat="45.61571" lon="2.81194">
        <ele>1311.38</ele>
        <time>2014-08-31T09:33:40Z</time>
      </trkpt>
      <trkpt lat="45.6157" lon="2.81194">
        <ele>1312.34</ele>
        <time>2014-08-31T09:33:53Z</time>
      </trkpt>
      <trkpt lat="45.61573" lon="2.81191">
        <ele>1312.34</ele>
        <time>2014-08-31T09:34:07Z</time>
      </trkpt>
      <trkpt lat="45.61578" lon="2.81193">
        <ele>1312.34</ele>
        <time>2014-08-31T09:34:21Z</time>
      </trkpt>
      <trkpt lat="45.61582" lon="2.81197">
        <ele>1312.34</ele>
        <time>2014-08-31T09:34:31Z</time>
      </trkpt>
      <trkpt lat="45.61582" lon="2.81198">
        <ele>1312.82</ele>
        <time>2014-08-31T09:34:32Z</time>
      </trkpt>
      <trkpt lat="45.61591" lon="2.81198">
        <ele>1312.82</ele>
        <time>2014-08-31T09:34:38Z</time>
      </trkpt>
      <trkpt lat="45.61598" lon="2.812">
        <ele>1312.82</ele>
        <time>2014-08-31T09:34:48Z</time>
      </trkpt>
      <trkpt lat="45.61616" lon="2.81204">
        <ele>1312.82</ele>
        <time>2014-08-31T09:35:01Z</time>
      </trkpt>
      <trkpt lat="45.61619" lon="2.81209">
        <ele>1312.82</ele>
        <time>2014-08-31T09:35:13Z</time>
      </trkpt>
      <trkpt lat="45.61631" lon="2.81217">
        <ele>1312.82</ele>
        <time>2014-08-31T09:35:23Z</time>
      </trkpt>
      <trkpt lat="45.61646" lon="2.81226">
        <ele>1312.82</ele>
        <time>2014-08-31T09:35:32Z</time>
      </trkpt>
      <trkpt lat="45.61657" lon="2.81226">
        <ele>1312.82</ele>
        <time>2014-08-31T09:35:36Z</time>
      </trkpt>
      <trkpt lat="45.61662" lon="2.81234">
        <ele>1312.82</ele>
        <time>2014-08-31T09:35:48Z</time>
      </trkpt>
      <trkpt lat="45.61675" lon="2.81243">
        <ele>1313.3</ele>
        <time>2014-08-31T09:35:59Z</time>
      </trkpt>
      <trkpt lat="45.61682" lon="2.81252">
        <ele>1313.3</ele>
        <time>2014-08-31T09:36:09Z</time>
      </trkpt>
      <trkpt lat="45.61698" lon="2.8127">
        <ele>1312.34</ele>
        <time>2014-08-31T09:36:21Z</time>
      </trkpt>
      <trkpt lat="45.61702" lon="2.81274">
        <ele>1312.34</ele>
        <time>2014-08-31T09:36:24Z</time>
      </trkpt>
      <trkpt lat="45.6171" lon="2.81279">
        <ele>1311.86</ele>
        <time>2014-08-31T09:36:29Z</time>
      </trkpt>
      <trkpt lat="45.61722" lon="2.81286">
        <ele>1311.38</ele>
        <time>2014-08-31T09:36:43Z</time>
      </trkpt>
      <trkpt lat="45.61733" lon="2.81296">
        <ele>1311.38</ele>
        <time>2014-08-31T09:36:52Z</time>
      </trkpt>
      <trkpt lat="45.6174" lon="2.81301">
        <ele>1311.38</ele>
        <time>2014-08-31T09:37:04Z</time>
      </trkpt>
      <trkpt lat="45.61744" lon="2.81306">
        <ele>1311.38</ele>
        <time>2014-08-31T09:37:07Z</time>
      </trkpt>
      <trkpt lat="45.61751" lon="2.81306">
        <ele>1311.38</ele>
        <time>2014-08-31T09:37:13Z</time>
      </trkpt>
      <trkpt lat="45.61766" lon="2.81318">
        <ele>1310.9</ele>
        <time>2014-08-31T09:37:28Z</time>
      </trkpt>
      <trkpt lat="45.61768" lon="2.81319">
        <ele>1310.9</ele>
        <time>2014-08-31T09:37:34Z</time>
      </trkpt>
      <trkpt lat="45.61777" lon="2.81325">
        <ele>1310.41</ele>
        <time>2014-08-31T09:37:39Z</time>
      </trkpt>
      <trkpt lat="45.61786" lon="2.81331">
        <ele>1309.93</ele>
        <time>2014-08-31T09:37:45Z</time>
      </trkpt>
      <trkpt lat="45.61798" lon="2.8134">
        <ele>1309.93</ele>
        <time>2014-08-31T09:37:57Z</time>
      </trkpt>
      <trkpt lat="45.61809" lon="2.81346">
        <ele>1310.41</ele>
        <time>2014-08-31T09:38:05Z</time>
      </trkpt>
      <trkpt lat="45.61824" lon="2.81356">
        <ele>1310.41</ele>
        <time>2014-08-31T09:38:20Z</time>
      </trkpt>
      <trkpt lat="45.61837" lon="2.81365">
        <ele>1310.41</ele>
        <time>2014-08-31T09:38:33Z</time>
      </trkpt>
      <trkpt lat="45.61849" lon="2.81373">
        <ele>1309.93</ele>
        <time>2014-08-31T09:38:46Z</time>
      </trkpt>
      <trkpt lat="45.61854" lon="2.81378">
        <ele>1309.93</ele>
        <time>2014-08-31T09:38:52Z</time>
      </trkpt>
      <trkpt lat="45.61873" lon="2.81388">
        <ele>1310.41</ele>
        <time>2014-08-31T09:39:04Z</time>
      </trkpt>
      <trkpt lat="45.6188" lon="2.81394">
        <ele>1309.93</ele>
        <time>2014-08-31T09:39:11Z</time>
      </trkpt>
      <trkpt lat="45.61884" lon="2.814">
        <ele>1309.93</ele>
        <time>2014-08-31T09:39:15Z</time>
      </trkpt>
      <trkpt lat="45.61885" lon="2.8142">
        <ele>1308.97</ele>
        <time>2014-08-31T09:39:27Z</time>
      </trkpt>
      <trkpt lat="45.6189" lon="2.81443">
        <ele>1307.53</ele>
        <time>2014-08-31T09:39:41Z</time>
      </trkpt>
      <trkpt lat="45.61892" lon="2.81454">
        <ele>1306.57</ele>
        <time>2014-08-31T09:39:51Z</time>
      </trkpt>
      <trkpt lat="45.61896" lon="2.81457">
        <ele>1307.53</ele>
        <time>2014-08-31T09:39:54Z</time>
      </trkpt>
      <trkpt lat="45.61898" lon="2.81465">
        <ele>1307.53</ele>
        <time>2014-08-31T09:39:59Z</time>
      </trkpt>
      <trkpt lat="45.61899" lon="2.81472">
        <ele>1307.53</ele>
        <time>2014-08-31T09:40:03Z</time>
      </trkpt>
      <trkpt lat="45.61901" lon="2.81482">
        <ele>1307.53</ele>
        <time>2014-08-31T09:40:08Z</time>
      </trkpt>
      <trkpt lat="45.61904" lon="2.8149">
        <ele>1307.05</ele>
        <time>2014-08-31T09:40:13Z</time>
      </trkpt>
      <trkpt lat="45.61905" lon="2.81502">
        <ele>1307.05</ele>
        <time>2014-08-31T09:40:23Z</time>
      </trkpt>
      <trkpt lat="45.61906" lon="2.81509">
        <ele>1306.09</ele>
        <time>2014-08-31T09:40:35Z</time>
      </trkpt>
      <trkpt lat="45.6191" lon="2.81523">
        <ele>1305.13</ele>
        <time>2014-08-31T09:40:41Z</time>
      </trkpt>
      <trkpt lat="45.61917" lon="2.81531">
        <ele>1305.61</ele>
        <time>2014-08-31T09:40:46Z</time>
      </trkpt>
      <trkpt lat="45.6192" lon="2.81544">
        <ele>1306.57</ele>
        <time>2014-08-31T09:40:57Z</time>
      </trkpt>
      <trkpt lat="45.6192" lon="2.81545">
        <ele>1305.13</ele>
        <time>2014-08-31T09:41:00Z</time>
      </trkpt>
      <trkpt lat="45.61926" lon="2.81551">
        <ele>1305.13</ele>
        <time>2014-08-31T09:41:06Z</time>
      </trkpt>
      <trkpt lat="45.61944" lon="2.81554">
        <ele>1306.57</ele>
        <time>2014-08-31T09:41:20Z</time>
      </trkpt>
      <trkpt lat="45.61947" lon="2.81554">
        <ele>1308.49</ele>
        <time>2014-08-31T09:41:26Z</time>
      </trkpt>
      <trkpt lat="45.6195" lon="2.81551">
        <ele>1308.97</ele>
        <time>2014-08-31T09:41:30Z</time>
      </trkpt>
      <trkpt lat="45.61954" lon="2.81551">
        <ele>1309.45</ele>
        <time>2014-08-31T09:41:34Z</time>
      </trkpt>
      <trkpt lat="45.61955" lon="2.81553">
        <ele>1309.45</ele>
        <time>2014-08-31T09:41:45Z</time>
      </trkpt>
      <trkpt lat="45.61955" lon="2.81554">
        <ele>1309.45</ele>
        <time>2014-08-31T09:42:05Z</time>
      </trkpt>
      <trkpt lat="45.61955" lon="2.81553">
        <ele>1309.45</ele>
        <time>2014-08-31T09:42:23Z</time>
      </trkpt>
      <trkpt lat="45.61954" lon="2.81552">
        <ele>1308.97</ele>
        <time>2014-08-31T09:42:52Z</time>
      </trkpt>
      <trkpt lat="45.61955" lon="2.81552">
        <ele>1309.45</ele>
        <time>2014-08-31T09:43:05Z</time>
      </trkpt>
      <trkpt lat="45.61955" lon="2.81554">
        <ele>1308.97</ele>
        <time>2014-08-31T09:43:22Z</time>
      </trkpt>
      <trkpt lat="45.61954" lon="2.81552">
        <ele>1309.45</ele>
        <time>2014-08-31T09:43:42Z</time>
      </trkpt>
      <trkpt lat="45.61955" lon="2.81549">
        <ele>1309.45</ele>
        <time>2014-08-31T09:43:52Z</time>
      </trkpt>
      <trkpt lat="45.61955" lon="2.81549">
        <ele>1309.45</ele>
        <time>2014-08-31T09:44:00Z</time>
      </trkpt>
      <trkpt lat="45.61965" lon="2.81558">
        <ele>1309.93</ele>
        <time>2014-08-31T09:44:12Z</time>
      </trkpt>
      <trkpt lat="45.6197" lon="2.81567">
        <ele>1309.93</ele>
        <time>2014-08-31T09:44:24Z</time>
      </trkpt>
      <trkpt lat="45.61971" lon="2.81568">
        <ele>1310.41</ele>
        <time>2014-08-31T09:44:34Z</time>
      </trkpt>
      <trkpt lat="45.61979" lon="2.81567">
        <ele>1311.38</ele>
        <time>2014-08-31T09:44:42Z</time>
      </trkpt>
      <trkpt lat="45.61988" lon="2.81569">
        <ele>1312.82</ele>
        <time>2014-08-31T09:44:54Z</time>
      </trkpt>
      <trkpt lat="45.61989" lon="2.81568">
        <ele>1312.82</ele>
        <time>2014-08-31T09:44:55Z</time>
      </trkpt>
      <trkpt lat="45.61992" lon="2.81568">
        <ele>1312.82</ele>
        <time>2014-08-31T09:45:03Z</time>
      </trkpt>
      <trkpt lat="45.62" lon="2.8157">
        <ele>1313.78</ele>
        <time>2014-08-31T09:45:12Z</time>
      </trkpt>
      <trkpt lat="45.62001" lon="2.81571">
        <ele>1313.78</ele>
        <time>2014-08-31T09:45:28Z</time>
      </trkpt>
      <trkpt lat="45.62001" lon="2.8157">
        <ele>1313.78</ele>
        <time>2014-08-31T09:46:02Z</time>
      </trkpt>
      <trkpt lat="45.62002" lon="2.81569">
        <ele>1313.78</ele>
        <time>2014-08-31T09:46:29Z</time>
      </trkpt>
      <trkpt lat="45.62007" lon="2.81569">
        <ele>1314.26</ele>
        <time>2014-08-31T09:46:45Z</time>
      </trkpt>
      <trkpt lat="45.62011" lon="2.81566">
        <ele>1315.22</ele>
        <time>2014-08-31T09:46:51Z</time>
      </trkpt>
      <trkpt lat="45.62022" lon="2.81553">
        <ele>1315.7</ele>
        <time>2014-08-31T09:47:04Z</time>
      </trkpt>
      <trkpt lat="45.62022" lon="2.81552">
        <ele>1315.7</ele>
        <time>2014-08-31T09:47:05Z</time>
      </trkpt>
      <trkpt lat="45.62023" lon="2.8155">
        <ele>1315.22</ele>
        <time>2014-08-31T09:47:08Z</time>
      </trkpt>
      <trkpt lat="45.62029" lon="2.81533">
        <ele>1316.18</ele>
        <time>2014-08-31T09:47:21Z</time>
      </trkpt>
      <trkpt lat="45.62037" lon="2.81514">
        <ele>1317.14</ele>
        <time>2014-08-31T09:47:34Z</time>
      </trkpt>
      <trkpt lat="45.62042" lon="2.8149">
        <ele>1317.62</ele>
        <time>2014-08-31T09:47:46Z</time>
      </trkpt>
      <trkpt lat="45.62042" lon="2.81481">
        <ele>1318.59</ele>
        <time>2014-08-31T09:47:52Z</time>
      </trkpt>
      <trkpt lat="45.62043" lon="2.81471">
        <ele>1319.55</ele>
        <time>2014-08-31T09:48:00Z</time>
      </trkpt>
      <trkpt lat="45.62044" lon="2.81461">
        <ele>1320.03</ele>
        <time>2014-08-31T09:48:07Z</time>
      </trkpt>
      <trkpt lat="45.62044" lon="2.81456">
        <ele>1322.43</ele>
        <time>2014-08-31T09:48:10Z</time>
      </trkpt>
      <trkpt lat="45.62044" lon="2.8145">
        <ele>1320.51</ele>
        <time>2014-08-31T09:48:15Z</time>
      </trkpt>
      <trkpt lat="45.62047" lon="2.81438">
        <ele>1320.99</ele>
        <time>2014-08-31T09:48:23Z</time>
      </trkpt>
      <trkpt lat="45.62046" lon="2.8143">
        <ele>1321.47</ele>
        <time>2014-08-31T09:48:28Z</time>
      </trkpt>
      <trkpt lat="45.62048" lon="2.81425">
        <ele>1321.95</ele>
        <time>2014-08-31T09:48:33Z</time>
      </trkpt>
      <trkpt lat="45.62051" lon="2.8142">
        <ele>1322.43</ele>
        <time>2014-08-31T09:48:41Z</time>
      </trkpt>
      <trkpt lat="45.62053" lon="2.81407">
        <ele>1323.39</ele>
        <time>2014-08-31T09:48:49Z</time>
      </trkpt>
      <trkpt lat="45.62053" lon="2.81404">
        <ele>1323.87</ele>
        <time>2014-08-31T09:48:53Z</time>
      </trkpt>
      <trkpt lat="45.62054" lon="2.81391">
        <ele>1324.35</ele>
        <time>2014-08-31T09:49:05Z</time>
      </trkpt>
      <trkpt lat="45.62055" lon="2.81371">
        <ele>1324.35</ele>
        <time>2014-08-31T09:49:12Z</time>
      </trkpt>
      <trkpt lat="45.62054" lon="2.81334">
        <ele>1324.35</ele>
        <time>2014-08-31T09:49:23Z</time>
      </trkpt>
      <trkpt lat="45.62053" lon="2.81329">
        <ele>1325.31</ele>
        <time>2014-08-31T09:49:35Z</time>
      </trkpt>
      <trkpt lat="45.62052" lon="2.81329">
        <ele>1325.8</ele>
        <time>2014-08-31T09:49:39Z</time>
      </trkpt>
      <trkpt lat="45.62052" lon="2.81316">
        <ele>1325.8</ele>
        <time>2014-08-31T09:49:46Z</time>
      </trkpt>
      <trkpt lat="45.62053" lon="2.81294">
        <ele>1326.28</ele>
        <time>2014-08-31T09:49:58Z</time>
      </trkpt>
      <trkpt lat="45.62051" lon="2.81292">
        <ele>1325.8</ele>
        <time>2014-08-31T09:50:09Z</time>
      </trkpt>
      <trkpt lat="45.6205" lon="2.81277">
        <ele>1325.8</ele>
        <time>2014-08-31T09:50:17Z</time>
      </trkpt>
      <trkpt lat="45.62048" lon="2.81266">
        <ele>1325.8</ele>
        <time>2014-08-31T09:50:29Z</time>
      </trkpt>
      <trkpt lat="45.62047" lon="2.81266">
        <ele>1325.31</ele>
        <time>2014-08-31T09:50:51Z</time>
      </trkpt>
      <trkpt lat="45.62047" lon="2.81266">
        <ele>1325.8</ele>
        <time>2014-08-31T09:51:06Z</time>
      </trkpt>
      <trkpt lat="45.62047" lon="2.8126">
        <ele>1326.28</ele>
        <time>2014-08-31T09:51:12Z</time>
      </trkpt>
      <trkpt lat="45.62047" lon="2.81256">
        <ele>1326.28</ele>
        <time>2014-08-31T09:51:15Z</time>
      </trkpt>
      <trkpt lat="45.62047" lon="2.81249">
        <ele>1327.24</ele>
        <time>2014-08-31T09:51:24Z</time>
      </trkpt>
      <trkpt lat="45.62048" lon="2.81234">
        <ele>1327.24</ele>
        <time>2014-08-31T09:51:34Z</time>
      </trkpt>
      <trkpt lat="45.62045" lon="2.81223">
        <ele>1327.24</ele>
        <time>2014-08-31T09:51:47Z</time>
      </trkpt>
      <trkpt lat="45.62044" lon="2.81216">
        <ele>1327.24</ele>
        <time>2014-08-31T09:51:56Z</time>
      </trkpt>
      <trkpt lat="45.62044" lon="2.81203">
        <ele>1327.72</ele>
        <time>2014-08-31T09:52:07Z</time>
      </trkpt>
      <trkpt lat="45.62042" lon="2.81194">
        <ele>1328.2</ele>
        <time>2014-08-31T09:52:15Z</time>
      </trkpt>
      <trkpt lat="45.62042" lon="2.81177">
        <ele>1328.68</ele>
        <time>2014-08-31T09:52:26Z</time>
      </trkpt>
      <trkpt lat="45.62041" lon="2.81158">
        <ele>1329.16</ele>
        <time>2014-08-31T09:52:37Z</time>
      </trkpt>
      <trkpt lat="45.6204" lon="2.81144">
        <ele>1329.16</ele>
        <time>2014-08-31T09:52:46Z</time>
      </trkpt>
      <trkpt lat="45.62039" lon="2.81139">
        <ele>1329.64</ele>
        <time>2014-08-31T09:52:58Z</time>
      </trkpt>
      <trkpt lat="45.62038" lon="2.81126">
        <ele>1330.12</ele>
        <time>2014-08-31T09:53:11Z</time>
      </trkpt>
      <trkpt lat="45.62037" lon="2.81122">
        <ele>1330.6</ele>
        <time>2014-08-31T09:53:22Z</time>
      </trkpt>
      <trkpt lat="45.62038" lon="2.81119">
        <ele>1330.6</ele>
        <time>2014-08-31T09:53:28Z</time>
      </trkpt>
      <trkpt lat="45.62037" lon="2.81107">
        <ele>1331.56</ele>
        <time>2014-08-31T09:53:40Z</time>
      </trkpt>
      <trkpt lat="45.62037" lon="2.81106">
        <ele>1331.56</ele>
        <time>2014-08-31T09:53:41Z</time>
      </trkpt>
      <trkpt lat="45.62037" lon="2.81097">
        <ele>1332.04</ele>
        <time>2014-08-31T09:53:46Z</time>
      </trkpt>
      <trkpt lat="45.62038" lon="2.81093">
        <ele>1332.04</ele>
        <time>2014-08-31T09:53:50Z</time>
      </trkpt>
      <trkpt lat="45.62038" lon="2.81089">
        <ele>1332.04</ele>
        <time>2014-08-31T09:53:54Z</time>
      </trkpt>
      <trkpt lat="45.62038" lon="2.81079">
        <ele>1332.04</ele>
        <time>2014-08-31T09:54:04Z</time>
      </trkpt>
      <trkpt lat="45.62038" lon="2.81069">
        <ele>1332.52</ele>
        <time>2014-08-31T09:54:15Z</time>
      </trkpt>
      <trkpt lat="45.62037" lon="2.81059">
        <ele>1333.01</ele>
        <time>2014-08-31T09:54:24Z</time>
      </trkpt>
      <trkpt lat="45.62037" lon="2.81055">
        <ele>1333.49</ele>
        <time>2014-08-31T09:54:33Z</time>
      </trkpt>
      <trkpt lat="45.62038" lon="2.81043">
        <ele>1333.49</ele>
        <time>2014-08-31T09:54:43Z</time>
      </trkpt>
      <trkpt lat="45.62038" lon="2.81043">
        <ele>1333.49</ele>
        <time>2014-08-31T09:54:44Z</time>
      </trkpt>
      <trkpt lat="45.6204" lon="2.81026">
        <ele>1333.49</ele>
        <time>2014-08-31T09:54:54Z</time>
      </trkpt>
      <trkpt lat="45.62041" lon="2.8102">
        <ele>1333.49</ele>
        <time>2014-08-31T09:55:08Z</time>
      </trkpt>
      <trkpt lat="45.62041" lon="2.81016">
        <ele>1333.49</ele>
        <time>2014-08-31T09:55:29Z</time>
      </trkpt>
      <trkpt lat="45.62042" lon="2.81005">
        <ele>1333.49</ele>
        <time>2014-08-31T09:55:39Z</time>
      </trkpt>
      <trkpt lat="45.62041" lon="2.80993">
        <ele>1334.93</ele>
        <time>2014-08-31T09:55:49Z</time>
      </trkpt>
      <trkpt lat="45.62041" lon="2.80984">
        <ele>1334.93</ele>
        <time>2014-08-31T09:56:00Z</time>
      </trkpt>
      <trkpt lat="45.62042" lon="2.80975">
        <ele>1335.41</ele>
        <time>2014-08-31T09:56:10Z</time>
      </trkpt>
      <trkpt lat="45.62043" lon="2.80973">
        <ele>1334.93</ele>
        <time>2014-08-31T09:56:20Z</time>
      </trkpt>
      <trkpt lat="45.62044" lon="2.80968">
        <ele>1334.45</ele>
        <time>2014-08-31T09:56:24Z</time>
      </trkpt>
      <trkpt lat="45.62046" lon="2.8096">
        <ele>1334.45</ele>
        <time>2014-08-31T09:56:32Z</time>
      </trkpt>
      <trkpt lat="45.62047" lon="2.80947">
        <ele>1334.45</ele>
        <time>2014-08-31T09:56:38Z</time>
      </trkpt>
      <trkpt lat="45.62051" lon="2.80935">
        <ele>1333.97</ele>
        <time>2014-08-31T09:56:43Z</time>
      </trkpt>
      <trkpt lat="45.62051" lon="2.80931">
        <ele>1334.45</ele>
        <time>2014-08-31T09:56:47Z</time>
      </trkpt>
      <trkpt lat="45.6205" lon="2.80912">
        <ele>1335.41</ele>
        <time>2014-08-31T09:56:57Z</time>
      </trkpt>
      <trkpt lat="45.62049" lon="2.8091">
        <ele>1335.41</ele>
        <time>2014-08-31T09:57:02Z</time>
      </trkpt>
      <trkpt lat="45.62049" lon="2.80908">
        <ele>1334.45</ele>
        <time>2014-08-31T09:57:08Z</time>
      </trkpt>
      <trkpt lat="45.6205" lon="2.80901">
        <ele>1333.97</ele>
        <time>2014-08-31T09:57:12Z</time>
      </trkpt>
      <trkpt lat="45.6205" lon="2.80895">
        <ele>1333.97</ele>
        <time>2014-08-31T09:57:17Z</time>
      </trkpt>
      <trkpt lat="45.6205" lon="2.80885">
        <ele>1333.97</ele>
        <time>2014-08-31T09:57:21Z</time>
      </trkpt>
      <trkpt lat="45.62049" lon="2.8087">
        <ele>1333.97</ele>
        <time>2014-08-31T09:57:32Z</time>
      </trkpt>
      <trkpt lat="45.62047" lon="2.80859">
        <ele>1335.89</ele>
        <time>2014-08-31T09:57:46Z</time>
      </trkpt>
      <trkpt lat="45.62047" lon="2.80855">
        <ele>1337.33</ele>
        <time>2014-08-31T09:57:57Z</time>
      </trkpt>
      <trkpt lat="45.62047" lon="2.80853">
        <ele>1337.81</ele>
        <time>2014-08-31T09:58:00Z</time>
      </trkpt>
      <trkpt lat="45.62047" lon="2.80845">
        <ele>1338.29</ele>
        <time>2014-08-31T09:58:07Z</time>
      </trkpt>
      <trkpt lat="45.62046" lon="2.80833">
        <ele>1339.73</ele>
        <time>2014-08-31T09:58:15Z</time>
      </trkpt>
      <trkpt lat="45.62055" lon="2.80831">
        <ele>1342.14</ele>
        <time>2014-08-31T09:58:30Z</time>
      </trkpt>
      <trkpt lat="45.62056" lon="2.80831">
        <ele>1342.62</ele>
        <time>2014-08-31T09:58:32Z</time>
      </trkpt>
      <trkpt lat="45.62068" lon="2.80828">
        <ele>1342.62</ele>
        <time>2014-08-31T09:58:48Z</time>
      </trkpt>
      <trkpt lat="45.62069" lon="2.80829">
        <ele>1343.1</ele>
        <time>2014-08-31T09:59:00Z</time>
      </trkpt>
      <trkpt lat="45.62069" lon="2.80829">
        <ele>1342.62</ele>
        <time>2014-08-31T09:59:06Z</time>
      </trkpt>
      <trkpt lat="45.62071" lon="2.80819">
        <ele>1343.1</ele>
        <time>2014-08-31T09:59:12Z</time>
      </trkpt>
      <trkpt lat="45.62073" lon="2.80811">
        <ele>1343.58</ele>
        <time>2014-08-31T09:59:20Z</time>
      </trkpt>
      <trkpt lat="45.62079" lon="2.80792">
        <ele>1342.62</ele>
        <time>2014-08-31T09:59:32Z</time>
      </trkpt>
      <trkpt lat="45.62083" lon="2.80774">
        <ele>1342.14</ele>
        <time>2014-08-31T09:59:41Z</time>
      </trkpt>
      <trkpt lat="45.62086" lon="2.80761">
        <ele>1343.58</ele>
        <time>2014-08-31T09:59:52Z</time>
      </trkpt>
      <trkpt lat="45.62089" lon="2.80743">
        <ele>1343.58</ele>
        <time>2014-08-31T10:00:03Z</time>
      </trkpt>
      <trkpt lat="45.62092" lon="2.80729">
        <ele>1345.02</ele>
        <time>2014-08-31T10:00:10Z</time>
      </trkpt>
      <trkpt lat="45.62092" lon="2.80713">
        <ele>1345.5</ele>
        <time>2014-08-31T10:00:18Z</time>
      </trkpt>
      <trkpt lat="45.62094" lon="2.80702">
        <ele>1343.58</ele>
        <time>2014-08-31T10:00:29Z</time>
      </trkpt>
      <trkpt lat="45.62095" lon="2.80703">
        <ele>1343.58</ele>
        <time>2014-08-31T10:00:34Z</time>
      </trkpt>
      <trkpt lat="45.621" lon="2.80704">
        <ele>1342.14</ele>
        <time>2014-08-31T10:00:40Z</time>
      </trkpt>
      <trkpt lat="45.62102" lon="2.80708">
        <ele>1341.66</ele>
        <time>2014-08-31T10:00:44Z</time>
      </trkpt>
      <trkpt lat="45.62105" lon="2.80707">
        <ele>1339.25</ele>
        <time>2014-08-31T10:00:55Z</time>
      </trkpt>
      <trkpt lat="45.62116" lon="2.80702">
        <ele>1336.85</ele>
        <time>2014-08-31T10:01:07Z</time>
      </trkpt>
      <trkpt lat="45.62119" lon="2.80704">
        <ele>1335.41</ele>
        <time>2014-08-31T10:01:12Z</time>
      </trkpt>
      <trkpt lat="45.62118" lon="2.80708">
        <ele>1333.49</ele>
        <time>2014-08-31T10:01:20Z</time>
      </trkpt>
      <trkpt lat="45.62122" lon="2.80709">
        <ele>1331.08</ele>
        <time>2014-08-31T10:01:32Z</time>
      </trkpt>
      <trkpt lat="45.62124" lon="2.80711">
        <ele>1329.64</ele>
        <time>2014-08-31T10:01:38Z</time>
      </trkpt>
      <trkpt lat="45.62126" lon="2.80713">
        <ele>1329.16</ele>
        <time>2014-08-31T10:01:40Z</time>
      </trkpt>
      <trkpt lat="45.62136" lon="2.80713">
        <ele>1326.76</ele>
        <time>2014-08-31T10:01:48Z</time>
      </trkpt>
      <trkpt lat="45.62138" lon="2.80718">
        <ele>1326.28</ele>
        <time>2014-08-31T10:01:51Z</time>
      </trkpt>
      <trkpt lat="45.62142" lon="2.80722">
        <ele>1325.8</ele>
        <time>2014-08-31T10:01:55Z</time>
      </trkpt>
      <trkpt lat="45.62144" lon="2.80728">
        <ele>1323.87</ele>
        <time>2014-08-31T10:01:59Z</time>
      </trkpt>
      <trkpt lat="45.62144" lon="2.80733">
        <ele>1324.35</ele>
        <time>2014-08-31T10:02:02Z</time>
      </trkpt>
      <trkpt lat="45.62146" lon="2.8074">
        <ele>1323.39</ele>
        <time>2014-08-31T10:02:07Z</time>
      </trkpt>
      <trkpt lat="45.62144" lon="2.80744">
        <ele>1322.91</ele>
        <time>2014-08-31T10:02:10Z</time>
      </trkpt>
      <trkpt lat="45.62139" lon="2.80749">
        <ele>1322.43</ele>
        <time>2014-08-31T10:02:17Z</time>
      </trkpt>
      <trkpt lat="45.62132" lon="2.8077">
        <ele>1321.47</ele>
        <time>2014-08-31T10:02:30Z</time>
      </trkpt>
      <trkpt lat="45.62138" lon="2.80777">
        <ele>1319.55</ele>
        <time>2014-08-31T10:02:41Z</time>
      </trkpt>
      <trkpt lat="45.62143" lon="2.80778">
        <ele>1318.59</ele>
        <time>2014-08-31T10:02:50Z</time>
      </trkpt>
      <trkpt lat="45.62161" lon="2.80784">
        <ele>1318.59</ele>
        <time>2014-08-31T10:03:04Z</time>
      </trkpt>
      <trkpt lat="45.62162" lon="2.80785">
        <ele>1318.1</ele>
        <time>2014-08-31T10:03:07Z</time>
      </trkpt>
      <trkpt lat="45.6217" lon="2.80796">
        <ele>1317.62</ele>
        <time>2014-08-31T10:03:13Z</time>
      </trkpt>
      <trkpt lat="45.62178" lon="2.80798">
        <ele>1318.1</ele>
        <time>2014-08-31T10:03:23Z</time>
      </trkpt>
      <trkpt lat="45.62196" lon="2.80812">
        <ele>1318.1</ele>
        <time>2014-08-31T10:03:39Z</time>
      </trkpt>
      <trkpt lat="45.62206" lon="2.80822">
        <ele>1318.1</ele>
        <time>2014-08-31T10:03:53Z</time>
      </trkpt>
      <trkpt lat="45.62213" lon="2.80825">
        <ele>1318.1</ele>
        <time>2014-08-31T10:04:02Z</time>
      </trkpt>
      <trkpt lat="45.62221" lon="2.80831">
        <ele>1317.14</ele>
        <time>2014-08-31T10:04:17Z</time>
      </trkpt>
      <trkpt lat="45.62232" lon="2.80829">
        <ele>1316.66</ele>
        <time>2014-08-31T10:04:28Z</time>
      </trkpt>
      <trkpt lat="45.62232" lon="2.80833">
        <ele>1316.18</ele>
        <time>2014-08-31T10:04:37Z</time>
      </trkpt>
      <trkpt lat="45.62233" lon="2.80835">
        <ele>1315.22</ele>
        <time>2014-08-31T10:04:49Z</time>
      </trkpt>
      <trkpt lat="45.62242" lon="2.80833">
        <ele>1315.22</ele>
        <time>2014-08-31T10:05:02Z</time>
      </trkpt>
      <trkpt lat="45.62246" lon="2.80831">
        <ele>1315.22</ele>
        <time>2014-08-31T10:05:04Z</time>
      </trkpt>
      <trkpt lat="45.62253" lon="2.8083">
        <ele>1315.22</ele>
        <time>2014-08-31T10:05:07Z</time>
      </trkpt>
      <trkpt lat="45.62274" lon="2.80832">
        <ele>1315.22</ele>
        <time>2014-08-31T10:05:12Z</time>
      </trkpt>
      <trkpt lat="45.6229" lon="2.80825">
        <ele>1314.26</ele>
        <time>2014-08-31T10:05:27Z</time>
      </trkpt>
      <trkpt lat="45.62303" lon="2.80826">
        <ele>1312.34</ele>
        <time>2014-08-31T10:05:42Z</time>
      </trkpt>
      <trkpt lat="45.62308" lon="2.80829">
        <ele>1311.86</ele>
        <time>2014-08-31T10:05:54Z</time>
      </trkpt>
      <trkpt lat="45.62327" lon="2.80842">
        <ele>1312.34</ele>
        <time>2014-08-31T10:06:08Z</time>
      </trkpt>
      <trkpt lat="45.62331" lon="2.80849">
        <ele>1311.86</ele>
        <time>2014-08-31T10:06:15Z</time>
      </trkpt>
      <trkpt lat="45.62336" lon="2.80872">
        <ele>1311.38</ele>
        <time>2014-08-31T10:06:29Z</time>
      </trkpt>
      <trkpt lat="45.62339" lon="2.80875">
        <ele>1309.93</ele>
        <time>2014-08-31T10:06:37Z</time>
      </trkpt>
      <trkpt lat="45.62355" lon="2.80882">
        <ele>1307.53</ele>
        <time>2014-08-31T10:06:49Z</time>
      </trkpt>
      <trkpt lat="45.62359" lon="2.80882">
        <ele>1306.57</ele>
        <time>2014-08-31T10:07:01Z</time>
      </trkpt>
      <trkpt lat="45.62365" lon="2.80887">
        <ele>1304.17</ele>
        <time>2014-08-31T10:07:13Z</time>
      </trkpt>
      <trkpt lat="45.62374" lon="2.80886">
        <ele>1302.24</ele>
        <time>2014-08-31T10:07:26Z</time>
      </trkpt>
      <trkpt lat="45.6238" lon="2.80889">
        <ele>1301.28</ele>
        <time>2014-08-31T10:07:39Z</time>
      </trkpt>
      <trkpt lat="45.62383" lon="2.8089">
        <ele>1300.32</ele>
        <time>2014-08-31T10:07:51Z</time>
      </trkpt>
      <trkpt lat="45.62391" lon="2.80895">
        <ele>1298.88</ele>
        <time>2014-08-31T10:08:04Z</time>
      </trkpt>
      <trkpt lat="45.62397" lon="2.80902">
        <ele>1297.92</ele>
        <time>2014-08-31T10:08:19Z</time>
      </trkpt>
      <trkpt lat="45.62398" lon="2.80906">
        <ele>1296.48</ele>
        <time>2014-08-31T10:08:29Z</time>
      </trkpt>
      <trkpt lat="45.62398" lon="2.80912">
        <ele>1294.55</ele>
        <time>2014-08-31T10:08:37Z</time>
      </trkpt>
      <trkpt lat="45.62398" lon="2.80912">
        <ele>1294.55</ele>
        <time>2014-08-31T10:08:38Z</time>
      </trkpt>
      <trkpt lat="45.624" lon="2.80925">
        <ele>1293.11</ele>
        <time>2014-08-31T10:08:50Z</time>
      </trkpt>
      <trkpt lat="45.62398" lon="2.80934">
        <ele>1290.71</ele>
        <time>2014-08-31T10:09:09Z</time>
      </trkpt>
      <trkpt lat="45.62398" lon="2.80939">
        <ele>1287.82</ele>
        <time>2014-08-31T10:09:23Z</time>
      </trkpt>
      <trkpt lat="45.62396" lon="2.80944">
        <ele>1286.86</ele>
        <time>2014-08-31T10:09:40Z</time>
      </trkpt>
      <trkpt lat="45.62394" lon="2.80951">
        <ele>1283.98</ele>
        <time>2014-08-31T10:09:54Z</time>
      </trkpt>
      <trkpt lat="45.62392" lon="2.80963">
        <ele>1283.5</ele>
        <time>2014-08-31T10:09:58Z</time>
      </trkpt>
      <trkpt lat="45.6239" lon="2.80978">
        <ele>1282.54</ele>
        <time>2014-08-31T10:10:02Z</time>
      </trkpt>
      <trkpt lat="45.62385" lon="2.81011">
        <ele>1279.65</ele>
        <time>2014-08-31T10:10:17Z</time>
      </trkpt>
      <trkpt lat="45.62383" lon="2.81025">
        <ele>1279.17</ele>
        <time>2014-08-31T10:10:30Z</time>
      </trkpt>
      <trkpt lat="45.62382" lon="2.81038">
        <ele>1278.69</ele>
        <time>2014-08-31T10:10:35Z</time>
      </trkpt>
      <trkpt lat="45.6238" lon="2.81071">
        <ele>1278.69</ele>
        <time>2014-08-31T10:10:46Z</time>
      </trkpt>
      <trkpt lat="45.62377" lon="2.81087">
        <ele>1278.69</ele>
        <time>2014-08-31T10:10:58Z</time>
      </trkpt>
      <trkpt lat="45.62376" lon="2.81101">
        <ele>1279.17</ele>
        <time>2014-08-31T10:11:08Z</time>
      </trkpt>
      <trkpt lat="45.62375" lon="2.81108">
        <ele>1279.17</ele>
        <time>2014-08-31T10:11:11Z</time>
      </trkpt>
      <trkpt lat="45.62372" lon="2.81117">
        <ele>1278.21</ele>
        <time>2014-08-31T10:11:25Z</time>
      </trkpt>
      <trkpt lat="45.62366" lon="2.81124">
        <ele>1277.25</ele>
        <time>2014-08-31T10:11:30Z</time>
      </trkpt>
      <trkpt lat="45.62364" lon="2.8113">
        <ele>1277.25</ele>
        <time>2014-08-31T10:11:33Z</time>
      </trkpt>
      <trkpt lat="45.62365" lon="2.8114">
        <ele>1276.77</ele>
        <time>2014-08-31T10:11:38Z</time>
      </trkpt>
      <trkpt lat="45.62359" lon="2.81146">
        <ele>1276.29</ele>
        <time>2014-08-31T10:11:43Z</time>
      </trkpt>
      <trkpt lat="45.62352" lon="2.81158">
        <ele>1274.85</ele>
        <time>2014-08-31T10:11:55Z</time>
      </trkpt>
      <trkpt lat="45.62345" lon="2.81163">
        <ele>1275.33</ele>
        <time>2014-08-31T10:12:08Z</time>
      </trkpt>
      <trkpt lat="45.62338" lon="2.81174">
        <ele>1276.77</ele>
        <time>2014-08-31T10:12:23Z</time>
      </trkpt>
      <trkpt lat="45.62329" lon="2.81181">
        <ele>1277.73</ele>
        <time>2014-08-31T10:12:33Z</time>
      </trkpt>
      <trkpt lat="45.62305" lon="2.81184">
        <ele>1278.21</ele>
        <time>2014-08-31T10:12:45Z</time>
      </trkpt>
      <trkpt lat="45.623" lon="2.81188">
        <ele>1278.21</ele>
        <time>2014-08-31T10:12:56Z</time>
      </trkpt>
      <trkpt lat="45.62287" lon="2.81192">
        <ele>1278.21</ele>
        <time>2014-08-31T10:13:01Z</time>
      </trkpt>
      <trkpt lat="45.6226" lon="2.81188">
        <ele>1278.21</ele>
        <time>2014-08-31T10:13:12Z</time>
      </trkpt>
      <trkpt lat="45.62254" lon="2.81194">
        <ele>1277.73</ele>
        <time>2014-08-31T10:13:20Z</time>
      </trkpt>
      <trkpt lat="45.62253" lon="2.81198">
        <ele>1277.73</ele>
        <time>2014-08-31T10:13:22Z</time>
      </trkpt>
      <trkpt lat="45.62249" lon="2.81212">
        <ele>1277.73</ele>
        <time>2014-08-31T10:13:30Z</time>
      </trkpt>
      <trkpt lat="45.62247" lon="2.8122">
        <ele>1277.25</ele>
        <time>2014-08-31T10:13:38Z</time>
      </trkpt>
      <trkpt lat="45.62244" lon="2.81229">
        <ele>1276.77</ele>
        <time>2014-08-31T10:13:50Z</time>
      </trkpt>
      <trkpt lat="45.62243" lon="2.8123">
        <ele>1276.77</ele>
        <time>2014-08-31T10:13:51Z</time>
      </trkpt>
      <trkpt lat="45.62237" lon="2.81235">
        <ele>1276.29</ele>
        <time>2014-08-31T10:13:55Z</time>
      </trkpt>
      <trkpt lat="45.62229" lon="2.81243">
        <ele>1275.33</ele>
        <time>2014-08-31T10:14:02Z</time>
      </trkpt>
      <trkpt lat="45.62224" lon="2.81247">
        <ele>1274.85</ele>
        <time>2014-08-31T10:14:06Z</time>
      </trkpt>
      <trkpt lat="45.62209" lon="2.81255">
        <ele>1274.85</ele>
        <time>2014-08-31T10:14:23Z</time>
      </trkpt>
      <trkpt lat="45.62208" lon="2.81256">
        <ele>1274.85</ele>
        <time>2014-08-31T10:14:24Z</time>
      </trkpt>
      <trkpt lat="45.62191" lon="2.81268">
        <ele>1274.85</ele>
        <time>2014-08-31T10:14:39Z</time>
      </trkpt>
      <trkpt lat="45.62189" lon="2.81273">
        <ele>1274.85</ele>
        <time>2014-08-31T10:14:45Z</time>
      </trkpt>
      <trkpt lat="45.62184" lon="2.81287">
        <ele>1274.85</ele>
        <time>2014-08-31T10:15:01Z</time>
      </trkpt>
      <trkpt lat="45.62177" lon="2.81296">
        <ele>1274.85</ele>
        <time>2014-08-31T10:15:10Z</time>
      </trkpt>
      <trkpt lat="45.62173" lon="2.81304">
        <ele>1275.33</ele>
        <time>2014-08-31T10:15:18Z</time>
      </trkpt>
      <trkpt lat="45.62172" lon="2.81309">
        <ele>1275.33</ele>
        <time>2014-08-31T10:15:21Z</time>
      </trkpt>
      <trkpt lat="45.62174" lon="2.81321">
        <ele>1275.81</ele>
        <time>2014-08-31T10:15:32Z</time>
      </trkpt>
      <trkpt lat="45.62174" lon="2.81326">
        <ele>1276.29</ele>
        <time>2014-08-31T10:15:36Z</time>
      </trkpt>
      <trkpt lat="45.62175" lon="2.81339">
        <ele>1275.81</ele>
        <time>2014-08-31T10:15:45Z</time>
      </trkpt>
      <trkpt lat="45.62176" lon="2.8135">
        <ele>1275.81</ele>
        <time>2014-08-31T10:15:50Z</time>
      </trkpt>
      <trkpt lat="45.62175" lon="2.81359">
        <ele>1275.33</ele>
        <time>2014-08-31T10:15:56Z</time>
      </trkpt>
      <trkpt lat="45.62174" lon="2.81365">
        <ele>1275.33</ele>
        <time>2014-08-31T10:15:59Z</time>
      </trkpt>
      <trkpt lat="45.62175" lon="2.8137">
        <ele>1274.85</ele>
        <time>2014-08-31T10:16:02Z</time>
      </trkpt>
      <trkpt lat="45.62182" lon="2.8139">
        <ele>1275.33</ele>
        <time>2014-08-31T10:16:15Z</time>
      </trkpt>
      <trkpt lat="45.62182" lon="2.81392">
        <ele>1274.85</ele>
        <time>2014-08-31T10:16:17Z</time>
      </trkpt>
      <trkpt lat="45.62183" lon="2.81409">
        <ele>1273.88</ele>
        <time>2014-08-31T10:16:29Z</time>
      </trkpt>
      <trkpt lat="45.62189" lon="2.81421">
        <ele>1273.4</ele>
        <time>2014-08-31T10:16:37Z</time>
      </trkpt>
      <trkpt lat="45.62198" lon="2.81445">
        <ele>1273.4</ele>
        <time>2014-08-31T10:16:50Z</time>
      </trkpt>
      <trkpt lat="45.62199" lon="2.81437">
        <ele>1272.92</ele>
        <time>2014-08-31T10:17:06Z</time>
      </trkpt>
      <trkpt lat="45.622" lon="2.81442">
        <ele>1273.4</ele>
        <time>2014-08-31T10:17:30Z</time>
      </trkpt>
      <trkpt lat="45.62212" lon="2.8145">
        <ele>1273.4</ele>
        <time>2014-08-31T10:17:41Z</time>
      </trkpt>
      <trkpt lat="45.62218" lon="2.81469">
        <ele>1272.92</ele>
        <time>2014-08-31T10:17:50Z</time>
      </trkpt>
      <trkpt lat="45.62224" lon="2.81468">
        <ele>1272.44</ele>
        <time>2014-08-31T10:18:00Z</time>
      </trkpt>
      <trkpt lat="45.62228" lon="2.81468">
        <ele>1271.48</ele>
        <time>2014-08-31T10:18:20Z</time>
      </trkpt>
      <trkpt lat="45.62231" lon="2.8147">
        <ele>1270.04</ele>
        <time>2014-08-31T10:18:30Z</time>
      </trkpt>
      <trkpt lat="45.6224" lon="2.81482">
        <ele>1268.6</ele>
        <time>2014-08-31T10:18:40Z</time>
      </trkpt>
      <trkpt lat="45.62249" lon="2.81488">
        <ele>1268.12</ele>
        <time>2014-08-31T10:18:45Z</time>
      </trkpt>
      <trkpt lat="45.62255" lon="2.81498">
        <ele>1267.64</ele>
        <time>2014-08-31T10:18:52Z</time>
      </trkpt>
      <trkpt lat="45.62264" lon="2.81513">
        <ele>1266.19</ele>
        <time>2014-08-31T10:19:07Z</time>
      </trkpt>
      <trkpt lat="45.62266" lon="2.81516">
        <ele>1266.19</ele>
        <time>2014-08-31T10:19:10Z</time>
      </trkpt>
      <trkpt lat="45.62269" lon="2.81519">
        <ele>1266.19</ele>
        <time>2014-08-31T10:19:13Z</time>
      </trkpt>
      <trkpt lat="45.62284" lon="2.81541">
        <ele>1264.75</ele>
        <time>2014-08-31T10:19:24Z</time>
      </trkpt>
      <trkpt lat="45.62285" lon="2.81547">
        <ele>1264.27</ele>
        <time>2014-08-31T10:19:35Z</time>
      </trkpt>
      <trkpt lat="45.62293" lon="2.81553">
        <ele>1264.27</ele>
        <time>2014-08-31T10:19:40Z</time>
      </trkpt>
      <trkpt lat="45.62306" lon="2.81563">
        <ele>1263.31</ele>
        <time>2014-08-31T10:19:49Z</time>
      </trkpt>
      <trkpt lat="45.62308" lon="2.8157">
        <ele>1262.83</ele>
        <time>2014-08-31T10:19:54Z</time>
      </trkpt>
      <trkpt lat="45.62308" lon="2.81578">
        <ele>1262.35</ele>
        <time>2014-08-31T10:20:06Z</time>
      </trkpt>
      <trkpt lat="45.62312" lon="2.8159">
        <ele>1262.35</ele>
        <time>2014-08-31T10:20:16Z</time>
      </trkpt>
      <trkpt lat="45.62321" lon="2.81592">
        <ele>1262.35</ele>
        <time>2014-08-31T10:20:21Z</time>
      </trkpt>
      <trkpt lat="45.62338" lon="2.81595">
        <ele>1261.87</ele>
        <time>2014-08-31T10:20:33Z</time>
      </trkpt>
      <trkpt lat="45.62342" lon="2.81597">
        <ele>1261.39</ele>
        <time>2014-08-31T10:20:47Z</time>
      </trkpt>
      <trkpt lat="45.62346" lon="2.81598">
        <ele>1260.91</ele>
        <time>2014-08-31T10:21:04Z</time>
      </trkpt>
      <trkpt lat="45.62346" lon="2.816">
        <ele>1260.43</ele>
        <time>2014-08-31T10:21:05Z</time>
      </trkpt>
      <trkpt lat="45.62349" lon="2.81603">
        <ele>1261.39</ele>
        <time>2014-08-31T10:21:15Z</time>
      </trkpt>
      <trkpt lat="45.6235" lon="2.81604">
        <ele>1259.94</ele>
        <time>2014-08-31T10:21:19Z</time>
      </trkpt>
      <trkpt lat="45.62361" lon="2.81603">
        <ele>1259.46</ele>
        <time>2014-08-31T10:21:24Z</time>
      </trkpt>
      <trkpt lat="45.62363" lon="2.81603">
        <ele>1259.46</ele>
        <time>2014-08-31T10:21:25Z</time>
      </trkpt>
      <trkpt lat="45.62366" lon="2.81605">
        <ele>1259.46</ele>
        <time>2014-08-31T10:21:36Z</time>
      </trkpt>
      <trkpt lat="45.62366" lon="2.81607">
        <ele>1259.94</ele>
        <time>2014-08-31T10:21:49Z</time>
      </trkpt>
      <trkpt lat="45.62365" lon="2.81607">
        <ele>1259.94</ele>
        <time>2014-08-31T10:22:04Z</time>
      </trkpt>
      <trkpt lat="45.62366" lon="2.81605">
        <ele>1259.46</ele>
        <time>2014-08-31T10:22:07Z</time>
      </trkpt>
      <trkpt lat="45.62376" lon="2.81601">
        <ele>1259.46</ele>
        <time>2014-08-31T10:22:18Z</time>
      </trkpt>
      <trkpt lat="45.6238" lon="2.81602">
        <ele>1258.5</ele>
        <time>2014-08-31T10:22:28Z</time>
      </trkpt>
      <trkpt lat="45.62386" lon="2.81599">
        <ele>1258.98</ele>
        <time>2014-08-31T10:22:33Z</time>
      </trkpt>
      <trkpt lat="45.62393" lon="2.81592">
        <ele>1258.5</ele>
        <time>2014-08-31T10:22:45Z</time>
      </trkpt>
      <trkpt lat="45.62402" lon="2.81579">
        <ele>1258.02</ele>
        <time>2014-08-31T10:22:58Z</time>
      </trkpt>
      <trkpt lat="45.62427" lon="2.81562">
        <ele>1257.06</ele>
        <time>2014-08-31T10:23:08Z</time>
      </trkpt>
      <trkpt lat="45.62428" lon="2.81558">
        <ele>1256.58</ele>
        <time>2014-08-31T10:23:10Z</time>
      </trkpt>
      <trkpt lat="45.62428" lon="2.81552">
        <ele>1255.62</ele>
        <time>2014-08-31T10:23:21Z</time>
      </trkpt>
      <trkpt lat="45.62432" lon="2.81547">
        <ele>1254.66</ele>
        <time>2014-08-31T10:23:28Z</time>
      </trkpt>
      <trkpt lat="45.62435" lon="2.81545">
        <ele>1254.66</ele>
        <time>2014-08-31T10:23:30Z</time>
      </trkpt>
      <trkpt lat="45.62435" lon="2.81543">
        <ele>1254.18</ele>
        <time>2014-08-31T10:23:31Z</time>
      </trkpt>
      <trkpt lat="45.62436" lon="2.81541">
        <ele>1253.7</ele>
        <time>2014-08-31T10:23:32Z</time>
      </trkpt>
      <trkpt lat="45.62436" lon="2.81537">
        <ele>1253.7</ele>
        <time>2014-08-31T10:23:33Z</time>
      </trkpt>
      <trkpt lat="45.62436" lon="2.81533">
        <ele>1253.7</ele>
        <time>2014-08-31T10:23:34Z</time>
      </trkpt>
      <trkpt lat="45.62427" lon="2.8151">
        <ele>1251.77</ele>
        <time>2014-08-31T10:23:43Z</time>
      </trkpt>
      <trkpt lat="45.62425" lon="2.81511">
        <ele>1251.77</ele>
        <time>2014-08-31T10:23:47Z</time>
      </trkpt>
      <trkpt lat="45.62425" lon="2.81519">
        <ele>1250.33</ele>
        <time>2014-08-31T10:23:54Z</time>
      </trkpt>
      <trkpt lat="45.62428" lon="2.81519">
        <ele>1247.93</ele>
        <time>2014-08-31T10:24:08Z</time>
      </trkpt>
      <trkpt lat="45.62429" lon="2.81519">
        <ele>1245.53</ele>
        <time>2014-08-31T10:24:21Z</time>
      </trkpt>
      <trkpt lat="45.62441" lon="2.8151">
        <ele>1242.64</ele>
        <time>2014-08-31T10:24:36Z</time>
      </trkpt>
      <trkpt lat="45.62468" lon="2.81497">
        <ele>1239.76</ele>
        <time>2014-08-31T10:24:53Z</time>
      </trkpt>
      <trkpt lat="45.62486" lon="2.81481">
        <ele>1238.8</ele>
        <time>2014-08-31T10:25:13Z</time>
      </trkpt>
      <trkpt lat="45.62492" lon="2.8148">
        <ele>1238.8</ele>
        <time>2014-08-31T10:25:26Z</time>
      </trkpt>
      <trkpt lat="45.62499" lon="2.81475">
        <ele>1236.87</ele>
        <time>2014-08-31T10:25:44Z</time>
      </trkpt>
      <trkpt lat="45.62516" lon="2.81467">
        <ele>1234.47</ele>
        <time>2014-08-31T10:25:56Z</time>
      </trkpt>
      <trkpt lat="45.62521" lon="2.81465">
        <ele>1233.51</ele>
        <time>2014-08-31T10:26:01Z</time>
      </trkpt>
      <trkpt lat="45.62529" lon="2.81465">
        <ele>1232.07</ele>
        <time>2014-08-31T10:26:08Z</time>
      </trkpt>
      <trkpt lat="45.62542" lon="2.8145">
        <ele>1229.66</ele>
        <time>2014-08-31T10:26:20Z</time>
      </trkpt>
      <trkpt lat="45.6254" lon="2.81451">
        <ele>1229.18</ele>
        <time>2014-08-31T10:26:22Z</time>
      </trkpt>
      <trkpt lat="45.62537" lon="2.81458">
        <ele>1227.26</ele>
        <time>2014-08-31T10:26:33Z</time>
      </trkpt>
      <trkpt lat="45.62537" lon="2.81458">
        <ele>1226.78</ele>
        <time>2014-08-31T10:26:35Z</time>
      </trkpt>
      <trkpt lat="45.62539" lon="2.81462">
        <ele>1226.3</ele>
        <time>2014-08-31T10:26:37Z</time>
      </trkpt>
      <trkpt lat="45.62546" lon="2.81474">
        <ele>1224.86</ele>
        <time>2014-08-31T10:26:45Z</time>
      </trkpt>
      <trkpt lat="45.62564" lon="2.81483">
        <ele>1222.45</ele>
        <time>2014-08-31T10:26:58Z</time>
      </trkpt>
      <trkpt lat="45.62568" lon="2.81481">
        <ele>1222.45</ele>
        <time>2014-08-31T10:26:59Z</time>
      </trkpt>
      <trkpt lat="45.62584" lon="2.81491">
        <ele>1220.53</ele>
        <time>2014-08-31T10:27:10Z</time>
      </trkpt>
      <trkpt lat="45.626" lon="2.81505">
        <ele>1218.13</ele>
        <time>2014-08-31T10:27:24Z</time>
      </trkpt>
      <trkpt lat="45.62604" lon="2.81507">
        <ele>1216.69</ele>
        <time>2014-08-31T10:27:37Z</time>
      </trkpt>
      <trkpt lat="45.62605" lon="2.81507">
        <ele>1214.28</ele>
        <time>2014-08-31T10:27:55Z</time>
      </trkpt>
      <trkpt lat="45.62607" lon="2.81507">
        <ele>1213.8</ele>
        <time>2014-08-31T10:27:59Z</time>
      </trkpt>
      <trkpt lat="45.62616" lon="2.81492">
        <ele>1212.36</ele>
        <time>2014-08-31T10:28:09Z</time>
      </trkpt>
      <trkpt lat="45.62614" lon="2.81485">
        <ele>1211.4</ele>
        <time>2014-08-31T10:28:16Z</time>
      </trkpt>
      <trkpt lat="45.62611" lon="2.81465">
        <ele>1209.96</ele>
        <time>2014-08-31T10:28:30Z</time>
      </trkpt>
      <trkpt lat="45.62604" lon="2.81446">
        <ele>1208.03</ele>
        <time>2014-08-31T10:28:45Z</time>
      </trkpt>
      <trkpt lat="45.62602" lon="2.81447">
        <ele>1207.55</ele>
        <time>2014-08-31T10:28:52Z</time>
      </trkpt>
      <trkpt lat="45.62595" lon="2.8143">
        <ele>1205.63</ele>
        <time>2014-08-31T10:29:03Z</time>
      </trkpt>
      <trkpt lat="45.62594" lon="2.81425">
        <ele>1205.15</ele>
        <time>2014-08-31T10:29:08Z</time>
      </trkpt>
      <trkpt lat="45.62586" lon="2.81398">
        <ele>1203.23</ele>
        <time>2014-08-31T10:29:21Z</time>
      </trkpt>
      <trkpt lat="45.6258" lon="2.8138">
        <ele>1201.79</ele>
        <time>2014-08-31T10:29:35Z</time>
      </trkpt>
      <trkpt lat="45.62577" lon="2.81364">
        <ele>1200.34</ele>
        <time>2014-08-31T10:29:48Z</time>
      </trkpt>
      <trkpt lat="45.62587" lon="2.81355">
        <ele>1198.9</ele>
        <time>2014-08-31T10:30:00Z</time>
      </trkpt>
      <trkpt lat="45.62594" lon="2.8136">
        <ele>1197.94</ele>
        <time>2014-08-31T10:30:08Z</time>
      </trkpt>
      <trkpt lat="45.62611" lon="2.81364">
        <ele>1196.02</ele>
        <time>2014-08-31T10:30:20Z</time>
      </trkpt>
      <trkpt lat="45.62616" lon="2.81364">
        <ele>1194.58</ele>
        <time>2014-08-31T10:30:33Z</time>
      </trkpt>
      <trkpt lat="45.62627" lon="2.81369">
        <ele>1192.65</ele>
        <time>2014-08-31T10:30:46Z</time>
      </trkpt>
      <trkpt lat="45.62631" lon="2.81372">
        <ele>1192.17</ele>
        <time>2014-08-31T10:30:50Z</time>
      </trkpt>
      <trkpt lat="45.62662" lon="2.81377">
        <ele>1189.77</ele>
        <time>2014-08-31T10:31:05Z</time>
      </trkpt>
      <trkpt lat="45.62681" lon="2.81375">
        <ele>1186.88</ele>
        <time>2014-08-31T10:31:21Z</time>
      </trkpt>
      <trkpt lat="45.62684" lon="2.81372">
        <ele>1186.88</ele>
        <time>2014-08-31T10:31:22Z</time>
      </trkpt>
      <trkpt lat="45.62693" lon="2.81363">
        <ele>1185.92</ele>
        <time>2014-08-31T10:31:28Z</time>
      </trkpt>
      <trkpt lat="45.62708" lon="2.81358">
        <ele>1183.04</ele>
        <time>2014-08-31T10:31:44Z</time>
      </trkpt>
      <trkpt lat="45.62716" lon="2.81356">
        <ele>1181.12</ele>
        <time>2014-08-31T10:31:55Z</time>
      </trkpt>
      <trkpt lat="45.62728" lon="2.81349">
        <ele>1179.19</ele>
        <time>2014-08-31T10:32:10Z</time>
      </trkpt>
      <trkpt lat="45.62733" lon="2.81352">
        <ele>1177.27</ele>
        <time>2014-08-31T10:32:25Z</time>
      </trkpt>
      <trkpt lat="45.62748" lon="2.8137">
        <ele>1175.35</ele>
        <time>2014-08-31T10:32:40Z</time>
      </trkpt>
      <trkpt lat="45.62754" lon="2.81382">
        <ele>1172.95</ele>
        <time>2014-08-31T10:32:51Z</time>
      </trkpt>
      <trkpt lat="45.62757" lon="2.81386">
        <ele>1171.5</ele>
        <time>2014-08-31T10:32:59Z</time>
      </trkpt>
      <trkpt lat="45.62764" lon="2.81387">
        <ele>1171.02</ele>
        <time>2014-08-31T10:33:03Z</time>
      </trkpt>
      <trkpt lat="45.62775" lon="2.81381">
        <ele>1168.62</ele>
        <time>2014-08-31T10:33:17Z</time>
      </trkpt>
      <trkpt lat="45.62774" lon="2.8138">
        <ele>1166.7</ele>
        <time>2014-08-31T10:33:26Z</time>
      </trkpt>
      <trkpt lat="45.62783" lon="2.81374">
        <ele>1165.26</ele>
        <time>2014-08-31T10:33:39Z</time>
      </trkpt>
      <trkpt lat="45.6279" lon="2.81367">
        <ele>1165.26</ele>
        <time>2014-08-31T10:33:51Z</time>
      </trkpt>
      <trkpt lat="45.62795" lon="2.81363">
        <ele>1166.22</ele>
        <time>2014-08-31T10:34:00Z</time>
      </trkpt>
      <trkpt lat="45.62795" lon="2.81363">
        <ele>1164.77</ele>
        <time>2014-08-31T10:34:01Z</time>
      </trkpt>
      <trkpt lat="45.62796" lon="2.81358">
        <ele>1164.77</ele>
        <time>2014-08-31T10:34:23Z</time>
      </trkpt>
      <trkpt lat="45.62802" lon="2.81354">
        <ele>1164.77</ele>
        <time>2014-08-31T10:34:38Z</time>
      </trkpt>
      <trkpt lat="45.62808" lon="2.81341">
        <ele>1165.26</ele>
        <time>2014-08-31T10:34:49Z</time>
      </trkpt>
      <trkpt lat="45.62818" lon="2.81334">
        <ele>1166.7</ele>
        <time>2014-08-31T10:35:09Z</time>
      </trkpt>
      <trkpt lat="45.62825" lon="2.81327">
        <ele>1168.62</ele>
        <time>2014-08-31T10:35:28Z</time>
      </trkpt>
      <trkpt lat="45.62838" lon="2.81323">
        <ele>1171.98</ele>
        <time>2014-08-31T10:35:46Z</time>
      </trkpt>
      <trkpt lat="45.62853" lon="2.81321">
        <ele>1173.91</ele>
        <time>2014-08-31T10:36:03Z</time>
      </trkpt>
      <trkpt lat="45.62862" lon="2.81322">
        <ele>1175.35</ele>
        <time>2014-08-31T10:36:19Z</time>
      </trkpt>
      <trkpt lat="45.6287" lon="2.81324">
        <ele>1176.31</ele>
        <time>2014-08-31T10:36:36Z</time>
      </trkpt>
      <trkpt lat="45.62879" lon="2.81318">
        <ele>1179.19</ele>
        <time>2014-08-31T10:36:54Z</time>
      </trkpt>
      <trkpt lat="45.62884" lon="2.81318">
        <ele>1179.67</ele>
        <time>2014-08-31T10:37:09Z</time>
      </trkpt>
      <trkpt lat="45.62891" lon="2.81313">
        <ele>1182.56</ele>
        <time>2014-08-31T10:37:23Z</time>
      </trkpt>
      <trkpt lat="45.62896" lon="2.8131">
        <ele>1184.48</ele>
        <time>2014-08-31T10:37:35Z</time>
      </trkpt>
      <trkpt lat="45.629" lon="2.8131">
        <ele>1187.37</ele>
        <time>2014-08-31T10:37:44Z</time>
      </trkpt>
      <trkpt lat="45.62903" lon="2.81312">
        <ele>1187.85</ele>
        <time>2014-08-31T10:38:03Z</time>
      </trkpt>
      <trkpt lat="45.62905" lon="2.81313">
        <ele>1190.73</ele>
        <time>2014-08-31T10:38:14Z</time>
      </trkpt>
      <trkpt lat="45.62906" lon="2.81313">
        <ele>1190.25</ele>
        <time>2014-08-31T10:38:21Z</time>
      </trkpt>
      <trkpt lat="45.6291" lon="2.81313">
        <ele>1192.17</ele>
        <time>2014-08-31T10:38:29Z</time>
      </trkpt>
      <trkpt lat="45.62909" lon="2.81313">
        <ele>1193.13</ele>
        <time>2014-08-31T10:38:43Z</time>
      </trkpt>
      <trkpt lat="45.6291" lon="2.81312">
        <ele>1194.09</ele>
        <time>2014-08-31T10:38:52Z</time>
      </trkpt>
      <trkpt lat="45.62909" lon="2.81315">
        <ele>1192.17</ele>
        <time>2014-08-31T10:39:08Z</time>
      </trkpt>
      <trkpt lat="45.6291" lon="2.81315">
        <ele>1192.17</ele>
        <time>2014-08-31T10:39:20Z</time>
      </trkpt>
      <trkpt lat="45.6291" lon="2.81312">
        <ele>1192.65</ele>
        <time>2014-08-31T10:39:44Z</time>
      </trkpt>
      <trkpt lat="45.6291" lon="2.81314">
        <ele>1192.65</ele>
        <time>2014-08-31T10:40:07Z</time>
      </trkpt>
      <trkpt lat="45.62911" lon="2.81315">
        <ele>1192.65</ele>
        <time>2014-08-31T10:40:34Z</time>
      </trkpt>
      <trkpt lat="45.62911" lon="2.81315">
        <ele>1192.65</ele>
        <time>2014-08-31T10:40:54Z</time>
      </trkpt>
      <trkpt lat="45.6291" lon="2.81311">
        <ele>1193.61</ele>
        <time>2014-08-31T10:41:13Z</time>
      </trkpt>
      <trkpt lat="45.62912" lon="2.81307">
        <ele>1195.06</ele>
        <time>2014-08-31T10:41:25Z</time>
      </trkpt>
      <trkpt lat="45.62914" lon="2.813">
        <ele>1197.46</ele>
        <time>2014-08-31T10:41:38Z</time>
      </trkpt>
      <trkpt lat="45.62917" lon="2.81299">
        <ele>1199.38</ele>
        <time>2014-08-31T10:41:47Z</time>
      </trkpt>
      <trkpt lat="45.62917" lon="2.81295">
        <ele>1199.86</ele>
        <time>2014-08-31T10:41:56Z</time>
      </trkpt>
      <trkpt lat="45.62922" lon="2.81291">
        <ele>1202.27</ele>
        <time>2014-08-31T10:42:10Z</time>
      </trkpt>
      <trkpt lat="45.62923" lon="2.81287">
        <ele>1204.67</ele>
        <time>2014-08-31T10:42:20Z</time>
      </trkpt>
      <trkpt lat="45.62928" lon="2.81283">
        <ele>1205.63</ele>
        <time>2014-08-31T10:42:33Z</time>
      </trkpt>
      <trkpt lat="45.62935" lon="2.81281">
        <ele>1208.03</ele>
        <time>2014-08-31T10:42:47Z</time>
      </trkpt>
      <trkpt lat="45.62939" lon="2.81277">
        <ele>1210.44</ele>
        <time>2014-08-31T10:42:59Z</time>
      </trkpt>
      <trkpt lat="45.62942" lon="2.81275">
        <ele>1212.84</ele>
        <time>2014-08-31T10:43:11Z</time>
      </trkpt>
      <trkpt lat="45.62943" lon="2.81274">
        <ele>1214.28</ele>
        <time>2014-08-31T10:43:27Z</time>
      </trkpt>
      <trkpt lat="45.62947" lon="2.8127">
        <ele>1217.17</ele>
        <time>2014-08-31T10:43:43Z</time>
      </trkpt>
      <trkpt lat="45.62951" lon="2.81263">
        <ele>1220.05</ele>
        <time>2014-08-31T10:43:56Z</time>
      </trkpt>
      <trkpt lat="45.62953" lon="2.8126">
        <ele>1221.01</ele>
        <time>2014-08-31T10:44:00Z</time>
      </trkpt>
      <trkpt lat="45.62959" lon="2.81255">
        <ele>1221.97</ele>
        <time>2014-08-31T10:44:13Z</time>
      </trkpt>
      <trkpt lat="45.62962" lon="2.81257">
        <ele>1224.38</ele>
        <time>2014-08-31T10:44:30Z</time>
      </trkpt>
      <trkpt lat="45.62965" lon="2.81261">
        <ele>1226.3</ele>
        <time>2014-08-31T10:44:43Z</time>
      </trkpt>
      <trkpt lat="45.6297" lon="2.81263">
        <ele>1228.7</ele>
        <time>2014-08-31T10:44:56Z</time>
      </trkpt>
      <trkpt lat="45.62973" lon="2.81266">
        <ele>1231.11</ele>
        <time>2014-08-31T10:45:08Z</time>
      </trkpt>
      <trkpt lat="45.62975" lon="2.81271">
        <ele>1233.99</ele>
        <time>2014-08-31T10:45:22Z</time>
      </trkpt>
      <trkpt lat="45.6298" lon="2.81276">
        <ele>1235.91</ele>
        <time>2014-08-31T10:45:35Z</time>
      </trkpt>
      <trkpt lat="45.62982" lon="2.81277">
        <ele>1238.8</ele>
        <time>2014-08-31T10:45:47Z</time>
      </trkpt>
      <trkpt lat="45.62983" lon="2.81277">
        <ele>1239.76</ele>
        <time>2014-08-31T10:46:02Z</time>
      </trkpt>
      <trkpt lat="45.62983" lon="2.81277">
        <ele>1240.24</ele>
        <time>2014-08-31T10:46:26Z</time>
      </trkpt>
      <trkpt lat="45.62984" lon="2.81279">
        <ele>1243.12</ele>
        <time>2014-08-31T10:46:41Z</time>
      </trkpt>
      <trkpt lat="45.62987" lon="2.81283">
        <ele>1246.01</ele>
        <time>2014-08-31T10:46:54Z</time>
      </trkpt>
      <trkpt lat="45.62987" lon="2.81286">
        <ele>1247.93</ele>
        <time>2014-08-31T10:47:10Z</time>
      </trkpt>
      <trkpt lat="45.62988" lon="2.81291">
        <ele>1250.33</ele>
        <time>2014-08-31T10:47:27Z</time>
      </trkpt>
      <trkpt lat="45.6299" lon="2.81297">
        <ele>1253.22</ele>
        <time>2014-08-31T10:47:39Z</time>
      </trkpt>
      <trkpt lat="45.62992" lon="2.81307">
        <ele>1255.62</ele>
        <time>2014-08-31T10:47:51Z</time>
      </trkpt>
      <trkpt lat="45.62991" lon="2.8131">
        <ele>1258.5</ele>
        <time>2014-08-31T10:48:04Z</time>
      </trkpt>
      <trkpt lat="45.62992" lon="2.81313">
        <ele>1258.5</ele>
        <time>2014-08-31T10:48:29Z</time>
      </trkpt>
      <trkpt lat="45.6299" lon="2.8132">
        <ele>1261.87</ele>
        <time>2014-08-31T10:48:41Z</time>
      </trkpt>
      <trkpt lat="45.62987" lon="2.8133">
        <ele>1264.75</ele>
        <time>2014-08-31T10:48:53Z</time>
      </trkpt>
      <trkpt lat="45.62984" lon="2.81339">
        <ele>1267.64</ele>
        <time>2014-08-31T10:49:05Z</time>
      </trkpt>
      <trkpt lat="45.62982" lon="2.81341">
        <ele>1268.12</ele>
        <time>2014-08-31T10:49:19Z</time>
      </trkpt>
      <trkpt lat="45.62981" lon="2.81341">
        <ele>1268.12</ele>
        <time>2014-08-31T10:49:32Z</time>
      </trkpt>
      <trkpt lat="45.62982" lon="2.81342">
        <ele>1268.12</ele>
        <time>2014-08-31T10:49:57Z</time>
      </trkpt>
      <trkpt lat="45.62981" lon="2.81343">
        <ele>1268.12</ele>
        <time>2014-08-31T10:50:19Z</time>
      </trkpt>
      <trkpt lat="45.6298" lon="2.81344">
        <ele>1268.12</ele>
        <time>2014-08-31T10:50:40Z</time>
      </trkpt>
      <trkpt lat="45.6298" lon="2.81344">
        <ele>1267.64</ele>
        <time>2014-08-31T10:51:01Z</time>
      </trkpt>
      <trkpt lat="45.6298" lon="2.81345">
        <ele>1267.16</ele>
        <time>2014-08-31T10:51:27Z</time>
      </trkpt>
      <trkpt lat="45.6298" lon="2.81345">
        <ele>1266.67</ele>
        <time>2014-08-31T10:51:56Z</time>
      </trkpt>
      <trkpt lat="45.6298" lon="2.81345">
        <ele>1267.16</ele>
        <time>2014-08-31T10:52:28Z</time>
      </trkpt>
      <trkpt lat="45.6298" lon="2.81345">
        <ele>1267.16</ele>
        <time>2014-08-31T10:53:01Z</time>
      </trkpt>
      <trkpt lat="45.6298" lon="2.81346">
        <ele>1267.16</ele>
        <time>2014-08-31T10:53:36Z</time>
      </trkpt>
      <trkpt lat="45.62979" lon="2.81345">
        <ele>1267.16</ele>
        <time>2014-08-31T10:54:11Z</time>
      </trkpt>
      <trkpt lat="45.62979" lon="2.81345">
        <ele>1267.16</ele>
        <time>2014-08-31T10:54:45Z</time>
      </trkpt>
      <trkpt lat="45.62979" lon="2.81345">
        <ele>1267.16</ele>
        <time>2014-08-31T10:55:22Z</time>
      </trkpt>
      <trkpt lat="45.62979" lon="2.81344">
        <ele>1267.16</ele>
        <time>2014-08-31T10:55:55Z</time>
      </trkpt>
      <trkpt lat="45.6298" lon="2.81344">
        <ele>1267.16</ele>
        <time>2014-08-31T10:56:30Z</time>
      </trkpt>
      <trkpt lat="45.6298" lon="2.81344">
        <ele>1266.67</ele>
        <time>2014-08-31T10:57:06Z</time>
      </trkpt>
      <trkpt lat="45.62979" lon="2.81344">
        <ele>1266.67</ele>
        <time>2014-08-31T10:57:37Z</time>
      </trkpt>
      <trkpt lat="45.62979" lon="2.81344">
        <ele>1266.67</ele>
        <time>2014-08-31T10:58:09Z</time>
      </trkpt>
      <trkpt lat="45.62979" lon="2.81345">
        <ele>1267.16</ele>
        <time>2014-08-31T10:58:46Z</time>
      </trkpt>
      <trkpt lat="45.62979" lon="2.81344">
        <ele>1267.16</ele>
        <time>2014-08-31T10:59:17Z</time>
      </trkpt>
      <trkpt lat="45.62979" lon="2.81344">
        <ele>1267.16</ele>
        <time>2014-08-31T10:59:52Z</time>
      </trkpt>
      <trkpt lat="45.62979" lon="2.81344">
        <ele>1267.16</ele>
        <time>2014-08-31T11:00:24Z</time>
      </trkpt>
      <trkpt lat="45.62979" lon="2.81345">
        <ele>1266.67</ele>
        <time>2014-08-31T11:00:58Z</time>
      </trkpt>
      <trkpt lat="45.62979" lon="2.81345">
        <ele>1266.67</ele>
        <time>2014-08-31T11:01:30Z</time>
      </trkpt>
      <trkpt lat="45.62979" lon="2.81345">
        <ele>1266.67</ele>
        <time>2014-08-31T11:02:07Z</time>
      </trkpt>
      <trkpt lat="45.62979" lon="2.81345">
        <ele>1266.19</ele>
        <time>2014-08-31T11:02:40Z</time>
      </trkpt>
      <trkpt lat="45.62978" lon="2.81345">
        <ele>1266.19</ele>
        <time>2014-08-31T11:03:11Z</time>
      </trkpt>
      <trkpt lat="45.62978" lon="2.81344">
        <ele>1266.19</ele>
        <time>2014-08-31T11:03:38Z</time>
      </trkpt>
      <trkpt lat="45.62979" lon="2.81344">
        <ele>1266.19</ele>
        <time>2014-08-31T11:04:04Z</time>
      </trkpt>
      <trkpt lat="45.62979" lon="2.81345">
        <ele>1266.19</ele>
        <time>2014-08-31T11:04:37Z</time>
      </trkpt>
      <trkpt lat="45.62979" lon="2.81345">
        <ele>1266.19</ele>
        <time>2014-08-31T11:05:09Z</time>
      </trkpt>
      <trkpt lat="45.62979" lon="2.81345">
        <ele>1265.71</ele>
        <time>2014-08-31T11:05:44Z</time>
      </trkpt>
      <trkpt lat="45.62979" lon="2.81345">
        <ele>1265.71</ele>
        <time>2014-08-31T11:06:16Z</time>
      </trkpt>
      <trkpt lat="45.62979" lon="2.81345">
        <ele>1264.75</ele>
        <time>2014-08-31T11:06:52Z</time>
      </trkpt>
      <trkpt lat="45.62979" lon="2.81345">
        <ele>1265.23</ele>
        <time>2014-08-31T11:07:20Z</time>
      </trkpt>
      <trkpt lat="45.62978" lon="2.81345">
        <ele>1265.23</ele>
        <time>2014-08-31T11:07:52Z</time>
      </trkpt>
      <trkpt lat="45.62978" lon="2.81345">
        <ele>1265.23</ele>
        <time>2014-08-31T11:08:25Z</time>
      </trkpt>
      <trkpt lat="45.62979" lon="2.81345">
        <ele>1265.23</ele>
        <time>2014-08-31T11:09:00Z</time>
      </trkpt>
      <trkpt lat="45.62978" lon="2.81346">
        <ele>1265.23</ele>
        <time>2014-08-31T11:09:33Z</time>
      </trkpt>
      <trkpt lat="45.62978" lon="2.81346">
        <ele>1265.23</ele>
        <time>2014-08-31T11:10:03Z</time>
      </trkpt>
      <trkpt lat="45.62978" lon="2.81345">
        <ele>1265.23</ele>
        <time>2014-08-31T11:10:37Z</time>
      </trkpt>
      <trkpt lat="45.62978" lon="2.81345">
        <ele>1265.23</ele>
        <time>2014-08-31T11:11:06Z</time>
      </trkpt>
      <trkpt lat="45.62978" lon="2.81345">
        <ele>1265.23</ele>
        <time>2014-08-31T11:11:47Z</time>
      </trkpt>
      <trkpt lat="45.62978" lon="2.81345">
        <ele>1264.75</ele>
        <time>2014-08-31T11:12:21Z</time>
      </trkpt>
      <trkpt lat="45.62978" lon="2.81346">
        <ele>1264.75</ele>
        <time>2014-08-31T11:12:49Z</time>
      </trkpt>
      <trkpt lat="45.62978" lon="2.81346">
        <ele>1264.75</ele>
        <time>2014-08-31T11:13:22Z</time>
      </trkpt>
      <trkpt lat="45.62978" lon="2.81346">
        <ele>1264.75</ele>
        <time>2014-08-31T11:13:53Z</time>
      </trkpt>
      <trkpt lat="45.62978" lon="2.81345">
        <ele>1264.75</ele>
        <time>2014-08-31T11:14:26Z</time>
      </trkpt>
      <trkpt lat="45.62979" lon="2.81345">
        <ele>1264.27</ele>
        <time>2014-08-31T11:15:06Z</time>
      </trkpt>
      <trkpt lat="45.62979" lon="2.81345">
        <ele>1264.27</ele>
        <time>2014-08-31T11:15:42Z</time>
      </trkpt>
      <trkpt lat="45.62979" lon="2.81345">
        <ele>1264.27</ele>
        <time>2014-08-31T11:16:15Z</time>
      </trkpt>
      <trkpt lat="45.62979" lon="2.81344">
        <ele>1264.27</ele>
        <time>2014-08-31T11:16:44Z</time>
      </trkpt>
      <trkpt lat="45.62979" lon="2.81344">
        <ele>1264.27</ele>
        <time>2014-08-31T11:17:16Z</time>
      </trkpt>
      <trkpt lat="45.62979" lon="2.81344">
        <ele>1264.27</ele>
        <time>2014-08-31T11:17:50Z</time>
      </trkpt>
      <trkpt lat="45.62979" lon="2.81344">
        <ele>1264.27</ele>
        <time>2014-08-31T11:18:25Z</time>
      </trkpt>
      <trkpt lat="45.62979" lon="2.81344">
        <ele>1263.79</ele>
        <time>2014-08-31T11:19:03Z</time>
      </trkpt>
      <trkpt lat="45.62979" lon="2.81345">
        <ele>1263.79</ele>
        <time>2014-08-31T11:19:38Z</time>
      </trkpt>
      <trkpt lat="45.62979" lon="2.81344">
        <ele>1263.79</ele>
        <time>2014-08-31T11:20:11Z</time>
      </trkpt>
      <trkpt lat="45.62979" lon="2.81344">
        <ele>1263.31</ele>
        <time>2014-08-31T11:20:46Z</time>
      </trkpt>
      <trkpt lat="45.62979" lon="2.81344">
        <ele>1263.31</ele>
        <time>2014-08-31T11:21:21Z</time>
      </trkpt>
      <trkpt lat="45.62979" lon="2.81344">
        <ele>1262.83</ele>
        <time>2014-08-31T11:21:55Z</time>
      </trkpt>
      <trkpt lat="45.6298" lon="2.81344">
        <ele>1262.35</ele>
        <time>2014-08-31T11:22:27Z</time>
      </trkpt>
      <trkpt lat="45.62979" lon="2.81344">
        <ele>1262.35</ele>
        <time>2014-08-31T11:22:59Z</time>
      </trkpt>
      <trkpt lat="45.6298" lon="2.81344">
        <ele>1262.35</ele>
        <time>2014-08-31T11:23:35Z</time>
      </trkpt>
      <trkpt lat="45.6298" lon="2.81344">
        <ele>1262.35</ele>
        <time>2014-08-31T11:24:11Z</time>
      </trkpt>
      <trkpt lat="45.6298" lon="2.81344">
        <ele>1262.35</ele>
        <time>2014-08-31T11:24:44Z</time>
      </trkpt>
      <trkpt lat="45.6298" lon="2.81344">
        <ele>1262.35</ele>
        <time>2014-08-31T11:25:12Z</time>
      </trkpt>
      <trkpt lat="45.6298" lon="2.81344">
        <ele>1261.87</ele>
        <time>2014-08-31T11:25:46Z</time>
      </trkpt>
      <trkpt lat="45.6298" lon="2.81344">
        <ele>1261.87</ele>
        <time>2014-08-31T11:26:19Z</time>
      </trkpt>
      <trkpt lat="45.6298" lon="2.81344">
        <ele>1261.87</ele>
        <time>2014-08-31T11:26:53Z</time>
      </trkpt>
      <trkpt lat="45.62979" lon="2.81344">
        <ele>1261.87</ele>
        <time>2014-08-31T11:27:24Z</time>
      </trkpt>
      <trkpt lat="45.62979" lon="2.81344">
        <ele>1261.87</ele>
        <time>2014-08-31T11:27:58Z</time>
      </trkpt>
      <trkpt lat="45.62979" lon="2.81343">
        <ele>1261.87</ele>
        <time>2014-08-31T11:28:30Z</time>
      </trkpt>
      <trkpt lat="45.62979" lon="2.81343">
        <ele>1261.87</ele>
        <time>2014-08-31T11:29:00Z</time>
      </trkpt>
      <trkpt lat="45.62979" lon="2.81343">
        <ele>1261.87</ele>
        <time>2014-08-31T11:29:31Z</time>
      </trkpt>
      <trkpt lat="45.62979" lon="2.81343">
        <ele>1261.87</ele>
        <time>2014-08-31T11:30:07Z</time>
      </trkpt>
      <trkpt lat="45.62979" lon="2.81343">
        <ele>1262.35</ele>
        <time>2014-08-31T11:30:38Z</time>
      </trkpt>
      <trkpt lat="45.62979" lon="2.81344">
        <ele>1261.87</ele>
        <time>2014-08-31T11:31:06Z</time>
      </trkpt>
      <trkpt lat="45.62979" lon="2.81344">
        <ele>1261.87</ele>
        <time>2014-08-31T11:31:36Z</time>
      </trkpt>
      <trkpt lat="45.62979" lon="2.81344">
        <ele>1262.35</ele>
        <time>2014-08-31T11:32:15Z</time>
      </trkpt>
      <trkpt lat="45.62979" lon="2.81344">
        <ele>1262.35</ele>
        <time>2014-08-31T11:32:57Z</time>
      </trkpt>
      <trkpt lat="45.62979" lon="2.81344">
        <ele>1261.87</ele>
        <time>2014-08-31T11:33:38Z</time>
      </trkpt>
      <trkpt lat="45.62979" lon="2.81344">
        <ele>1262.35</ele>
        <time>2014-08-31T11:34:21Z</time>
      </trkpt>
      <trkpt lat="45.62979" lon="2.81344">
        <ele>1261.39</ele>
        <time>2014-08-31T11:35:02Z</time>
      </trkpt>
      <trkpt lat="45.62979" lon="2.81344">
        <ele>1261.39</ele>
        <time>2014-08-31T11:35:45Z</time>
      </trkpt>
      <trkpt lat="45.62979" lon="2.81344">
        <ele>1261.39</ele>
        <time>2014-08-31T11:36:34Z</time>
      </trkpt>
      <trkpt lat="45.62979" lon="2.81344">
        <ele>1261.39</ele>
        <time>2014-08-31T11:37:15Z</time>
      </trkpt>
      <trkpt lat="45.62979" lon="2.81345">
        <ele>1261.39</ele>
        <time>2014-08-31T11:37:57Z</time>
      </trkpt>
      <trkpt lat="45.62979" lon="2.81345">
        <ele>1261.87</ele>
        <time>2014-08-31T11:38:38Z</time>
      </trkpt>
      <trkpt lat="45.62979" lon="2.81344">
        <ele>1261.39</ele>
        <time>2014-08-31T11:39:19Z</time>
      </trkpt>
      <trkpt lat="45.62979" lon="2.81344">
        <ele>1261.39</ele>
        <time>2014-08-31T11:39:56Z</time>
      </trkpt>
      <trkpt lat="45.62978" lon="2.81344">
        <ele>1261.87</ele>
        <time>2014-08-31T11:40:37Z</time>
      </trkpt>
      <trkpt lat="45.62978" lon="2.81344">
        <ele>1261.87</ele>
        <time>2014-08-31T11:41:17Z</time>
      </trkpt>
      <trkpt lat="45.62978" lon="2.81344">
        <ele>1261.87</ele>
        <time>2014-08-31T11:42:00Z</time>
      </trkpt>
      <trkpt lat="45.62979" lon="2.81343">
        <ele>1261.39</ele>
        <time>2014-08-31T11:42:43Z</time>
      </trkpt>
      <trkpt lat="45.62979" lon="2.81344">
        <ele>1261.39</ele>
        <time>2014-08-31T11:43:20Z</time>
      </trkpt>
      <trkpt lat="45.62979" lon="2.81344">
        <ele>1261.39</ele>
        <time>2014-08-31T11:43:58Z</time>
      </trkpt>
      <trkpt lat="45.62979" lon="2.81344">
        <ele>1261.87</ele>
        <time>2014-08-31T11:44:36Z</time>
      </trkpt>
      <trkpt lat="45.62979" lon="2.81344">
        <ele>1261.39</ele>
        <time>2014-08-31T11:45:20Z</time>
      </trkpt>
      <trkpt lat="45.62979" lon="2.81344">
        <ele>1260.91</ele>
        <time>2014-08-31T11:45:58Z</time>
      </trkpt>
      <trkpt lat="45.62979" lon="2.81345">
        <ele>1261.87</ele>
        <time>2014-08-31T11:46:16Z</time>
      </trkpt>
      <trkpt lat="45.62978" lon="2.81345">
        <ele>1261.39</ele>
        <time>2014-08-31T11:46:34Z</time>
      </trkpt>
      <trkpt lat="45.62978" lon="2.81345">
        <ele>1260.91</ele>
        <time>2014-08-31T11:46:59Z</time>
      </trkpt>
      <trkpt lat="45.62978" lon="2.81345">
        <ele>1260.91</ele>
        <time>2014-08-31T11:47:23Z</time>
      </trkpt>
      <trkpt lat="45.62978" lon="2.81345">
        <ele>1260.91</ele>
        <time>2014-08-31T11:47:52Z</time>
      </trkpt>
      <trkpt lat="45.62978" lon="2.81345">
        <ele>1261.39</ele>
        <time>2014-08-31T11:48:24Z</time>
      </trkpt>
      <trkpt lat="45.62978" lon="2.81345">
        <ele>1261.39</ele>
        <time>2014-08-31T11:48:58Z</time>
      </trkpt>
      <trkpt lat="45.62978" lon="2.81345">
        <ele>1260.91</ele>
        <time>2014-08-31T11:49:31Z</time>
      </trkpt>
      <trkpt lat="45.62978" lon="2.81345">
        <ele>1261.39</ele>
        <time>2014-08-31T11:50:05Z</time>
      </trkpt>
      <trkpt lat="45.62978" lon="2.81345">
        <ele>1261.39</ele>
        <time>2014-08-31T11:50:40Z</time>
      </trkpt>
      <trkpt lat="45.62978" lon="2.81345">
        <ele>1261.39</ele>
        <time>2014-08-31T11:51:14Z</time>
      </trkpt>
      <trkpt lat="45.62978" lon="2.81345">
        <ele>1261.39</ele>
        <time>2014-08-31T11:51:50Z</time>
      </trkpt>
      <trkpt lat="45.62978" lon="2.81345">
        <ele>1261.39</ele>
        <time>2014-08-31T11:52:26Z</time>
      </trkpt>
      <trkpt lat="45.62978" lon="2.81345">
        <ele>1261.87</ele>
        <time>2014-08-31T11:52:59Z</time>
      </trkpt>
      <trkpt lat="45.62979" lon="2.81345">
        <ele>1261.39</ele>
        <time>2014-08-31T11:53:40Z</time>
      </trkpt>
      <trkpt lat="45.62979" lon="2.81345">
        <ele>1260.91</ele>
        <time>2014-08-31T11:54:14Z</time>
      </trkpt>
      <trkpt lat="45.62979" lon="2.81345">
        <ele>1260.91</ele>
        <time>2014-08-31T11:54:51Z</time>
      </trkpt>
      <trkpt lat="45.62979" lon="2.81345">
        <ele>1260.91</ele>
        <time>2014-08-31T11:55:22Z</time>
      </trkpt>
      <trkpt lat="45.62979" lon="2.81345">
        <ele>1260.91</ele>
        <time>2014-08-31T11:55:55Z</time>
      </trkpt>
      <trkpt lat="45.62979" lon="2.81345">
        <ele>1260.91</ele>
        <time>2014-08-31T11:56:27Z</time>
      </trkpt>
      <trkpt lat="45.62979" lon="2.81345">
        <ele>1260.91</ele>
        <time>2014-08-31T11:56:55Z</time>
      </trkpt>
      <trkpt lat="45.62979" lon="2.81344">
        <ele>1261.87</ele>
        <time>2014-08-31T11:57:27Z</time>
      </trkpt>
      <trkpt lat="45.62979" lon="2.81344">
        <ele>1261.39</ele>
        <time>2014-08-31T11:58:01Z</time>
      </trkpt>
      <trkpt lat="45.62979" lon="2.81344">
        <ele>1261.39</ele>
        <time>2014-08-31T11:58:39Z</time>
      </trkpt>
      <trkpt lat="45.62979" lon="2.81344">
        <ele>1261.39</ele>
        <time>2014-08-31T11:59:11Z</time>
      </trkpt>
      <trkpt lat="45.62979" lon="2.81344">
        <ele>1261.39</ele>
        <time>2014-08-31T11:59:45Z</time>
      </trkpt>
      <trkpt lat="45.62979" lon="2.81345">
        <ele>1261.39</ele>
        <time>2014-08-31T12:00:22Z</time>
      </trkpt>
      <trkpt lat="45.62979" lon="2.81345">
        <ele>1261.39</ele>
        <time>2014-08-31T12:00:53Z</time>
      </trkpt>
      <trkpt lat="45.62979" lon="2.81345">
        <ele>1261.39</ele>
        <time>2014-08-31T12:01:24Z</time>
      </trkpt>
      <trkpt lat="45.62979" lon="2.81345">
        <ele>1260.91</ele>
        <time>2014-08-31T12:01:46Z</time>
      </trkpt>
      <trkpt lat="45.62979" lon="2.81345">
        <ele>1260.91</ele>
        <time>2014-08-31T12:02:16Z</time>
      </trkpt>
      <trkpt lat="45.62979" lon="2.81345">
        <ele>1260.91</ele>
        <time>2014-08-31T12:02:47Z</time>
      </trkpt>
      <trkpt lat="45.62978" lon="2.81345">
        <ele>1260.43</ele>
        <time>2014-08-31T12:03:20Z</time>
      </trkpt>
      <trkpt lat="45.62978" lon="2.81345">
        <ele>1260.91</ele>
        <time>2014-08-31T12:03:49Z</time>
      </trkpt>
      <trkpt lat="45.62978" lon="2.81344">
        <ele>1261.87</ele>
        <time>2014-08-31T12:04:14Z</time>
      </trkpt>
      <trkpt lat="45.62978" lon="2.81344">
        <ele>1261.39</ele>
        <time>2014-08-31T12:04:43Z</time>
      </trkpt>
      <trkpt lat="45.62978" lon="2.81344">
        <ele>1261.87</ele>
        <time>2014-08-31T12:05:05Z</time>
      </trkpt>
      <trkpt lat="45.62978" lon="2.81343">
        <ele>1261.87</ele>
        <time>2014-08-31T12:05:20Z</time>
      </trkpt>
      <trkpt lat="45.62978" lon="2.81343">
        <ele>1261.87</ele>
        <time>2014-08-31T12:05:21Z</time>
      </trkpt>
      <trkpt lat="45.62981" lon="2.8134">
        <ele>1261.39</ele>
        <time>2014-08-31T12:05:31Z</time>
      </trkpt>
      <trkpt lat="45.62981" lon="2.81338">
        <ele>1260.43</ele>
        <time>2014-08-31T12:05:49Z</time>
      </trkpt>
      <trkpt lat="45.62982" lon="2.81336">
        <ele>1259.46</ele>
        <time>2014-08-31T12:06:01Z</time>
      </trkpt>
      <trkpt lat="45.62984" lon="2.81331">
        <ele>1257.06</ele>
        <time>2014-08-31T12:06:16Z</time>
      </trkpt>
      <trkpt lat="45.62984" lon="2.81329">
        <ele>1254.66</ele>
        <time>2014-08-31T12:06:30Z</time>
      </trkpt>
      <trkpt lat="45.62984" lon="2.81329">
        <ele>1254.18</ele>
        <time>2014-08-31T12:06:42Z</time>
      </trkpt>
      <trkpt lat="45.62983" lon="2.81324">
        <ele>1251.77</ele>
        <time>2014-08-31T12:06:54Z</time>
      </trkpt>
      <trkpt lat="45.62984" lon="2.81318">
        <ele>1249.37</ele>
        <time>2014-08-31T12:07:07Z</time>
      </trkpt>
      <trkpt lat="45.62984" lon="2.81313">
        <ele>1246.01</ele>
        <time>2014-08-31T12:07:20Z</time>
      </trkpt>
      <trkpt lat="45.62982" lon="2.81306">
        <ele>1244.08</ele>
        <time>2014-08-31T12:07:34Z</time>
      </trkpt>
      <trkpt lat="45.62982" lon="2.81305">
        <ele>1241.68</ele>
        <time>2014-08-31T12:07:50Z</time>
      </trkpt>
      <trkpt lat="45.6298" lon="2.81299">
        <ele>1238.32</ele>
        <time>2014-08-31T12:08:07Z</time>
      </trkpt>
      <trkpt lat="45.62978" lon="2.81291">
        <ele>1235.91</ele>
        <time>2014-08-31T12:08:21Z</time>
      </trkpt>
      <trkpt lat="45.62976" lon="2.81287">
        <ele>1233.03</ele>
        <time>2014-08-31T12:08:33Z</time>
      </trkpt>
      <trkpt lat="45.62976" lon="2.81284">
        <ele>1230.14</ele>
        <time>2014-08-31T12:08:48Z</time>
      </trkpt>
      <trkpt lat="45.62972" lon="2.81281">
        <ele>1227.26</ele>
        <time>2014-08-31T12:08:59Z</time>
      </trkpt>
      <trkpt lat="45.62967" lon="2.81281">
        <ele>1223.9</ele>
        <time>2014-08-31T12:09:14Z</time>
      </trkpt>
      <trkpt lat="45.62963" lon="2.81281">
        <ele>1221.01</ele>
        <time>2014-08-31T12:09:27Z</time>
      </trkpt>
      <trkpt lat="45.6296" lon="2.81283">
        <ele>1217.65</ele>
        <time>2014-08-31T12:09:40Z</time>
      </trkpt>
      <trkpt lat="45.62953" lon="2.8129">
        <ele>1214.28</ele>
        <time>2014-08-31T12:09:53Z</time>
      </trkpt>
      <trkpt lat="45.62942" lon="2.81291">
        <ele>1210.92</ele>
        <time>2014-08-31T12:10:05Z</time>
      </trkpt>
      <trkpt lat="45.6293" lon="2.81297">
        <ele>1208.03</ele>
        <time>2014-08-31T12:10:21Z</time>
      </trkpt>
      <trkpt lat="45.62926" lon="2.81297">
        <ele>1206.11</ele>
        <time>2014-08-31T12:10:28Z</time>
      </trkpt>
      <trkpt lat="45.62923" lon="2.81297">
        <ele>1203.71</ele>
        <time>2014-08-31T12:10:35Z</time>
      </trkpt>
      <trkpt lat="45.62921" lon="2.81297">
        <ele>1201.3</ele>
        <time>2014-08-31T12:10:54Z</time>
      </trkpt>
      <trkpt lat="45.62918" lon="2.81301">
        <ele>1198.9</ele>
        <time>2014-08-31T12:11:05Z</time>
      </trkpt>
      <trkpt lat="45.62915" lon="2.81305">
        <ele>1196.5</ele>
        <time>2014-08-31T12:11:16Z</time>
      </trkpt>
      <trkpt lat="45.62911" lon="2.81308">
        <ele>1194.09</ele>
        <time>2014-08-31T12:11:30Z</time>
      </trkpt>
      <trkpt lat="45.62909" lon="2.81311">
        <ele>1192.17</ele>
        <time>2014-08-31T12:11:42Z</time>
      </trkpt>
      <trkpt lat="45.62905" lon="2.81316">
        <ele>1190.25</ele>
        <time>2014-08-31T12:11:54Z</time>
      </trkpt>
      <trkpt lat="45.62904" lon="2.81317">
        <ele>1189.77</ele>
        <time>2014-08-31T12:12:13Z</time>
      </trkpt>
      <trkpt lat="45.62901" lon="2.81318">
        <ele>1190.73</ele>
        <time>2014-08-31T12:12:31Z</time>
      </trkpt>
      <trkpt lat="45.629" lon="2.81328">
        <ele>1189.29</ele>
        <time>2014-08-31T12:12:44Z</time>
      </trkpt>
      <trkpt lat="45.629" lon="2.8133">
        <ele>1187.85</ele>
        <time>2014-08-31T12:12:51Z</time>
      </trkpt>
      <trkpt lat="45.62897" lon="2.8133">
        <ele>1184.48</ele>
        <time>2014-08-31T12:13:03Z</time>
      </trkpt>
      <trkpt lat="45.62893" lon="2.81329">
        <ele>1181.12</ele>
        <time>2014-08-31T12:13:16Z</time>
      </trkpt>
      <trkpt lat="45.62892" lon="2.81331">
        <ele>1179.19</ele>
        <time>2014-08-31T12:13:22Z</time>
      </trkpt>
      <trkpt lat="45.62887" lon="2.81331">
        <ele>1175.83</ele>
        <time>2014-08-31T12:13:31Z</time>
      </trkpt>
      <trkpt lat="45.62883" lon="2.81333">
        <ele>1173.43</ele>
        <time>2014-08-31T12:13:49Z</time>
      </trkpt>
      <trkpt lat="45.62882" lon="2.81336">
        <ele>1171.02</ele>
        <time>2014-08-31T12:14:05Z</time>
      </trkpt>
      <trkpt lat="45.62881" lon="2.81338">
        <ele>1171.02</ele>
        <time>2014-08-31T12:14:26Z</time>
      </trkpt>
      <trkpt lat="45.62874" lon="2.81343">
        <ele>1169.1</ele>
        <time>2014-08-31T12:14:46Z</time>
      </trkpt>
      <trkpt lat="45.62866" lon="2.81348">
        <ele>1166.22</ele>
        <time>2014-08-31T12:14:57Z</time>
      </trkpt>
      <trkpt lat="45.6286" lon="2.81363">
        <ele>1162.37</ele>
        <time>2014-08-31T12:15:09Z</time>
      </trkpt>
      <trkpt lat="45.62865" lon="2.81373">
        <ele>1163.33</ele>
        <time>2014-08-31T12:15:24Z</time>
      </trkpt>
      <trkpt lat="45.62874" lon="2.81382">
        <ele>1161.41</ele>
        <time>2014-08-31T12:15:35Z</time>
      </trkpt>
      <trkpt lat="45.62873" lon="2.81389">
        <ele>1158.05</ele>
        <time>2014-08-31T12:15:50Z</time>
      </trkpt>
      <trkpt lat="45.62874" lon="2.81402">
        <ele>1155.16</ele>
        <time>2014-08-31T12:16:02Z</time>
      </trkpt>
      <trkpt lat="45.62878" lon="2.8142">
        <ele>1152.76</ele>
        <time>2014-08-31T12:16:14Z</time>
      </trkpt>
      <trkpt lat="45.62883" lon="2.81435">
        <ele>1150.84</ele>
        <time>2014-08-31T12:16:28Z</time>
      </trkpt>
      <trkpt lat="45.62884" lon="2.8144">
        <ele>1149.39</ele>
        <time>2014-08-31T12:16:42Z</time>
      </trkpt>
      <trkpt lat="45.62886" lon="2.81448">
        <ele>1146.51</ele>
        <time>2014-08-31T12:16:55Z</time>
      </trkpt>
      <trkpt lat="45.62885" lon="2.81451">
        <ele>1144.59</ele>
        <time>2014-08-31T12:17:02Z</time>
      </trkpt>
      <trkpt lat="45.62882" lon="2.81461">
        <ele>1142.18</ele>
        <time>2014-08-31T12:17:19Z</time>
      </trkpt>
      <trkpt lat="45.6288" lon="2.81468">
        <ele>1139.78</ele>
        <time>2014-08-31T12:17:34Z</time>
      </trkpt>
      <trkpt lat="45.62876" lon="2.81479">
        <ele>1136.42</ele>
        <time>2014-08-31T12:17:50Z</time>
      </trkpt>
      <trkpt lat="45.62878" lon="2.81488">
        <ele>1135.94</ele>
        <time>2014-08-31T12:18:01Z</time>
      </trkpt>
      <trkpt lat="45.62879" lon="2.81493">
        <ele>1136.42</ele>
        <time>2014-08-31T12:18:17Z</time>
      </trkpt>
      <trkpt lat="45.62887" lon="2.81502">
        <ele>1134.97</ele>
        <time>2014-08-31T12:18:33Z</time>
      </trkpt>
      <trkpt lat="45.62888" lon="2.81513">
        <ele>1132.09</ele>
        <time>2014-08-31T12:18:47Z</time>
      </trkpt>
      <trkpt lat="45.6289" lon="2.81517">
        <ele>1131.61</ele>
        <time>2014-08-31T12:18:50Z</time>
      </trkpt>
      <trkpt lat="45.62893" lon="2.81522">
        <ele>1128.24</ele>
        <time>2014-08-31T12:19:04Z</time>
      </trkpt>
      <trkpt lat="45.62894" lon="2.81522">
        <ele>1127.76</ele>
        <time>2014-08-31T12:19:21Z</time>
      </trkpt>
      <trkpt lat="45.62893" lon="2.81529">
        <ele>1124.88</ele>
        <time>2014-08-31T12:19:34Z</time>
      </trkpt>
      <trkpt lat="45.62889" lon="2.81531">
        <ele>1121.52</ele>
        <time>2014-08-31T12:19:45Z</time>
      </trkpt>
      <trkpt lat="45.62887" lon="2.81533">
        <ele>1118.15</ele>
        <time>2014-08-31T12:19:59Z</time>
      </trkpt>
      <trkpt lat="45.62879" lon="2.81541">
        <ele>1115.27</ele>
        <time>2014-08-31T12:20:13Z</time>
      </trkpt>
      <trkpt lat="45.62881" lon="2.81552">
        <ele>1112.86</ele>
        <time>2014-08-31T12:20:28Z</time>
      </trkpt>
      <trkpt lat="45.62882" lon="2.8156">
        <ele>1109.5</ele>
        <time>2014-08-31T12:20:41Z</time>
      </trkpt>
      <trkpt lat="45.62883" lon="2.81568">
        <ele>1107.58</ele>
        <time>2014-08-31T12:20:53Z</time>
      </trkpt>
      <trkpt lat="45.62883" lon="2.81574">
        <ele>1105.65</ele>
        <time>2014-08-31T12:21:05Z</time>
      </trkpt>
      <trkpt lat="45.62888" lon="2.81582">
        <ele>1102.29</ele>
        <time>2014-08-31T12:21:16Z</time>
      </trkpt>
      <trkpt lat="45.62892" lon="2.81589">
        <ele>1101.33</ele>
        <time>2014-08-31T12:21:30Z</time>
      </trkpt>
      <trkpt lat="45.62892" lon="2.8159">
        <ele>1100.37</ele>
        <time>2014-08-31T12:21:35Z</time>
      </trkpt>
      <trkpt lat="45.62889" lon="2.81593">
        <ele>1098.44</ele>
        <time>2014-08-31T12:21:45Z</time>
      </trkpt>
      <trkpt lat="45.6289" lon="2.81599">
        <ele>1095.08</ele>
        <time>2014-08-31T12:21:57Z</time>
      </trkpt>
      <trkpt lat="45.62891" lon="2.81601">
        <ele>1094.12</ele>
        <time>2014-08-31T12:22:00Z</time>
      </trkpt>
      <trkpt lat="45.62894" lon="2.81612">
        <ele>1091.23</ele>
        <time>2014-08-31T12:22:15Z</time>
      </trkpt>
      <trkpt lat="45.62894" lon="2.81622">
        <ele>1088.35</ele>
        <time>2014-08-31T12:22:28Z</time>
      </trkpt>
      <trkpt lat="45.62889" lon="2.81628">
        <ele>1084.5</ele>
        <time>2014-08-31T12:22:40Z</time>
      </trkpt>
      <trkpt lat="45.62884" lon="2.81633">
        <ele>1082.1</ele>
        <time>2014-08-31T12:22:57Z</time>
      </trkpt>
      <trkpt lat="45.62881" lon="2.81646">
        <ele>1079.7</ele>
        <time>2014-08-31T12:23:12Z</time>
      </trkpt>
      <trkpt lat="45.62884" lon="2.81656">
        <ele>1077.29</ele>
        <time>2014-08-31T12:23:30Z</time>
      </trkpt>
      <trkpt lat="45.6289" lon="2.81661">
        <ele>1077.29</ele>
        <time>2014-08-31T12:23:49Z</time>
      </trkpt>
      <trkpt lat="45.62898" lon="2.81667">
        <ele>1075.37</ele>
        <time>2014-08-31T12:24:07Z</time>
      </trkpt>
      <trkpt lat="45.62914" lon="2.81668">
        <ele>1074.89</ele>
        <time>2014-08-31T12:24:25Z</time>
      </trkpt>
      <trkpt lat="45.62918" lon="2.81665">
        <ele>1074.89</ele>
        <time>2014-08-31T12:24:41Z</time>
      </trkpt>
      <trkpt lat="45.62932" lon="2.81658">
        <ele>1073.93</ele>
        <time>2014-08-31T12:24:55Z</time>
      </trkpt>
      <trkpt lat="45.62941" lon="2.81653">
        <ele>1072.97</ele>
        <time>2014-08-31T12:25:02Z</time>
      </trkpt>
      <trkpt lat="45.62961" lon="2.81624">
        <ele>1071.53</ele>
        <time>2014-08-31T12:25:18Z</time>
      </trkpt>
      <trkpt lat="45.62973" lon="2.81628">
        <ele>1070.57</ele>
        <time>2014-08-31T12:25:31Z</time>
      </trkpt>
      <trkpt lat="45.62979" lon="2.81629">
        <ele>1069.6</ele>
        <time>2014-08-31T12:25:41Z</time>
      </trkpt>
      <trkpt lat="45.62989" lon="2.81632">
        <ele>1069.6</ele>
        <time>2014-08-31T12:25:52Z</time>
      </trkpt>
      <trkpt lat="45.62989" lon="2.81632">
        <ele>1069.6</ele>
        <time>2014-08-31T12:25:59Z</time>
      </trkpt>
      <trkpt lat="45.62991" lon="2.81627">
        <ele>1069.6</ele>
        <time>2014-08-31T12:26:02Z</time>
      </trkpt>
      <trkpt lat="45.62993" lon="2.81624">
        <ele>1069.12</ele>
        <time>2014-08-31T12:26:05Z</time>
      </trkpt>
      <trkpt lat="45.63001" lon="2.8162">
        <ele>1069.12</ele>
        <time>2014-08-31T12:26:09Z</time>
      </trkpt>
      <trkpt lat="45.63019" lon="2.81617">
        <ele>1068.16</ele>
        <time>2014-08-31T12:26:23Z</time>
      </trkpt>
      <trkpt lat="45.63032" lon="2.81619">
        <ele>1067.68</ele>
        <time>2014-08-31T12:26:36Z</time>
      </trkpt>
      <trkpt lat="45.63043" lon="2.81618">
        <ele>1066.72</ele>
        <time>2014-08-31T12:26:50Z</time>
      </trkpt>
      <trkpt lat="45.63045" lon="2.81618">
        <ele>1066.24</ele>
        <time>2014-08-31T12:26:53Z</time>
      </trkpt>
      <trkpt lat="45.63052" lon="2.81618">
        <ele>1065.76</ele>
        <time>2014-08-31T12:26:57Z</time>
      </trkpt>
      <trkpt lat="45.63069" lon="2.8163">
        <ele>1065.28</ele>
        <time>2014-08-31T12:27:10Z</time>
      </trkpt>
      <trkpt lat="45.63086" lon="2.81627">
        <ele>1064.8</ele>
        <time>2014-08-31T12:27:22Z</time>
      </trkpt>
      <trkpt lat="45.63088" lon="2.81622">
        <ele>1063.84</ele>
        <time>2014-08-31T12:27:33Z</time>
      </trkpt>
      <trkpt lat="45.63102" lon="2.81615">
        <ele>1062.39</ele>
        <time>2014-08-31T12:27:46Z</time>
      </trkpt>
      <trkpt lat="45.63117" lon="2.81608">
        <ele>1060.95</ele>
        <time>2014-08-31T12:28:00Z</time>
      </trkpt>
      <trkpt lat="45.63127" lon="2.81602">
        <ele>1060.47</ele>
        <time>2014-08-31T12:28:11Z</time>
      </trkpt>
      <trkpt lat="45.63136" lon="2.81576">
        <ele>1059.03</ele>
        <time>2014-08-31T12:28:23Z</time>
      </trkpt>
      <trkpt lat="45.63147" lon="2.81576">
        <ele>1058.55</ele>
        <time>2014-08-31T12:28:35Z</time>
      </trkpt>
      <trkpt lat="45.63147" lon="2.81574">
        <ele>1058.55</ele>
        <time>2014-08-31T12:28:36Z</time>
      </trkpt>
      <trkpt lat="45.63153" lon="2.81556">
        <ele>1057.59</ele>
        <time>2014-08-31T12:28:44Z</time>
      </trkpt>
      <trkpt lat="45.63158" lon="2.81551">
        <ele>1058.55</ele>
        <time>2014-08-31T12:28:49Z</time>
      </trkpt>
      <trkpt lat="45.63166" lon="2.81527">
        <ele>1056.63</ele>
        <time>2014-08-31T12:29:02Z</time>
      </trkpt>
      <trkpt lat="45.63169" lon="2.81523">
        <ele>1056.15</ele>
        <time>2014-08-31T12:29:06Z</time>
      </trkpt>
      <trkpt lat="45.63186" lon="2.81517">
        <ele>1055.18</ele>
        <time>2014-08-31T12:29:19Z</time>
      </trkpt>
      <trkpt lat="45.63209" lon="2.81518">
        <ele>1054.7</ele>
        <time>2014-08-31T12:29:45Z</time>
      </trkpt>
      <trkpt lat="45.6321" lon="2.81518">
        <ele>1054.7</ele>
        <time>2014-08-31T12:29:47Z</time>
      </trkpt>
      <trkpt lat="45.63219" lon="2.81513">
        <ele>1053.74</ele>
        <time>2014-08-31T12:29:58Z</time>
      </trkpt>
      <trkpt lat="45.63229" lon="2.81492">
        <ele>1053.26</ele>
        <time>2014-08-31T12:30:08Z</time>
      </trkpt>
      <trkpt lat="45.63234" lon="2.81491">
        <ele>1052.78</ele>
        <time>2014-08-31T12:30:16Z</time>
      </trkpt>
      <trkpt lat="45.63236" lon="2.81494">
        <ele>1051.82</ele>
        <time>2014-08-31T12:30:27Z</time>
      </trkpt>
      <trkpt lat="45.63237" lon="2.81494">
        <ele>1048.94</ele>
        <time>2014-08-31T12:30:43Z</time>
      </trkpt>
      <trkpt lat="45.63238" lon="2.81495">
        <ele>1046.05</ele>
        <time>2014-08-31T12:31:02Z</time>
      </trkpt>
      <trkpt lat="45.63244" lon="2.81497">
        <ele>1045.09</ele>
        <time>2014-08-31T12:31:26Z</time>
      </trkpt>
      <trkpt lat="45.63246" lon="2.81498">
        <ele>1044.61</ele>
        <time>2014-08-31T12:31:48Z</time>
      </trkpt>
      <trkpt lat="45.63249" lon="2.81501">
        <ele>1045.09</ele>
        <time>2014-08-31T12:32:03Z</time>
      </trkpt>
      <trkpt lat="45.63251" lon="2.81499">
        <ele>1042.21</ele>
        <time>2014-08-31T12:32:23Z</time>
      </trkpt>
      <trkpt lat="45.63259" lon="2.81499">
        <ele>1040.76</ele>
        <time>2014-08-31T12:32:33Z</time>
      </trkpt>
      <trkpt lat="45.63261" lon="2.81499">
        <ele>1040.76</ele>
        <time>2014-08-31T12:32:35Z</time>
      </trkpt>
      <trkpt lat="45.63264" lon="2.81501">
        <ele>1040.28</ele>
        <time>2014-08-31T12:32:37Z</time>
      </trkpt>
      <trkpt lat="45.63275" lon="2.81508">
        <ele>1038.36</ele>
        <time>2014-08-31T12:32:50Z</time>
      </trkpt>
      <trkpt lat="45.63278" lon="2.81509">
        <ele>1037.88</ele>
        <time>2014-08-31T12:32:52Z</time>
      </trkpt>
      <trkpt lat="45.63287" lon="2.81513">
        <ele>1036.92</ele>
        <time>2014-08-31T12:32:59Z</time>
      </trkpt>
      <trkpt lat="45.63301" lon="2.81525">
        <ele>1035.48</ele>
        <time>2014-08-31T12:33:13Z</time>
      </trkpt>
      <trkpt lat="45.63312" lon="2.8153">
        <ele>1034.52</ele>
        <time>2014-08-31T12:33:24Z</time>
      </trkpt>
      <trkpt lat="45.63323" lon="2.81533">
        <ele>1033.55</ele>
        <time>2014-08-31T12:33:35Z</time>
      </trkpt>
      <trkpt lat="45.6333" lon="2.81541">
        <ele>1030.67</ele>
        <time>2014-08-31T12:33:45Z</time>
      </trkpt>
      <trkpt lat="45.63338" lon="2.81542">
        <ele>1030.19</ele>
        <time>2014-08-31T12:33:55Z</time>
      </trkpt>
      <trkpt lat="45.6334" lon="2.81539">
        <ele>1030.19</ele>
        <time>2014-08-31T12:33:57Z</time>
      </trkpt>
      <trkpt lat="45.63341" lon="2.81533">
        <ele>1030.67</ele>
        <time>2014-08-31T12:34:08Z</time>
      </trkpt>
      <trkpt lat="45.63346" lon="2.81535">
        <ele>1030.19</ele>
        <time>2014-08-31T12:34:21Z</time>
      </trkpt>
      <trkpt lat="45.63349" lon="2.81536">
        <ele>1030.19</ele>
        <time>2014-08-31T12:34:30Z</time>
      </trkpt>
      <trkpt lat="45.63349" lon="2.81545">
        <ele>1030.19</ele>
        <time>2014-08-31T12:34:45Z</time>
      </trkpt>
      <trkpt lat="45.63348" lon="2.81546">
        <ele>1030.67</ele>
        <time>2014-08-31T12:34:46Z</time>
      </trkpt>
      <trkpt lat="45.63346" lon="2.81571">
        <ele>1030.19</ele>
        <time>2014-08-31T12:35:00Z</time>
      </trkpt>
      <trkpt lat="45.63349" lon="2.81587">
        <ele>1031.15</ele>
        <time>2014-08-31T12:35:10Z</time>
      </trkpt>
      <trkpt lat="45.63369" lon="2.81613">
        <ele>1031.15</ele>
        <time>2014-08-31T12:35:24Z</time>
      </trkpt>
      <trkpt lat="45.63385" lon="2.81638">
        <ele>1030.67</ele>
        <time>2014-08-31T12:35:37Z</time>
      </trkpt>
      <trkpt lat="45.63403" lon="2.81665">
        <ele>1030.67</ele>
        <time>2014-08-31T12:35:48Z</time>
      </trkpt>
      <trkpt lat="45.63406" lon="2.81668">
        <ele>1030.67</ele>
        <time>2014-08-31T12:36:01Z</time>
      </trkpt>
      <trkpt lat="45.63406" lon="2.81667">
        <ele>1030.67</ele>
        <time>2014-08-31T12:36:04Z</time>
      </trkpt>
      <trkpt lat="45.63414" lon="2.81663">
        <ele>1030.67</ele>
        <time>2014-08-31T12:36:10Z</time>
      </trkpt>
      <trkpt lat="45.63429" lon="2.81665">
        <ele>1031.15</ele>
        <time>2014-08-31T12:36:22Z</time>
      </trkpt>
      <trkpt lat="45.63436" lon="2.81666">
        <ele>1031.15</ele>
        <time>2014-08-31T12:36:33Z</time>
      </trkpt>
      <trkpt lat="45.6344" lon="2.81668">
        <ele>1031.15</ele>
        <time>2014-08-31T12:36:37Z</time>
      </trkpt>
      <trkpt lat="45.63442" lon="2.81668">
        <ele>1031.15</ele>
        <time>2014-08-31T12:36:52Z</time>
      </trkpt>
      <trkpt lat="45.63445" lon="2.81667">
        <ele>1031.63</ele>
        <time>2014-08-31T12:36:56Z</time>
      </trkpt>
      <trkpt lat="45.63462" lon="2.81666">
        <ele>1031.63</ele>
        <time>2014-08-31T12:37:05Z</time>
      </trkpt>
      <trkpt lat="45.63478" lon="2.81667">
        <ele>1033.07</ele>
        <time>2014-08-31T12:37:18Z</time>
      </trkpt>
      <trkpt lat="45.63485" lon="2.81668">
        <ele>1033.55</ele>
        <time>2014-08-31T12:37:24Z</time>
      </trkpt>
      <trkpt lat="45.63504" lon="2.81663">
        <ele>1035.96</ele>
        <time>2014-08-31T12:37:41Z</time>
      </trkpt>
      <trkpt lat="45.63517" lon="2.81661">
        <ele>1036.44</ele>
        <time>2014-08-31T12:37:55Z</time>
      </trkpt>
      <trkpt lat="45.63523" lon="2.81661">
        <ele>1038.84</ele>
        <time>2014-08-31T12:38:02Z</time>
      </trkpt>
      <trkpt lat="45.63538" lon="2.81657">
        <ele>1038.36</ele>
        <time>2014-08-31T12:38:18Z</time>
      </trkpt>
      <trkpt lat="45.63546" lon="2.81656">
        <ele>1038.84</ele>
        <time>2014-08-31T12:38:24Z</time>
      </trkpt>
      <trkpt lat="45.63558" lon="2.81654">
        <ele>1039.32</ele>
        <time>2014-08-31T12:38:34Z</time>
      </trkpt>
      <trkpt lat="45.63574" lon="2.81655">
        <ele>1039.32</ele>
        <time>2014-08-31T12:38:41Z</time>
      </trkpt>
      <trkpt lat="45.63576" lon="2.81654">
        <ele>1039.32</ele>
        <time>2014-08-31T12:38:43Z</time>
      </trkpt>
      <trkpt lat="45.63584" lon="2.81658">
        <ele>1038.36</ele>
        <time>2014-08-31T12:38:52Z</time>
      </trkpt>
      <trkpt lat="45.63589" lon="2.81658">
        <ele>1038.36</ele>
        <time>2014-08-31T12:38:59Z</time>
      </trkpt>
      <trkpt lat="45.63591" lon="2.81658">
        <ele>1037.88</ele>
        <time>2014-08-31T12:39:01Z</time>
      </trkpt>
      <trkpt lat="45.63598" lon="2.8166">
        <ele>1037.4</ele>
        <time>2014-08-31T12:39:08Z</time>
      </trkpt>
      <trkpt lat="45.63605" lon="2.81659">
        <ele>1036.92</ele>
        <time>2014-08-31T12:39:15Z</time>
      </trkpt>
      <trkpt lat="45.63622" lon="2.81659">
        <ele>1035.96</ele>
        <time>2014-08-31T12:39:26Z</time>
      </trkpt>
      <trkpt lat="45.63626" lon="2.81663">
        <ele>1034.52</ele>
        <time>2014-08-31T12:39:34Z</time>
      </trkpt>
      <trkpt lat="45.63632" lon="2.81666">
        <ele>1034.04</ele>
        <time>2014-08-31T12:39:44Z</time>
      </trkpt>
      <trkpt lat="45.63638" lon="2.8167">
        <ele>1034.04</ele>
        <time>2014-08-31T12:39:51Z</time>
      </trkpt>
      <trkpt lat="45.63646" lon="2.81675">
        <ele>1033.55</ele>
        <time>2014-08-31T12:40:00Z</time>
      </trkpt>
      <trkpt lat="45.63649" lon="2.81676">
        <ele>1033.55</ele>
        <time>2014-08-31T12:40:01Z</time>
      </trkpt>
      <trkpt lat="45.63656" lon="2.81679">
        <ele>1033.55</ele>
        <time>2014-08-31T12:40:04Z</time>
      </trkpt>
      <trkpt lat="45.63662" lon="2.81686">
        <ele>1033.07</ele>
        <time>2014-08-31T12:40:13Z</time>
      </trkpt>
      <trkpt lat="45.63671" lon="2.81694">
        <ele>1033.55</ele>
        <time>2014-08-31T12:40:21Z</time>
      </trkpt>
      <trkpt lat="45.6368" lon="2.81696">
        <ele>1033.55</ele>
        <time>2014-08-31T12:40:25Z</time>
      </trkpt>
      <trkpt lat="45.63689" lon="2.81698">
        <ele>1033.55</ele>
        <time>2014-08-31T12:40:29Z</time>
      </trkpt>
      <trkpt lat="45.637" lon="2.81707">
        <ele>1033.55</ele>
        <time>2014-08-31T12:40:37Z</time>
      </trkpt>
      <trkpt lat="45.63703" lon="2.81708">
        <ele>1033.07</ele>
        <time>2014-08-31T12:40:39Z</time>
      </trkpt>
      <trkpt lat="45.6371" lon="2.81711">
        <ele>1033.55</ele>
        <time>2014-08-31T12:40:43Z</time>
      </trkpt>
      <trkpt lat="45.63722" lon="2.81712">
        <ele>1033.55</ele>
        <time>2014-08-31T12:40:49Z</time>
      </trkpt>
      <trkpt lat="45.63732" lon="2.81714">
        <ele>1034.52</ele>
        <time>2014-08-31T12:40:58Z</time>
      </trkpt>
      <trkpt lat="45.63737" lon="2.81715">
        <ele>1034.52</ele>
        <time>2014-08-31T12:41:01Z</time>
      </trkpt>
      <trkpt lat="45.63747" lon="2.81715">
        <ele>1035</ele>
        <time>2014-08-31T12:41:05Z</time>
      </trkpt>
      <trkpt lat="45.63756" lon="2.81716">
        <ele>1035</ele>
        <time>2014-08-31T12:41:10Z</time>
      </trkpt>
      <trkpt lat="45.63774" lon="2.81718">
        <ele>1035.96</ele>
        <time>2014-08-31T12:41:18Z</time>
      </trkpt>
      <trkpt lat="45.63787" lon="2.81721">
        <ele>1036.44</ele>
        <time>2014-08-31T12:41:26Z</time>
      </trkpt>
      <trkpt lat="45.63791" lon="2.81724">
        <ele>1036.92</ele>
        <time>2014-08-31T12:41:29Z</time>
      </trkpt>
      <trkpt lat="45.63804" lon="2.81728">
        <ele>1038.36</ele>
        <time>2014-08-31T12:41:41Z</time>
      </trkpt>
      <trkpt lat="45.63806" lon="2.81729">
        <ele>1038.84</ele>
        <time>2014-08-31T12:41:52Z</time>
      </trkpt>
      <trkpt lat="45.63808" lon="2.8173">
        <ele>1039.32</ele>
        <time>2014-08-31T12:41:57Z</time>
      </trkpt>
      <trkpt lat="45.63813" lon="2.81733">
        <ele>1039.8</ele>
        <time>2014-08-31T12:42:09Z</time>
      </trkpt>
      <trkpt lat="45.63819" lon="2.81736">
        <ele>1041.25</ele>
        <time>2014-08-31T12:42:21Z</time>
      </trkpt>
      <trkpt lat="45.63823" lon="2.81743">
        <ele>1042.69</ele>
        <time>2014-08-31T12:42:32Z</time>
      </trkpt>
      <trkpt lat="45.63847" lon="2.8175">
        <ele>1043.65</ele>
        <time>2014-08-31T12:42:43Z</time>
      </trkpt>
      <trkpt lat="45.63859" lon="2.81756">
        <ele>1044.61</ele>
        <time>2014-08-31T12:42:49Z</time>
      </trkpt>
      <trkpt lat="45.6386" lon="2.81757">
        <ele>1044.61</ele>
        <time>2014-08-31T12:42:51Z</time>
      </trkpt>
      <trkpt lat="45.63867" lon="2.81763">
        <ele>1045.09</ele>
        <time>2014-08-31T12:42:54Z</time>
      </trkpt>
      <trkpt lat="45.63875" lon="2.81767">
        <ele>1045.57</ele>
        <time>2014-08-31T12:42:58Z</time>
      </trkpt>
      <trkpt lat="45.63884" lon="2.81772">
        <ele>1046.05</ele>
        <time>2014-08-31T12:43:04Z</time>
      </trkpt>
      <trkpt lat="45.63895" lon="2.8177">
        <ele>1046.05</ele>
        <time>2014-08-31T12:43:08Z</time>
      </trkpt>
      <trkpt lat="45.6392" lon="2.81781">
        <ele>1045.57</ele>
        <time>2014-08-31T12:43:18Z</time>
      </trkpt>
      <trkpt lat="45.63935" lon="2.81794">
        <ele>1046.05</ele>
        <time>2014-08-31T12:43:30Z</time>
      </trkpt>
      <trkpt lat="45.63943" lon="2.81803">
        <ele>1047.97</ele>
        <time>2014-08-31T12:43:47Z</time>
      </trkpt>
      <trkpt lat="45.63951" lon="2.8181">
        <ele>1048.94</ele>
        <time>2014-08-31T12:44:01Z</time>
      </trkpt>
      <trkpt lat="45.63963" lon="2.81817">
        <ele>1049.9</ele>
        <time>2014-08-31T12:44:15Z</time>
      </trkpt>
      <trkpt lat="45.63978" lon="2.81827">
        <ele>1050.38</ele>
        <time>2014-08-31T12:44:32Z</time>
      </trkpt>
      <trkpt lat="45.64003" lon="2.81833">
        <ele>1050.38</ele>
        <time>2014-08-31T12:44:48Z</time>
      </trkpt>
      <trkpt lat="45.64014" lon="2.81839">
        <ele>1049.42</ele>
        <time>2014-08-31T12:45:02Z</time>
      </trkpt>
      <trkpt lat="45.64016" lon="2.81842">
        <ele>1049.42</ele>
        <time>2014-08-31T12:45:17Z</time>
      </trkpt>
      <trkpt lat="45.64033" lon="2.81838">
        <ele>1050.38</ele>
        <time>2014-08-31T12:45:35Z</time>
      </trkpt>
      <trkpt lat="45.64047" lon="2.81832">
        <ele>1050.86</ele>
        <time>2014-08-31T12:45:53Z</time>
      </trkpt>
      <trkpt lat="45.64057" lon="2.81833">
        <ele>1051.34</ele>
        <time>2014-08-31T12:46:07Z</time>
      </trkpt>
      <trkpt lat="45.6407" lon="2.81838">
        <ele>1052.78</ele>
        <time>2014-08-31T12:46:23Z</time>
      </trkpt>
      <trkpt lat="45.64077" lon="2.81832">
        <ele>1053.74</ele>
        <time>2014-08-31T12:46:31Z</time>
      </trkpt>
      <trkpt lat="45.64084" lon="2.8184">
        <ele>1054.7</ele>
        <time>2014-08-31T12:46:47Z</time>
      </trkpt>
      <trkpt lat="45.64089" lon="2.81845">
        <ele>1056.63</ele>
        <time>2014-08-31T12:47:03Z</time>
      </trkpt>
      <trkpt lat="45.64112" lon="2.81843">
        <ele>1058.55</ele>
        <time>2014-08-31T12:47:21Z</time>
      </trkpt>
      <trkpt lat="45.64125" lon="2.81842">
        <ele>1060.95</ele>
        <time>2014-08-31T12:47:37Z</time>
      </trkpt>
      <trkpt lat="45.64156" lon="2.81847">
        <ele>1062.87</ele>
        <time>2014-08-31T12:47:52Z</time>
      </trkpt>
      <trkpt lat="45.64169" lon="2.81848">
        <ele>1061.43</ele>
        <time>2014-08-31T12:47:57Z</time>
      </trkpt>
      <trkpt lat="45.64172" lon="2.81849">
        <ele>1062.87</ele>
        <time>2014-08-31T12:48:09Z</time>
      </trkpt>
      <trkpt lat="45.64178" lon="2.81852">
        <ele>1063.36</ele>
        <time>2014-08-31T12:48:20Z</time>
      </trkpt>
      <trkpt lat="45.64183" lon="2.81853">
        <ele>1064.8</ele>
        <time>2014-08-31T12:48:30Z</time>
      </trkpt>
      <trkpt lat="45.64184" lon="2.81852">
        <ele>1064.8</ele>
        <time>2014-08-31T12:48:49Z</time>
      </trkpt>
      <trkpt lat="45.64194" lon="2.81855">
        <ele>1065.76</ele>
        <time>2014-08-31T12:49:02Z</time>
      </trkpt>
      <trkpt lat="45.64201" lon="2.81858">
        <ele>1066.72</ele>
        <time>2014-08-31T12:49:10Z</time>
      </trkpt>
      <trkpt lat="45.64206" lon="2.81858">
        <ele>1067.2</ele>
        <time>2014-08-31T12:49:14Z</time>
      </trkpt>
      <trkpt lat="45.64209" lon="2.81858">
        <ele>1068.16</ele>
        <time>2014-08-31T12:49:24Z</time>
      </trkpt>
      <trkpt lat="45.64216" lon="2.81862">
        <ele>1069.6</ele>
        <time>2014-08-31T12:49:34Z</time>
      </trkpt>
      <trkpt lat="45.64232" lon="2.81874">
        <ele>1071.53</ele>
        <time>2014-08-31T12:49:48Z</time>
      </trkpt>
      <trkpt lat="45.64232" lon="2.81891">
        <ele>1073.93</ele>
        <time>2014-08-31T12:50:03Z</time>
      </trkpt>
      <trkpt lat="45.64225" lon="2.81903">
        <ele>1075.85</ele>
        <time>2014-08-31T12:50:14Z</time>
      </trkpt>
      <trkpt lat="45.64231" lon="2.81911">
        <ele>1076.81</ele>
        <time>2014-08-31T12:50:23Z</time>
      </trkpt>
      <trkpt lat="45.64233" lon="2.81917">
        <ele>1077.78</ele>
        <time>2014-08-31T12:50:29Z</time>
      </trkpt>
      <trkpt lat="45.64273" lon="2.81927">
        <ele>1079.7</ele>
        <time>2014-08-31T12:50:43Z</time>
      </trkpt>
      <trkpt lat="45.64281" lon="2.81935">
        <ele>1080.66</ele>
        <time>2014-08-31T12:50:51Z</time>
      </trkpt>
      <trkpt lat="45.64287" lon="2.81945">
        <ele>1081.14</ele>
        <time>2014-08-31T12:51:03Z</time>
      </trkpt>
      <trkpt lat="45.64288" lon="2.81945">
        <ele>1081.14</ele>
        <time>2014-08-31T12:51:04Z</time>
      </trkpt>
      <trkpt lat="45.6429" lon="2.81946">
        <ele>1081.14</ele>
        <time>2014-08-31T12:51:06Z</time>
      </trkpt>
      <trkpt lat="45.64296" lon="2.81951">
        <ele>1081.62</ele>
        <time>2014-08-31T12:51:18Z</time>
      </trkpt>
      <trkpt lat="45.64302" lon="2.81954">
        <ele>1082.1</ele>
        <time>2014-08-31T12:51:22Z</time>
      </trkpt>
      <trkpt lat="45.64329" lon="2.81969">
        <ele>1083.06</ele>
        <time>2014-08-31T12:51:34Z</time>
      </trkpt>
      <trkpt lat="45.6434" lon="2.8198">
        <ele>1083.54</ele>
        <time>2014-08-31T12:51:44Z</time>
      </trkpt>
      <trkpt lat="45.6435" lon="2.81983">
        <ele>1084.02</ele>
        <time>2014-08-31T12:51:56Z</time>
      </trkpt>
      <trkpt lat="45.6436" lon="2.81983">
        <ele>1085.47</ele>
        <time>2014-08-31T12:52:10Z</time>
      </trkpt>
      <trkpt lat="45.64368" lon="2.81983">
        <ele>1085.47</ele>
        <time>2014-08-31T12:52:21Z</time>
      </trkpt>
      <trkpt lat="45.64372" lon="2.81972">
        <ele>1084.99</ele>
        <time>2014-08-31T12:52:25Z</time>
      </trkpt>
      <trkpt lat="45.64385" lon="2.81969">
        <ele>1085.95</ele>
        <time>2014-08-31T12:52:36Z</time>
      </trkpt>
      <trkpt lat="45.64393" lon="2.81967">
        <ele>1086.43</ele>
        <time>2014-08-31T12:52:43Z</time>
      </trkpt>
      <trkpt lat="45.64413" lon="2.81961">
        <ele>1088.35</ele>
        <time>2014-08-31T12:52:58Z</time>
      </trkpt>
      <trkpt lat="45.64436" lon="2.81955">
        <ele>1090.75</ele>
        <time>2014-08-31T12:53:17Z</time>
      </trkpt>
      <trkpt lat="45.64439" lon="2.81956">
        <ele>1091.23</ele>
        <time>2014-08-31T12:53:20Z</time>
      </trkpt>
      <trkpt lat="45.64449" lon="2.8196">
        <ele>1092.68</ele>
        <time>2014-08-31T12:53:31Z</time>
      </trkpt>
      <trkpt lat="45.64462" lon="2.81963">
        <ele>1094.12</ele>
        <time>2014-08-31T12:53:46Z</time>
      </trkpt>
      <trkpt lat="45.64465" lon="2.81963">
        <ele>1094.12</ele>
        <time>2014-08-31T12:53:53Z</time>
      </trkpt>
      <trkpt lat="45.64472" lon="2.81964">
        <ele>1095.08</ele>
        <time>2014-08-31T12:54:00Z</time>
      </trkpt>
      <trkpt lat="45.64488" lon="2.81951">
        <ele>1096.04</ele>
        <time>2014-08-31T12:54:15Z</time>
      </trkpt>
      <trkpt lat="45.64504" lon="2.81931">
        <ele>1097</ele>
        <time>2014-08-31T12:54:32Z</time>
      </trkpt>
      <trkpt lat="45.64519" lon="2.81909">
        <ele>1097.48</ele>
        <time>2014-08-31T12:54:50Z</time>
      </trkpt>
      <trkpt lat="45.64539" lon="2.8189">
        <ele>1097.48</ele>
        <time>2014-08-31T12:55:09Z</time>
      </trkpt>
      <trkpt lat="45.64554" lon="2.81878">
        <ele>1098.92</ele>
        <time>2014-08-31T12:55:23Z</time>
      </trkpt>
      <trkpt lat="45.64565" lon="2.81864">
        <ele>1100.37</ele>
        <time>2014-08-31T12:55:36Z</time>
      </trkpt>
      <trkpt lat="45.64577" lon="2.81852">
        <ele>1101.81</ele>
        <time>2014-08-31T12:55:48Z</time>
      </trkpt>
      <trkpt lat="45.64586" lon="2.81833">
        <ele>1103.25</ele>
        <time>2014-08-31T12:56:03Z</time>
      </trkpt>
      <trkpt lat="45.64592" lon="2.81822">
        <ele>1104.21</ele>
        <time>2014-08-31T12:56:15Z</time>
      </trkpt>
      <trkpt lat="45.64603" lon="2.81801">
        <ele>1105.17</ele>
        <time>2014-08-31T12:56:31Z</time>
      </trkpt>
      <trkpt lat="45.6461" lon="2.81781">
        <ele>1106.61</ele>
        <time>2014-08-31T12:56:45Z</time>
      </trkpt>
      <trkpt lat="45.64611" lon="2.81778">
        <ele>1107.58</ele>
        <time>2014-08-31T12:56:48Z</time>
      </trkpt>
      <trkpt lat="45.64621" lon="2.81768">
        <ele>1108.54</ele>
        <time>2014-08-31T12:56:57Z</time>
      </trkpt>
      <trkpt lat="45.64626" lon="2.81759">
        <ele>1109.5</ele>
        <time>2014-08-31T12:57:11Z</time>
      </trkpt>
      <trkpt lat="45.64627" lon="2.8176">
        <ele>1109.5</ele>
        <time>2014-08-31T12:57:26Z</time>
      </trkpt>
      <trkpt lat="45.64626" lon="2.8176">
        <ele>1108.54</ele>
        <time>2014-08-31T12:57:41Z</time>
      </trkpt>
      <trkpt lat="45.64626" lon="2.8176">
        <ele>1108.54</ele>
        <time>2014-08-31T12:58:09Z</time>
      </trkpt>
      <trkpt lat="45.64626" lon="2.8176">
        <ele>1108.54</ele>
        <time>2014-08-31T12:58:37Z</time>
      </trkpt>
      <trkpt lat="45.64626" lon="2.81759">
        <ele>1108.54</ele>
        <time>2014-08-31T12:59:09Z</time>
      </trkpt>
      <trkpt lat="45.64625" lon="2.81759">
        <ele>1108.06</ele>
        <time>2014-08-31T12:59:25Z</time>
      </trkpt>
      <trkpt lat="45.64627" lon="2.81759">
        <ele>1109.02</ele>
        <time>2014-08-31T12:59:28Z</time>
      </trkpt>
      <trkpt lat="45.6463" lon="2.81758">
        <ele>1109.5</ele>
        <time>2014-08-31T12:59:31Z</time>
      </trkpt>
      <trkpt lat="45.64634" lon="2.81756">
        <ele>1109.5</ele>
        <time>2014-08-31T12:59:35Z</time>
      </trkpt>
      <trkpt lat="45.64647" lon="2.81756">
        <ele>1110.94</ele>
        <time>2014-08-31T12:59:48Z</time>
      </trkpt>
      <trkpt lat="45.64667" lon="2.81761">
        <ele>1110.94</ele>
        <time>2014-08-31T13:00:05Z</time>
      </trkpt>
      <trkpt lat="45.64678" lon="2.81762">
        <ele>1112.38</ele>
        <time>2014-08-31T13:00:12Z</time>
      </trkpt>
      <trkpt lat="45.64691" lon="2.81759">
        <ele>1112.86</ele>
        <time>2014-08-31T13:00:21Z</time>
      </trkpt>
      <trkpt lat="45.64699" lon="2.81758">
        <ele>1112.86</ele>
        <time>2014-08-31T13:00:29Z</time>
      </trkpt>
      <trkpt lat="45.64718" lon="2.81765">
        <ele>1112.86</ele>
        <time>2014-08-31T13:00:44Z</time>
      </trkpt>
      <trkpt lat="45.64719" lon="2.81765">
        <ele>1112.86</ele>
        <time>2014-08-31T13:00:45Z</time>
      </trkpt>
      <trkpt lat="45.64732" lon="2.81776">
        <ele>1113.34</ele>
        <time>2014-08-31T13:00:57Z</time>
      </trkpt>
      <trkpt lat="45.64738" lon="2.81782">
        <ele>1113.34</ele>
        <time>2014-08-31T13:01:05Z</time>
      </trkpt>
      <trkpt lat="45.64741" lon="2.81785">
        <ele>1113.34</ele>
        <time>2014-08-31T13:01:09Z</time>
      </trkpt>
      <trkpt lat="45.64751" lon="2.81792">
        <ele>1113.34</ele>
        <time>2014-08-31T13:01:17Z</time>
      </trkpt>
      <trkpt lat="45.64755" lon="2.81794">
        <ele>1113.34</ele>
        <time>2014-08-31T13:01:21Z</time>
      </trkpt>
      <trkpt lat="45.64766" lon="2.81798">
        <ele>1113.34</ele>
        <time>2014-08-31T13:01:30Z</time>
      </trkpt>
      <trkpt lat="45.64778" lon="2.81803">
        <ele>1112.86</ele>
        <time>2014-08-31T13:01:41Z</time>
      </trkpt>
      <trkpt lat="45.64785" lon="2.81808">
        <ele>1112.38</ele>
        <time>2014-08-31T13:01:47Z</time>
      </trkpt>
      <trkpt lat="45.64792" lon="2.8181">
        <ele>1112.38</ele>
        <time>2014-08-31T13:01:53Z</time>
      </trkpt>
      <trkpt lat="45.64803" lon="2.81809">
        <ele>1111.42</ele>
        <time>2014-08-31T13:02:04Z</time>
      </trkpt>
      <trkpt lat="45.64811" lon="2.81811">
        <ele>1110.46</ele>
        <time>2014-08-31T13:02:12Z</time>
      </trkpt>
      <trkpt lat="45.64819" lon="2.81814">
        <ele>1109.98</ele>
        <time>2014-08-31T13:02:20Z</time>
      </trkpt>
      <trkpt lat="45.64841" lon="2.81819">
        <ele>1110.46</ele>
        <time>2014-08-31T13:02:37Z</time>
      </trkpt>
      <trkpt lat="45.64856" lon="2.81826">
        <ele>1111.9</ele>
        <time>2014-08-31T13:02:51Z</time>
      </trkpt>
      <trkpt lat="45.64863" lon="2.81824">
        <ele>1113.34</ele>
        <time>2014-08-31T13:03:03Z</time>
      </trkpt>
      <trkpt lat="45.64864" lon="2.81825">
        <ele>1112.86</ele>
        <time>2014-08-31T13:03:05Z</time>
      </trkpt>
      <trkpt lat="45.64873" lon="2.81821">
        <ele>1113.82</ele>
        <time>2014-08-31T13:03:15Z</time>
      </trkpt>
      <trkpt lat="45.64884" lon="2.81818">
        <ele>1114.79</ele>
        <time>2014-08-31T13:03:26Z</time>
      </trkpt>
      <trkpt lat="45.64886" lon="2.81815">
        <ele>1115.27</ele>
        <time>2014-08-31T13:03:31Z</time>
      </trkpt>
      <trkpt lat="45.6489" lon="2.81813">
        <ele>1116.23</ele>
        <time>2014-08-31T13:03:38Z</time>
      </trkpt>
      <trkpt lat="45.64896" lon="2.81814">
        <ele>1116.23</ele>
        <time>2014-08-31T13:03:42Z</time>
      </trkpt>
      <trkpt lat="45.649" lon="2.81815">
        <ele>1117.19</ele>
        <time>2014-08-31T13:03:49Z</time>
      </trkpt>
      <trkpt lat="45.64911" lon="2.81815">
        <ele>1117.67</ele>
        <time>2014-08-31T13:04:00Z</time>
      </trkpt>
      <trkpt lat="45.64911" lon="2.81815">
        <ele>1117.67</ele>
        <time>2014-08-31T13:04:01Z</time>
      </trkpt>
      <trkpt lat="45.64918" lon="2.81816">
        <ele>1118.63</ele>
        <time>2014-08-31T13:04:09Z</time>
      </trkpt>
      <trkpt lat="45.64934" lon="2.81817">
        <ele>1119.59</ele>
        <time>2014-08-31T13:04:24Z</time>
      </trkpt>
      <trkpt lat="45.6495" lon="2.81828">
        <ele>1120.55</ele>
        <time>2014-08-31T13:04:33Z</time>
      </trkpt>
      <trkpt lat="45.64953" lon="2.81828">
        <ele>1121.03</ele>
        <time>2014-08-31T13:04:45Z</time>
      </trkpt>
      <trkpt lat="45.6497" lon="2.81836">
        <ele>1121.52</ele>
        <time>2014-08-31T13:04:55Z</time>
      </trkpt>
      <trkpt lat="45.6498" lon="2.81843">
        <ele>1122.48</ele>
        <time>2014-08-31T13:05:07Z</time>
      </trkpt>
      <trkpt lat="45.6498" lon="2.81843">
        <ele>1122.96</ele>
        <time>2014-08-31T13:05:09Z</time>
      </trkpt>
      <trkpt lat="45.64982" lon="2.81845">
        <ele>1123.44</ele>
        <time>2014-08-31T13:05:11Z</time>
      </trkpt>
      <trkpt lat="45.64987" lon="2.81851">
        <ele>1123.44</ele>
        <time>2014-08-31T13:05:15Z</time>
      </trkpt>
      <trkpt lat="45.64998" lon="2.81867">
        <ele>1124.4</ele>
        <time>2014-08-31T13:05:25Z</time>
      </trkpt>
      <trkpt lat="45.65" lon="2.8187">
        <ele>1124.4</ele>
        <time>2014-08-31T13:05:29Z</time>
      </trkpt>
      <trkpt lat="45.65002" lon="2.81874">
        <ele>1124.88</ele>
        <time>2014-08-31T13:05:38Z</time>
      </trkpt>
      <trkpt lat="45.6501" lon="2.81883">
        <ele>1125.84</ele>
        <time>2014-08-31T13:05:44Z</time>
      </trkpt>
      <trkpt lat="45.65021" lon="2.81906">
        <ele>1126.8</ele>
        <time>2014-08-31T13:06:01Z</time>
      </trkpt>
      <trkpt lat="45.65029" lon="2.81919">
        <ele>1127.76</ele>
        <time>2014-08-31T13:06:15Z</time>
      </trkpt>
      <trkpt lat="45.65037" lon="2.81948">
        <ele>1128.73</ele>
        <time>2014-08-31T13:06:29Z</time>
      </trkpt>
      <trkpt lat="45.65037" lon="2.81963">
        <ele>1129.21</ele>
        <time>2014-08-31T13:06:37Z</time>
      </trkpt>
      <trkpt lat="45.65037" lon="2.81976">
        <ele>1130.17</ele>
        <time>2014-08-31T13:06:50Z</time>
      </trkpt>
      <trkpt lat="45.65035" lon="2.81982">
        <ele>1131.13</ele>
        <time>2014-08-31T13:07:01Z</time>
      </trkpt>
      <trkpt lat="45.65032" lon="2.81996">
        <ele>1131.61</ele>
        <time>2014-08-31T13:07:06Z</time>
      </trkpt>
      <trkpt lat="45.65033" lon="2.8201">
        <ele>1131.61</ele>
        <time>2014-08-31T13:07:10Z</time>
      </trkpt>
      <trkpt lat="45.65035" lon="2.82054">
        <ele>1132.09</ele>
        <time>2014-08-31T13:07:23Z</time>
      </trkpt>
      <trkpt lat="45.65033" lon="2.82072">
        <ele>1132.09</ele>
        <time>2014-08-31T13:07:33Z</time>
      </trkpt>
      <trkpt lat="45.65033" lon="2.82075">
        <ele>1133.05</ele>
        <time>2014-08-31T13:07:43Z</time>
      </trkpt>
      <trkpt lat="45.65033" lon="2.82076">
        <ele>1133.05</ele>
        <time>2014-08-31T13:07:53Z</time>
      </trkpt>
      <trkpt lat="45.65035" lon="2.82086">
        <ele>1133.53</ele>
        <time>2014-08-31T13:08:04Z</time>
      </trkpt>
      <trkpt lat="45.65031" lon="2.82105">
        <ele>1134.01</ele>
        <time>2014-08-31T13:08:14Z</time>
      </trkpt>
      <trkpt lat="45.65027" lon="2.82154">
        <ele>1134.01</ele>
        <time>2014-08-31T13:08:27Z</time>
      </trkpt>
      <trkpt lat="45.65027" lon="2.82174">
        <ele>1134.01</ele>
        <time>2014-08-31T13:08:37Z</time>
      </trkpt>
      <trkpt lat="45.65023" lon="2.82177">
        <ele>1134.01</ele>
        <time>2014-08-31T13:08:47Z</time>
      </trkpt>
      <trkpt lat="45.65017" lon="2.82178">
        <ele>1133.53</ele>
        <time>2014-08-31T13:08:57Z</time>
      </trkpt>
      <trkpt lat="45.65014" lon="2.82205">
        <ele>1133.05</ele>
        <time>2014-08-31T13:09:08Z</time>
      </trkpt>
      <trkpt lat="45.65014" lon="2.82221">
        <ele>1133.05</ele>
        <time>2014-08-31T13:09:11Z</time>
      </trkpt>
      <trkpt lat="45.65018" lon="2.82247">
        <ele>1132.57</ele>
        <time>2014-08-31T13:09:21Z</time>
      </trkpt>
      <trkpt lat="45.65019" lon="2.82247">
        <ele>1132.57</ele>
        <time>2014-08-31T13:09:26Z</time>
      </trkpt>
      <trkpt lat="45.65018" lon="2.82246">
        <ele>1132.57</ele>
        <time>2014-08-31T13:09:28Z</time>
      </trkpt>
      <trkpt lat="45.65013" lon="2.82243">
        <ele>1132.09</ele>
        <time>2014-08-31T13:09:32Z</time>
      </trkpt>
      <trkpt lat="45.65008" lon="2.82249">
        <ele>1131.61</ele>
        <time>2014-08-31T13:09:43Z</time>
      </trkpt>
      <trkpt lat="45.65004" lon="2.82258">
        <ele>1131.13</ele>
        <time>2014-08-31T13:09:49Z</time>
      </trkpt>
      <trkpt lat="45.65003" lon="2.8227">
        <ele>1131.13</ele>
        <time>2014-08-31T13:09:53Z</time>
      </trkpt>
      <trkpt lat="45.65011" lon="2.82328">
        <ele>1130.17</ele>
        <time>2014-08-31T13:10:06Z</time>
      </trkpt>
      <trkpt lat="45.65015" lon="2.82337">
        <ele>1129.69</ele>
        <time>2014-08-31T13:10:10Z</time>
      </trkpt>
      <trkpt lat="45.6502" lon="2.82353">
        <ele>1128.24</ele>
        <time>2014-08-31T13:10:20Z</time>
      </trkpt>
      <trkpt lat="45.6502" lon="2.82355">
        <ele>1128.24</ele>
        <time>2014-08-31T13:10:21Z</time>
      </trkpt>
      <trkpt lat="45.65017" lon="2.8237">
        <ele>1127.76</ele>
        <time>2014-08-31T13:10:29Z</time>
      </trkpt>
      <trkpt lat="45.64994" lon="2.82374">
        <ele>1127.76</ele>
        <time>2014-08-31T13:10:40Z</time>
      </trkpt>
      <trkpt lat="45.64971" lon="2.82373">
        <ele>1128.24</ele>
        <time>2014-08-31T13:10:49Z</time>
      </trkpt>
      <trkpt lat="45.64977" lon="2.82371">
        <ele>1127.76</ele>
        <time>2014-08-31T13:10:58Z</time>
      </trkpt>
      <trkpt lat="45.64972" lon="2.82373">
        <ele>1128.24</ele>
        <time>2014-08-31T13:11:11Z</time>
      </trkpt>
      <trkpt lat="45.64968" lon="2.82377">
        <ele>1128.73</ele>
        <time>2014-08-31T13:11:13Z</time>
      </trkpt>
      <trkpt lat="45.6494" lon="2.82385">
        <ele>1129.21</ele>
        <time>2014-08-31T13:11:25Z</time>
      </trkpt>
      <trkpt lat="45.64925" lon="2.82382">
        <ele>1129.21</ele>
        <time>2014-08-31T13:11:37Z</time>
      </trkpt>
      <trkpt lat="45.64929" lon="2.82382">
        <ele>1129.21</ele>
        <time>2014-08-31T13:11:49Z</time>
      </trkpt>
      <trkpt lat="45.64926" lon="2.82385">
        <ele>1129.69</ele>
        <time>2014-08-31T13:11:58Z</time>
      </trkpt>
      <trkpt lat="45.64925" lon="2.82386">
        <ele>1129.69</ele>
        <time>2014-08-31T13:12:01Z</time>
      </trkpt>
      <trkpt lat="45.64901" lon="2.82389">
        <ele>1130.17</ele>
        <time>2014-08-31T13:12:12Z</time>
      </trkpt>
      <trkpt lat="45.64876" lon="2.82394">
        <ele>1130.17</ele>
        <time>2014-08-31T13:12:23Z</time>
      </trkpt>
      <trkpt lat="45.64863" lon="2.82397">
        <ele>1130.17</ele>
        <time>2014-08-31T13:12:30Z</time>
      </trkpt>
      <trkpt lat="45.64864" lon="2.82394">
        <ele>1130.17</ele>
        <time>2014-08-31T13:12:40Z</time>
      </trkpt>
      <trkpt lat="45.64857" lon="2.82394">
        <ele>1131.13</ele>
        <time>2014-08-31T13:12:52Z</time>
      </trkpt>
      <trkpt lat="45.64857" lon="2.82395">
        <ele>1131.13</ele>
        <time>2014-08-31T13:13:02Z</time>
      </trkpt>
      <trkpt lat="45.64857" lon="2.82395">
        <ele>1131.13</ele>
        <time>2014-08-31T13:13:06Z</time>
      </trkpt>
      <trkpt lat="45.64848" lon="2.82396">
        <ele>1130.65</ele>
        <time>2014-08-31T13:13:11Z</time>
      </trkpt>
      <trkpt lat="45.64837" lon="2.82395">
        <ele>1131.13</ele>
        <time>2014-08-31T13:13:23Z</time>
      </trkpt>
      <trkpt lat="45.64835" lon="2.82396">
        <ele>1131.61</ele>
        <time>2014-08-31T13:13:29Z</time>
      </trkpt>
      <trkpt lat="45.64832" lon="2.82398">
        <ele>1131.61</ele>
        <time>2014-08-31T13:13:31Z</time>
      </trkpt>
      <trkpt lat="45.64827" lon="2.82399">
        <ele>1131.61</ele>
        <time>2014-08-31T13:13:35Z</time>
      </trkpt>
      <trkpt lat="45.64825" lon="2.82401">
        <ele>1131.61</ele>
        <time>2014-08-31T13:13:37Z</time>
      </trkpt>
      <trkpt lat="45.64821" lon="2.82402">
        <ele>1131.61</ele>
        <time>2014-08-31T13:13:40Z</time>
      </trkpt>
      <trkpt lat="45.64814" lon="2.82402">
        <ele>1131.61</ele>
        <time>2014-08-31T13:13:48Z</time>
      </trkpt>
      <trkpt lat="45.64805" lon="2.824">
        <ele>1132.09</ele>
        <time>2014-08-31T13:13:53Z</time>
      </trkpt>
      <trkpt lat="45.64797" lon="2.82402">
        <ele>1131.61</ele>
        <time>2014-08-31T13:13:57Z</time>
      </trkpt>
      <trkpt lat="45.64782" lon="2.82406">
        <ele>1131.61</ele>
        <time>2014-08-31T13:14:05Z</time>
      </trkpt>
      <trkpt lat="45.64774" lon="2.8241">
        <ele>1132.09</ele>
        <time>2014-08-31T13:14:16Z</time>
      </trkpt>
      <trkpt lat="45.64751" lon="2.824">
        <ele>1131.61</ele>
        <time>2014-08-31T13:14:27Z</time>
      </trkpt>
      <trkpt lat="45.64743" lon="2.82401">
        <ele>1131.13</ele>
        <time>2014-08-31T13:14:36Z</time>
      </trkpt>
      <trkpt lat="45.64733" lon="2.82404">
        <ele>1131.13</ele>
        <time>2014-08-31T13:14:49Z</time>
      </trkpt>
      <trkpt lat="45.6473" lon="2.82402">
        <ele>1130.65</ele>
        <time>2014-08-31T13:14:51Z</time>
      </trkpt>
      <trkpt lat="45.64722" lon="2.82398">
        <ele>1131.13</ele>
        <time>2014-08-31T13:14:55Z</time>
      </trkpt>
      <trkpt lat="45.64699" lon="2.82377">
        <ele>1130.65</ele>
        <time>2014-08-31T13:15:08Z</time>
      </trkpt>
      <trkpt lat="45.64693" lon="2.82376">
        <ele>1130.17</ele>
        <time>2014-08-31T13:15:19Z</time>
      </trkpt>
      <trkpt lat="45.64687" lon="2.82377">
        <ele>1129.21</ele>
        <time>2014-08-31T13:15:30Z</time>
      </trkpt>
      <trkpt lat="45.64673" lon="2.82368">
        <ele>1128.24</ele>
        <time>2014-08-31T13:15:41Z</time>
      </trkpt>
      <trkpt lat="45.6467" lon="2.82366">
        <ele>1128.24</ele>
        <time>2014-08-31T13:15:45Z</time>
      </trkpt>
      <trkpt lat="45.64668" lon="2.82363">
        <ele>1127.28</ele>
        <time>2014-08-31T13:15:53Z</time>
      </trkpt>
      <trkpt lat="45.64637" lon="2.8236">
        <ele>1124.88</ele>
        <time>2014-08-31T13:16:11Z</time>
      </trkpt>
      <trkpt lat="45.64623" lon="2.82357">
        <ele>1124.88</ele>
        <time>2014-08-31T13:16:24Z</time>
      </trkpt>
      <trkpt lat="45.64623" lon="2.82357">
        <ele>1122.96</ele>
        <time>2014-08-31T13:16:41Z</time>
      </trkpt>
      <trkpt lat="45.64623" lon="2.82357">
        <ele>1122.96</ele>
        <time>2014-08-31T13:16:54Z</time>
      </trkpt>
      <trkpt lat="45.64623" lon="2.82356">
        <ele>1123.44</ele>
        <time>2014-08-31T13:17:11Z</time>
      </trkpt>
      <trkpt lat="45.64623" lon="2.82357">
        <ele>1122.96</ele>
        <time>2014-08-31T13:17:40Z</time>
      </trkpt>
      <trkpt lat="45.64624" lon="2.82356">
        <ele>1123.44</ele>
        <time>2014-08-31T13:18:02Z</time>
      </trkpt>
      <trkpt lat="45.64624" lon="2.82356">
        <ele>1123.44</ele>
        <time>2014-08-31T13:18:22Z</time>
      </trkpt>
      <trkpt lat="45.64624" lon="2.82356">
        <ele>1123.92</ele>
        <time>2014-08-31T13:18:28Z</time>
      </trkpt>
      <trkpt lat="45.64621" lon="2.82356">
        <ele>1123.44</ele>
        <time>2014-08-31T13:18:31Z</time>
      </trkpt>
      <trkpt lat="45.64604" lon="2.82353">
        <ele>1122</ele>
        <time>2014-08-31T13:18:43Z</time>
      </trkpt>
      <trkpt lat="45.64602" lon="2.82353">
        <ele>1121.03</ele>
        <time>2014-08-31T13:18:47Z</time>
      </trkpt>
      <trkpt lat="45.64599" lon="2.82352">
        <ele>1121.03</ele>
        <time>2014-08-31T13:18:51Z</time>
      </trkpt>
      <trkpt lat="45.64594" lon="2.82351">
        <ele>1120.07</ele>
        <time>2014-08-31T13:18:55Z</time>
      </trkpt>
      <trkpt lat="45.64571" lon="2.82345">
        <ele>1118.15</ele>
        <time>2014-08-31T13:19:10Z</time>
      </trkpt>
      <trkpt lat="45.64567" lon="2.82341">
        <ele>1116.71</ele>
        <time>2014-08-31T13:19:22Z</time>
      </trkpt>
      <trkpt lat="45.64562" lon="2.82339">
        <ele>1116.23</ele>
        <time>2014-08-31T13:19:30Z</time>
      </trkpt>
      <trkpt lat="45.64556" lon="2.82335">
        <ele>1115.75</ele>
        <time>2014-08-31T13:19:35Z</time>
      </trkpt>
      <trkpt lat="45.64528" lon="2.82318">
        <ele>1115.27</ele>
        <time>2014-08-31T13:19:51Z</time>
      </trkpt>
      <trkpt lat="45.64517" lon="2.82314">
        <ele>1114.31</ele>
        <time>2014-08-31T13:20:05Z</time>
      </trkpt>
      <trkpt lat="45.64516" lon="2.82314">
        <ele>1114.31</ele>
        <time>2014-08-31T13:20:06Z</time>
      </trkpt>
      <trkpt lat="45.64512" lon="2.82312">
        <ele>1114.31</ele>
        <time>2014-08-31T13:20:09Z</time>
      </trkpt>
      <trkpt lat="45.64489" lon="2.823">
        <ele>1114.31</ele>
        <time>2014-08-31T13:20:24Z</time>
      </trkpt>
      <trkpt lat="45.64473" lon="2.82293">
        <ele>1114.31</ele>
        <time>2014-08-31T13:20:35Z</time>
      </trkpt>
      <trkpt lat="45.64468" lon="2.8229">
        <ele>1113.82</ele>
        <time>2014-08-31T13:20:42Z</time>
      </trkpt>
      <trkpt lat="45.64452" lon="2.82276">
        <ele>1115.27</ele>
        <time>2014-08-31T13:20:57Z</time>
      </trkpt>
      <trkpt lat="45.64438" lon="2.82268">
        <ele>1115.27</ele>
        <time>2014-08-31T13:21:11Z</time>
      </trkpt>
      <trkpt lat="45.64429" lon="2.82265">
        <ele>1115.75</ele>
        <time>2014-08-31T13:21:23Z</time>
      </trkpt>
      <trkpt lat="45.64425" lon="2.82263">
        <ele>1115.75</ele>
        <time>2014-08-31T13:21:26Z</time>
      </trkpt>
      <trkpt lat="45.64402" lon="2.82251">
        <ele>1116.71</ele>
        <time>2014-08-31T13:21:39Z</time>
      </trkpt>
      <trkpt lat="45.64381" lon="2.82242">
        <ele>1117.19</ele>
        <time>2014-08-31T13:21:51Z</time>
      </trkpt>
      <trkpt lat="45.64368" lon="2.82238">
        <ele>1117.67</ele>
        <time>2014-08-31T13:22:02Z</time>
      </trkpt>
      <trkpt lat="45.64364" lon="2.82238">
        <ele>1118.15</ele>
        <time>2014-08-31T13:22:09Z</time>
      </trkpt>
      <trkpt lat="45.64353" lon="2.82237">
        <ele>1118.63</ele>
        <time>2014-08-31T13:22:17Z</time>
      </trkpt>
      <trkpt lat="45.64334" lon="2.82232">
        <ele>1120.07</ele>
        <time>2014-08-31T13:22:32Z</time>
      </trkpt>
      <trkpt lat="45.64323" lon="2.82231">
        <ele>1120.55</ele>
        <time>2014-08-31T13:22:45Z</time>
      </trkpt>
      <trkpt lat="45.64304" lon="2.82228">
        <ele>1121.03</ele>
        <time>2014-08-31T13:22:57Z</time>
      </trkpt>
      <trkpt lat="45.64285" lon="2.82226">
        <ele>1121.03</ele>
        <time>2014-08-31T13:23:09Z</time>
      </trkpt>
      <trkpt lat="45.64285" lon="2.82224">
        <ele>1121.52</ele>
        <time>2014-08-31T13:23:22Z</time>
      </trkpt>
      <trkpt lat="45.64281" lon="2.82224">
        <ele>1122</ele>
        <time>2014-08-31T13:23:29Z</time>
      </trkpt>
      <trkpt lat="45.64272" lon="2.82222">
        <ele>1122</ele>
        <time>2014-08-31T13:23:41Z</time>
      </trkpt>
      <trkpt lat="45.64261" lon="2.82221">
        <ele>1122.48</ele>
        <time>2014-08-31T13:23:51Z</time>
      </trkpt>
      <trkpt lat="45.64259" lon="2.8222">
        <ele>1122.48</ele>
        <time>2014-08-31T13:23:54Z</time>
      </trkpt>
      <trkpt lat="45.64248" lon="2.82217">
        <ele>1122.48</ele>
        <time>2014-08-31T13:24:02Z</time>
      </trkpt>
      <trkpt lat="45.64243" lon="2.82217">
        <ele>1122.96</ele>
        <time>2014-08-31T13:24:07Z</time>
      </trkpt>
      <trkpt lat="45.64238" lon="2.82216">
        <ele>1122.96</ele>
        <time>2014-08-31T13:24:10Z</time>
      </trkpt>
      <trkpt lat="45.64213" lon="2.82216">
        <ele>1123.92</ele>
        <time>2014-08-31T13:24:26Z</time>
      </trkpt>
      <trkpt lat="45.64201" lon="2.8221">
        <ele>1123.92</ele>
        <time>2014-08-31T13:24:43Z</time>
      </trkpt>
      <trkpt lat="45.64197" lon="2.82211">
        <ele>1124.4</ele>
        <time>2014-08-31T13:24:53Z</time>
      </trkpt>
      <trkpt lat="45.64194" lon="2.82211">
        <ele>1124.4</ele>
        <time>2014-08-31T13:25:02Z</time>
      </trkpt>
      <trkpt lat="45.64169" lon="2.82203">
        <ele>1123.92</ele>
        <time>2014-08-31T13:25:16Z</time>
      </trkpt>
      <trkpt lat="45.64151" lon="2.82202">
        <ele>1122</ele>
        <time>2014-08-31T13:25:30Z</time>
      </trkpt>
      <trkpt lat="45.64154" lon="2.82203">
        <ele>1121.52</ele>
        <time>2014-08-31T13:25:40Z</time>
      </trkpt>
      <trkpt lat="45.64151" lon="2.82203">
        <ele>1121.52</ele>
        <time>2014-08-31T13:25:43Z</time>
      </trkpt>
      <trkpt lat="45.64144" lon="2.82202">
        <ele>1121.03</ele>
        <time>2014-08-31T13:25:57Z</time>
      </trkpt>
      <trkpt lat="45.64144" lon="2.82202">
        <ele>1120.55</ele>
        <time>2014-08-31T13:26:02Z</time>
      </trkpt>
      <trkpt lat="45.64143" lon="2.82203">
        <ele>1121.03</ele>
        <time>2014-08-31T13:26:05Z</time>
      </trkpt>
      <trkpt lat="45.64126" lon="2.82202">
        <ele>1120.55</ele>
        <time>2014-08-31T13:26:16Z</time>
      </trkpt>
      <trkpt lat="45.64109" lon="2.82208">
        <ele>1120.55</ele>
        <time>2014-08-31T13:26:29Z</time>
      </trkpt>
      <trkpt lat="45.64105" lon="2.82208">
        <ele>1121.52</ele>
        <time>2014-08-31T13:26:41Z</time>
      </trkpt>
      <trkpt lat="45.64097" lon="2.82214">
        <ele>1121.52</ele>
        <time>2014-08-31T13:26:50Z</time>
      </trkpt>
      <trkpt lat="45.64093" lon="2.82214">
        <ele>1122.96</ele>
        <time>2014-08-31T13:26:57Z</time>
      </trkpt>
      <trkpt lat="45.64091" lon="2.82216">
        <ele>1122.48</ele>
        <time>2014-08-31T13:26:59Z</time>
      </trkpt>
      <trkpt lat="45.64079" lon="2.82216">
        <ele>1122.48</ele>
        <time>2014-08-31T13:27:04Z</time>
      </trkpt>
      <trkpt lat="45.64076" lon="2.82216">
        <ele>1122.48</ele>
        <time>2014-08-31T13:27:07Z</time>
      </trkpt>
      <trkpt lat="45.64076" lon="2.82216">
        <ele>1122.96</ele>
        <time>2014-08-31T13:27:13Z</time>
      </trkpt>
      <trkpt lat="45.64065" lon="2.82218">
        <ele>1123.44</ele>
        <time>2014-08-31T13:27:20Z</time>
      </trkpt>
      <trkpt lat="45.64059" lon="2.82219">
        <ele>1123.44</ele>
        <time>2014-08-31T13:27:25Z</time>
      </trkpt>
      <trkpt lat="45.64037" lon="2.8222">
        <ele>1122.96</ele>
        <time>2014-08-31T13:27:37Z</time>
      </trkpt>
      <trkpt lat="45.64023" lon="2.82222">
        <ele>1122.96</ele>
        <time>2014-08-31T13:27:46Z</time>
      </trkpt>
      <trkpt lat="45.64021" lon="2.82216">
        <ele>1122</ele>
        <time>2014-08-31T13:27:57Z</time>
      </trkpt>
      <trkpt lat="45.64017" lon="2.8222">
        <ele>1121.03</ele>
        <time>2014-08-31T13:28:03Z</time>
      </trkpt>
      <trkpt lat="45.63996" lon="2.82223">
        <ele>1120.55</ele>
        <time>2014-08-31T13:28:13Z</time>
      </trkpt>
      <trkpt lat="45.63995" lon="2.82223">
        <ele>1120.55</ele>
        <time>2014-08-31T13:28:24Z</time>
      </trkpt>
      <trkpt lat="45.63988" lon="2.82223">
        <ele>1120.55</ele>
        <time>2014-08-31T13:28:31Z</time>
      </trkpt>
      <trkpt lat="45.63973" lon="2.8223">
        <ele>1120.55</ele>
        <time>2014-08-31T13:28:39Z</time>
      </trkpt>
      <trkpt lat="45.63964" lon="2.82229">
        <ele>1120.55</ele>
        <time>2014-08-31T13:28:46Z</time>
      </trkpt>
      <trkpt lat="45.63947" lon="2.8224">
        <ele>1120.55</ele>
        <time>2014-08-31T13:28:57Z</time>
      </trkpt>
      <trkpt lat="45.63945" lon="2.82235">
        <ele>1120.07</ele>
        <time>2014-08-31T13:29:08Z</time>
      </trkpt>
      <trkpt lat="45.63938" lon="2.8224">
        <ele>1120.07</ele>
        <time>2014-08-31T13:29:13Z</time>
      </trkpt>
      <trkpt lat="45.63922" lon="2.82247">
        <ele>1120.55</ele>
        <time>2014-08-31T13:29:26Z</time>
      </trkpt>
      <trkpt lat="45.63915" lon="2.82251">
        <ele>1120.55</ele>
        <time>2014-08-31T13:29:38Z</time>
      </trkpt>
      <trkpt lat="45.63913" lon="2.82251">
        <ele>1120.55</ele>
        <time>2014-08-31T13:29:39Z</time>
      </trkpt>
      <trkpt lat="45.63907" lon="2.82254">
        <ele>1120.55</ele>
        <time>2014-08-31T13:29:43Z</time>
      </trkpt>
      <trkpt lat="45.63901" lon="2.82255">
        <ele>1121.03</ele>
        <time>2014-08-31T13:29:52Z</time>
      </trkpt>
      <trkpt lat="45.63888" lon="2.82258">
        <ele>1121.03</ele>
        <time>2014-08-31T13:30:01Z</time>
      </trkpt>
      <trkpt lat="45.6387" lon="2.82256">
        <ele>1121.52</ele>
        <time>2014-08-31T13:30:12Z</time>
      </trkpt>
      <trkpt lat="45.63853" lon="2.8225">
        <ele>1121.52</ele>
        <time>2014-08-31T13:30:24Z</time>
      </trkpt>
      <trkpt lat="45.63827" lon="2.82245">
        <ele>1121.52</ele>
        <time>2014-08-31T13:30:39Z</time>
      </trkpt>
      <trkpt lat="45.63817" lon="2.82243">
        <ele>1122</ele>
        <time>2014-08-31T13:30:51Z</time>
      </trkpt>
      <trkpt lat="45.63809" lon="2.82241">
        <ele>1121.52</ele>
        <time>2014-08-31T13:31:05Z</time>
      </trkpt>
      <trkpt lat="45.63795" lon="2.82239">
        <ele>1121.52</ele>
        <time>2014-08-31T13:31:16Z</time>
      </trkpt>
      <trkpt lat="45.63777" lon="2.82235">
        <ele>1121.52</ele>
        <time>2014-08-31T13:31:27Z</time>
      </trkpt>
      <trkpt lat="45.63765" lon="2.82233">
        <ele>1121.52</ele>
        <time>2014-08-31T13:31:39Z</time>
      </trkpt>
      <trkpt lat="45.63757" lon="2.82227">
        <ele>1121.52</ele>
        <time>2014-08-31T13:31:52Z</time>
      </trkpt>
      <trkpt lat="45.63742" lon="2.8222">
        <ele>1121.52</ele>
        <time>2014-08-31T13:32:03Z</time>
      </trkpt>
      <trkpt lat="45.63732" lon="2.82207">
        <ele>1122.48</ele>
        <time>2014-08-31T13:32:14Z</time>
      </trkpt>
      <trkpt lat="45.63731" lon="2.82206">
        <ele>1122.96</ele>
        <time>2014-08-31T13:32:19Z</time>
      </trkpt>
      <trkpt lat="45.63729" lon="2.82206">
        <ele>1122.96</ele>
        <time>2014-08-31T13:32:21Z</time>
      </trkpt>
      <trkpt lat="45.6372" lon="2.82198">
        <ele>1123.44</ele>
        <time>2014-08-31T13:32:27Z</time>
      </trkpt>
      <trkpt lat="45.63712" lon="2.82195">
        <ele>1124.4</ele>
        <time>2014-08-31T13:32:39Z</time>
      </trkpt>
      <trkpt lat="45.63707" lon="2.82192">
        <ele>1124.88</ele>
        <time>2014-08-31T13:32:49Z</time>
      </trkpt>
      <trkpt lat="45.63706" lon="2.82191">
        <ele>1125.36</ele>
        <time>2014-08-31T13:32:50Z</time>
      </trkpt>
      <trkpt lat="45.63698" lon="2.82186">
        <ele>1125.84</ele>
        <time>2014-08-31T13:33:03Z</time>
      </trkpt>
      <trkpt lat="45.63682" lon="2.82172">
        <ele>1126.8</ele>
        <time>2014-08-31T13:33:18Z</time>
      </trkpt>
      <trkpt lat="45.63669" lon="2.82162">
        <ele>1128.24</ele>
        <time>2014-08-31T13:33:33Z</time>
      </trkpt>
      <trkpt lat="45.6366" lon="2.82156">
        <ele>1129.69</ele>
        <time>2014-08-31T13:33:45Z</time>
      </trkpt>
      <trkpt lat="45.63646" lon="2.82151">
        <ele>1131.61</ele>
        <time>2014-08-31T13:33:59Z</time>
      </trkpt>
      <trkpt lat="45.63633" lon="2.82144">
        <ele>1133.05</ele>
        <time>2014-08-31T13:34:12Z</time>
      </trkpt>
      <trkpt lat="45.63629" lon="2.82142">
        <ele>1133.53</ele>
        <time>2014-08-31T13:34:18Z</time>
      </trkpt>
      <trkpt lat="45.63623" lon="2.8213">
        <ele>1134.49</ele>
        <time>2014-08-31T13:34:31Z</time>
      </trkpt>
      <trkpt lat="45.63621" lon="2.82116">
        <ele>1134.97</ele>
        <time>2014-08-31T13:34:41Z</time>
      </trkpt>
      <trkpt lat="45.63627" lon="2.82102">
        <ele>1135.45</ele>
        <time>2014-08-31T13:34:55Z</time>
      </trkpt>
      <trkpt lat="45.63628" lon="2.82087">
        <ele>1136.42</ele>
        <time>2014-08-31T13:35:07Z</time>
      </trkpt>
      <trkpt lat="45.63626" lon="2.82067">
        <ele>1137.38</ele>
        <time>2014-08-31T13:35:22Z</time>
      </trkpt>
      <trkpt lat="45.63626" lon="2.82067">
        <ele>1137.38</ele>
        <time>2014-08-31T13:35:23Z</time>
      </trkpt>
      <trkpt lat="45.63617" lon="2.82045">
        <ele>1137.86</ele>
        <time>2014-08-31T13:35:39Z</time>
      </trkpt>
      <trkpt lat="45.63613" lon="2.8204">
        <ele>1140.26</ele>
        <time>2014-08-31T13:36:00Z</time>
      </trkpt>
      <trkpt lat="45.63604" lon="2.82023">
        <ele>1141.7</ele>
        <time>2014-08-31T13:36:13Z</time>
      </trkpt>
      <trkpt lat="45.63601" lon="2.8202">
        <ele>1142.18</ele>
        <time>2014-08-31T13:36:16Z</time>
      </trkpt>
      <trkpt lat="45.63592" lon="2.82017">
        <ele>1143.14</ele>
        <time>2014-08-31T13:36:28Z</time>
      </trkpt>
      <trkpt lat="45.63579" lon="2.82026">
        <ele>1145.07</ele>
        <time>2014-08-31T13:36:42Z</time>
      </trkpt>
      <trkpt lat="45.63575" lon="2.82038">
        <ele>1146.99</ele>
        <time>2014-08-31T13:36:58Z</time>
      </trkpt>
      <trkpt lat="45.63573" lon="2.82046">
        <ele>1148.43</ele>
        <time>2014-08-31T13:37:10Z</time>
      </trkpt>
      <trkpt lat="45.63572" lon="2.82046">
        <ele>1148.43</ele>
        <time>2014-08-31T13:37:12Z</time>
      </trkpt>
      <trkpt lat="45.63565" lon="2.82058">
        <ele>1150.84</ele>
        <time>2014-08-31T13:37:26Z</time>
      </trkpt>
      <trkpt lat="45.63559" lon="2.82069">
        <ele>1152.76</ele>
        <time>2014-08-31T13:37:41Z</time>
      </trkpt>
      <trkpt lat="45.63553" lon="2.82084">
        <ele>1154.68</ele>
        <time>2014-08-31T13:37:55Z</time>
      </trkpt>
      <trkpt lat="45.63548" lon="2.8209">
        <ele>1156.6</ele>
        <time>2014-08-31T13:38:08Z</time>
      </trkpt>
      <trkpt lat="45.63543" lon="2.82095">
        <ele>1157.56</ele>
        <time>2014-08-31T13:38:19Z</time>
      </trkpt>
      <trkpt lat="45.63525" lon="2.821">
        <ele>1160.45</ele>
        <time>2014-08-31T13:38:41Z</time>
      </trkpt>
      <trkpt lat="45.63519" lon="2.8211">
        <ele>1162.37</ele>
        <time>2014-08-31T13:39:00Z</time>
      </trkpt>
      <trkpt lat="45.63507" lon="2.82116">
        <ele>1165.74</ele>
        <time>2014-08-31T13:39:21Z</time>
      </trkpt>
      <trkpt lat="45.63498" lon="2.82116">
        <ele>1166.22</ele>
        <time>2014-08-31T13:39:28Z</time>
      </trkpt>
      <trkpt lat="45.63486" lon="2.8214">
        <ele>1169.1</ele>
        <time>2014-08-31T13:39:47Z</time>
      </trkpt>
      <trkpt lat="45.63478" lon="2.82148">
        <ele>1170.54</ele>
        <time>2014-08-31T13:39:59Z</time>
      </trkpt>
      <trkpt lat="45.63471" lon="2.82159">
        <ele>1172.95</ele>
        <time>2014-08-31T13:40:13Z</time>
      </trkpt>
      <trkpt lat="45.63456" lon="2.82162">
        <ele>1174.87</ele>
        <time>2014-08-31T13:40:30Z</time>
      </trkpt>
      <trkpt lat="45.6345" lon="2.82166">
        <ele>1177.75</ele>
        <time>2014-08-31T13:40:46Z</time>
      </trkpt>
      <trkpt lat="45.63438" lon="2.82177">
        <ele>1179.19</ele>
        <time>2014-08-31T13:41:00Z</time>
      </trkpt>
      <trkpt lat="45.63434" lon="2.82179">
        <ele>1180.16</ele>
        <time>2014-08-31T13:41:12Z</time>
      </trkpt>
      <trkpt lat="45.63434" lon="2.8218">
        <ele>1180.16</ele>
        <time>2014-08-31T13:41:16Z</time>
      </trkpt>
      <trkpt lat="45.63431" lon="2.8218">
        <ele>1180.64</ele>
        <time>2014-08-31T13:41:19Z</time>
      </trkpt>
      <trkpt lat="45.6342" lon="2.82187">
        <ele>1182.56</ele>
        <time>2014-08-31T13:41:32Z</time>
      </trkpt>
      <trkpt lat="45.6342" lon="2.82187">
        <ele>1182.56</ele>
        <time>2014-08-31T13:41:33Z</time>
      </trkpt>
      <trkpt lat="45.63411" lon="2.8219">
        <ele>1184</ele>
        <time>2014-08-31T13:41:43Z</time>
      </trkpt>
      <trkpt lat="45.63405" lon="2.82192">
        <ele>1185.44</ele>
        <time>2014-08-31T13:41:51Z</time>
      </trkpt>
      <trkpt lat="45.63396" lon="2.82198">
        <ele>1186.4</ele>
        <time>2014-08-31T13:42:02Z</time>
      </trkpt>
      <trkpt lat="45.63389" lon="2.822">
        <ele>1187.37</ele>
        <time>2014-08-31T13:42:10Z</time>
      </trkpt>
      <trkpt lat="45.63386" lon="2.82209">
        <ele>1188.33</ele>
        <time>2014-08-31T13:42:22Z</time>
      </trkpt>
      <trkpt lat="45.63385" lon="2.82213">
        <ele>1188.81</ele>
        <time>2014-08-31T13:42:38Z</time>
      </trkpt>
      <trkpt lat="45.63383" lon="2.82219">
        <ele>1189.29</ele>
        <time>2014-08-31T13:42:43Z</time>
      </trkpt>
      <trkpt lat="45.6338" lon="2.82223">
        <ele>1190.25</ele>
        <time>2014-08-31T13:42:47Z</time>
      </trkpt>
      <trkpt lat="45.63377" lon="2.82227">
        <ele>1190.73</ele>
        <time>2014-08-31T13:42:52Z</time>
      </trkpt>
      <trkpt lat="45.63368" lon="2.82237">
        <ele>1192.17</ele>
        <time>2014-08-31T13:43:07Z</time>
      </trkpt>
      <trkpt lat="45.63364" lon="2.82248">
        <ele>1192.17</ele>
        <time>2014-08-31T13:43:18Z</time>
      </trkpt>
      <trkpt lat="45.63361" lon="2.82258">
        <ele>1191.69</ele>
        <time>2014-08-31T13:43:29Z</time>
      </trkpt>
      <trkpt lat="45.63357" lon="2.8227">
        <ele>1191.21</ele>
        <time>2014-08-31T13:43:40Z</time>
      </trkpt>
      <trkpt lat="45.63354" lon="2.82273">
        <ele>1190.73</ele>
        <time>2014-08-31T13:43:50Z</time>
      </trkpt>
      <trkpt lat="45.63353" lon="2.82276">
        <ele>1190.73</ele>
        <time>2014-08-31T13:43:57Z</time>
      </trkpt>
      <trkpt lat="45.63352" lon="2.8228">
        <ele>1190.73</ele>
        <time>2014-08-31T13:44:00Z</time>
      </trkpt>
      <trkpt lat="45.63347" lon="2.82289">
        <ele>1190.73</ele>
        <time>2014-08-31T13:44:10Z</time>
      </trkpt>
      <trkpt lat="45.63344" lon="2.82298">
        <ele>1190.25</ele>
        <time>2014-08-31T13:44:23Z</time>
      </trkpt>
      <trkpt lat="45.63342" lon="2.82306">
        <ele>1190.25</ele>
        <time>2014-08-31T13:44:28Z</time>
      </trkpt>
      <trkpt lat="45.6334" lon="2.82315">
        <ele>1190.25</ele>
        <time>2014-08-31T13:44:40Z</time>
      </trkpt>
      <trkpt lat="45.63337" lon="2.82314">
        <ele>1190.73</ele>
        <time>2014-08-31T13:44:56Z</time>
      </trkpt>
      <trkpt lat="45.63338" lon="2.82311">
        <ele>1190.25</ele>
        <time>2014-08-31T13:45:14Z</time>
      </trkpt>
      <trkpt lat="45.6334" lon="2.82313">
        <ele>1190.73</ele>
        <time>2014-08-31T13:45:40Z</time>
      </trkpt>
      <trkpt lat="45.63346" lon="2.82297">
        <ele>1193.13</ele>
        <time>2014-08-31T13:45:57Z</time>
      </trkpt>
      <trkpt lat="45.63343" lon="2.82297">
        <ele>1196.02</ele>
        <time>2014-08-31T13:46:16Z</time>
      </trkpt>
      <trkpt lat="45.63338" lon="2.82288">
        <ele>1199.38</ele>
        <time>2014-08-31T13:46:29Z</time>
      </trkpt>
      <trkpt lat="45.63334" lon="2.82283">
        <ele>1201.79</ele>
        <time>2014-08-31T13:46:43Z</time>
      </trkpt>
      <trkpt lat="45.63332" lon="2.8227">
        <ele>1204.67</ele>
        <time>2014-08-31T13:46:57Z</time>
      </trkpt>
      <trkpt lat="45.63332" lon="2.82256">
        <ele>1208.03</ele>
        <time>2014-08-31T13:47:12Z</time>
      </trkpt>
      <trkpt lat="45.63336" lon="2.82244">
        <ele>1210.44</ele>
        <time>2014-08-31T13:47:29Z</time>
      </trkpt>
      <trkpt lat="45.63344" lon="2.82225">
        <ele>1213.32</ele>
        <time>2014-08-31T13:47:44Z</time>
      </trkpt>
      <trkpt lat="45.63349" lon="2.82209">
        <ele>1216.21</ele>
        <time>2014-08-31T13:47:58Z</time>
      </trkpt>
      <trkpt lat="45.63354" lon="2.82197">
        <ele>1217.17</ele>
        <time>2014-08-31T13:48:07Z</time>
      </trkpt>
      <trkpt lat="45.63358" lon="2.82188">
        <ele>1218.13</ele>
        <time>2014-08-31T13:48:14Z</time>
      </trkpt>
      <trkpt lat="45.63365" lon="2.82176">
        <ele>1218.13</ele>
        <time>2014-08-31T13:48:28Z</time>
      </trkpt>
      <trkpt lat="45.63367" lon="2.82168">
        <ele>1221.01</ele>
        <time>2014-08-31T13:48:43Z</time>
      </trkpt>
      <trkpt lat="45.63374" lon="2.82156">
        <ele>1222.45</ele>
        <time>2014-08-31T13:48:56Z</time>
      </trkpt>
      <trkpt lat="45.63376" lon="2.82145">
        <ele>1223.9</ele>
        <time>2014-08-31T13:49:04Z</time>
      </trkpt>
      <trkpt lat="45.6338" lon="2.82123">
        <ele>1227.26</ele>
        <time>2014-08-31T13:49:17Z</time>
      </trkpt>
      <trkpt lat="45.63374" lon="2.82105">
        <ele>1230.14</ele>
        <time>2014-08-31T13:49:33Z</time>
      </trkpt>
      <trkpt lat="45.6337" lon="2.82097">
        <ele>1231.59</ele>
        <time>2014-08-31T13:49:49Z</time>
      </trkpt>
      <trkpt lat="45.6336" lon="2.82097">
        <ele>1234.47</ele>
        <time>2014-08-31T13:50:06Z</time>
      </trkpt>
      <trkpt lat="45.63353" lon="2.82101">
        <ele>1237.35</ele>
        <time>2014-08-31T13:50:17Z</time>
      </trkpt>
      <trkpt lat="45.63347" lon="2.82105">
        <ele>1238.8</ele>
        <time>2014-08-31T13:50:28Z</time>
      </trkpt>
      <trkpt lat="45.63346" lon="2.82107">
        <ele>1240.24</ele>
        <time>2014-08-31T13:50:46Z</time>
      </trkpt>
      <trkpt lat="45.63346" lon="2.8211">
        <ele>1241.2</ele>
        <time>2014-08-31T13:51:04Z</time>
      </trkpt>
      <trkpt lat="45.63344" lon="2.82109">
        <ele>1245.04</ele>
        <time>2014-08-31T13:51:14Z</time>
      </trkpt>
      <trkpt lat="45.63343" lon="2.82107">
        <ele>1247.45</ele>
        <time>2014-08-31T13:51:27Z</time>
      </trkpt>
      <trkpt lat="45.63343" lon="2.82102">
        <ele>1247.93</ele>
        <time>2014-08-31T13:51:44Z</time>
      </trkpt>
      <trkpt lat="45.63343" lon="2.82097">
        <ele>1247.93</ele>
        <time>2014-08-31T13:51:58Z</time>
      </trkpt>
      <trkpt lat="45.63343" lon="2.82095">
        <ele>1248.41</ele>
        <time>2014-08-31T13:52:23Z</time>
      </trkpt>
      <trkpt lat="45.63344" lon="2.82095">
        <ele>1247.93</ele>
        <time>2014-08-31T13:52:40Z</time>
      </trkpt>
      <trkpt lat="45.63344" lon="2.82095">
        <ele>1248.41</ele>
        <time>2014-08-31T13:53:01Z</time>
      </trkpt>
      <trkpt lat="45.63344" lon="2.82095">
        <ele>1248.41</ele>
        <time>2014-08-31T13:53:28Z</time>
      </trkpt>
      <trkpt lat="45.63344" lon="2.82096">
        <ele>1248.89</ele>
        <time>2014-08-31T13:53:55Z</time>
      </trkpt>
      <trkpt lat="45.63344" lon="2.82095">
        <ele>1248.41</ele>
        <time>2014-08-31T13:54:23Z</time>
      </trkpt>
      <trkpt lat="45.63344" lon="2.82095">
        <ele>1248.41</ele>
        <time>2014-08-31T13:54:45Z</time>
      </trkpt>
      <trkpt lat="45.63343" lon="2.82096">
        <ele>1248.41</ele>
        <time>2014-08-31T13:55:07Z</time>
      </trkpt>
      <trkpt lat="45.63342" lon="2.82097">
        <ele>1248.41</ele>
        <time>2014-08-31T13:55:09Z</time>
      </trkpt>
      <trkpt lat="45.63337" lon="2.82104">
        <ele>1247.45</ele>
        <time>2014-08-31T13:55:18Z</time>
      </trkpt>
      <trkpt lat="45.63331" lon="2.82107">
        <ele>1249.37</ele>
        <time>2014-08-31T13:55:28Z</time>
      </trkpt>
      <trkpt lat="45.63332" lon="2.82111">
        <ele>1249.85</ele>
        <time>2014-08-31T13:55:38Z</time>
      </trkpt>
      <trkpt lat="45.63326" lon="2.82118">
        <ele>1251.29</ele>
        <time>2014-08-31T13:55:49Z</time>
      </trkpt>
      <trkpt lat="45.63325" lon="2.8212">
        <ele>1252.74</ele>
        <time>2014-08-31T13:55:57Z</time>
      </trkpt>
      <trkpt lat="45.63322" lon="2.82123">
        <ele>1254.18</ele>
        <time>2014-08-31T13:56:10Z</time>
      </trkpt>
      <trkpt lat="45.63322" lon="2.82125">
        <ele>1256.1</ele>
        <time>2014-08-31T13:56:22Z</time>
      </trkpt>
      <trkpt lat="45.63321" lon="2.82126">
        <ele>1258.02</ele>
        <time>2014-08-31T13:56:34Z</time>
      </trkpt>
      <trkpt lat="45.63321" lon="2.82126">
        <ele>1258.5</ele>
        <time>2014-08-31T13:56:38Z</time>
      </trkpt>
      <trkpt lat="45.63319" lon="2.82126">
        <ele>1261.39</ele>
        <time>2014-08-31T13:56:49Z</time>
      </trkpt>
      <trkpt lat="45.63317" lon="2.82128">
        <ele>1263.31</ele>
        <time>2014-08-31T13:57:02Z</time>
      </trkpt>
      <trkpt lat="45.63315" lon="2.8213">
        <ele>1263.31</ele>
        <time>2014-08-31T13:57:19Z</time>
      </trkpt>
      <trkpt lat="45.63312" lon="2.82132">
        <ele>1263.31</ele>
        <time>2014-08-31T13:57:37Z</time>
      </trkpt>
      <trkpt lat="45.6331" lon="2.82133">
        <ele>1263.31</ele>
        <time>2014-08-31T13:58:00Z</time>
      </trkpt>
      <trkpt lat="45.63308" lon="2.82135">
        <ele>1262.83</ele>
        <time>2014-08-31T13:58:29Z</time>
      </trkpt>
      <trkpt lat="45.63307" lon="2.82139">
        <ele>1264.27</ele>
        <time>2014-08-31T13:58:36Z</time>
      </trkpt>
      <trkpt lat="45.63304" lon="2.82142">
        <ele>1266.67</ele>
        <time>2014-08-31T13:58:49Z</time>
      </trkpt>
      <trkpt lat="45.63301" lon="2.82144">
        <ele>1268.12</ele>
        <time>2014-08-31T13:59:00Z</time>
      </trkpt>
      <trkpt lat="45.63298" lon="2.82148">
        <ele>1269.56</ele>
        <time>2014-08-31T13:59:12Z</time>
      </trkpt>
      <trkpt lat="45.63292" lon="2.82148">
        <ele>1271.96</ele>
        <time>2014-08-31T13:59:24Z</time>
      </trkpt>
      <trkpt lat="45.63292" lon="2.82147">
        <ele>1272.44</ele>
        <time>2014-08-31T13:59:44Z</time>
      </trkpt>
      <trkpt lat="45.63293" lon="2.82149">
        <ele>1271.48</ele>
        <time>2014-08-31T14:00:15Z</time>
      </trkpt>
      <trkpt lat="45.63293" lon="2.82149">
        <ele>1270.52</ele>
        <time>2014-08-31T14:00:17Z</time>
      </trkpt>
      <trkpt lat="45.63297" lon="2.82147">
        <ele>1268.6</ele>
        <time>2014-08-31T14:00:31Z</time>
      </trkpt>
      <trkpt lat="45.63301" lon="2.82145">
        <ele>1266.67</ele>
        <time>2014-08-31T14:00:45Z</time>
      </trkpt>
      <trkpt lat="45.63305" lon="2.82143">
        <ele>1264.27</ele>
        <time>2014-08-31T14:00:55Z</time>
      </trkpt>
      <trkpt lat="45.63307" lon="2.82142">
        <ele>1262.83</ele>
        <time>2014-08-31T14:01:08Z</time>
      </trkpt>
      <trkpt lat="45.63311" lon="2.82134">
        <ele>1262.35</ele>
        <time>2014-08-31T14:01:22Z</time>
      </trkpt>
      <trkpt lat="45.63312" lon="2.82133">
        <ele>1262.83</ele>
        <time>2014-08-31T14:01:36Z</time>
      </trkpt>
      <trkpt lat="45.63313" lon="2.82133">
        <ele>1260.91</ele>
        <time>2014-08-31T14:01:54Z</time>
      </trkpt>
      <trkpt lat="45.63315" lon="2.82133">
        <ele>1258.98</ele>
        <time>2014-08-31T14:02:07Z</time>
      </trkpt>
      <trkpt lat="45.63318" lon="2.82133">
        <ele>1257.06</ele>
        <time>2014-08-31T14:02:24Z</time>
      </trkpt>
      <trkpt lat="45.63319" lon="2.82133">
        <ele>1256.1</ele>
        <time>2014-08-31T14:02:41Z</time>
      </trkpt>
      <trkpt lat="45.63323" lon="2.82132">
        <ele>1254.66</ele>
        <time>2014-08-31T14:02:54Z</time>
      </trkpt>
      <trkpt lat="45.63325" lon="2.82129">
        <ele>1252.25</ele>
        <time>2014-08-31T14:03:08Z</time>
      </trkpt>
      <trkpt lat="45.63332" lon="2.82122">
        <ele>1250.33</ele>
        <time>2014-08-31T14:03:22Z</time>
      </trkpt>
      <trkpt lat="45.63338" lon="2.82112">
        <ele>1248.89</ele>
        <time>2014-08-31T14:03:36Z</time>
      </trkpt>
      <trkpt lat="45.63339" lon="2.82109">
        <ele>1246.49</ele>
        <time>2014-08-31T14:03:48Z</time>
      </trkpt>
      <trkpt lat="45.6334" lon="2.82111">
        <ele>1244.56</ele>
        <time>2014-08-31T14:04:06Z</time>
      </trkpt>
      <trkpt lat="45.63342" lon="2.82112">
        <ele>1242.16</ele>
        <time>2014-08-31T14:04:21Z</time>
      </trkpt>
      <trkpt lat="45.63344" lon="2.82115">
        <ele>1239.76</ele>
        <time>2014-08-31T14:04:38Z</time>
      </trkpt>
      <trkpt lat="45.63347" lon="2.82117">
        <ele>1238.32</ele>
        <time>2014-08-31T14:04:52Z</time>
      </trkpt>
      <trkpt lat="45.6335" lon="2.82112">
        <ele>1234.95</ele>
        <time>2014-08-31T14:05:08Z</time>
      </trkpt>
      <trkpt lat="45.63352" lon="2.82111">
        <ele>1232.07</ele>
        <time>2014-08-31T14:05:20Z</time>
      </trkpt>
      <trkpt lat="45.63359" lon="2.82113">
        <ele>1228.7</ele>
        <time>2014-08-31T14:05:32Z</time>
      </trkpt>
      <trkpt lat="45.63359" lon="2.82112">
        <ele>1228.22</ele>
        <time>2014-08-31T14:05:33Z</time>
      </trkpt>
      <trkpt lat="45.63363" lon="2.82116">
        <ele>1224.86</ele>
        <time>2014-08-31T14:05:46Z</time>
      </trkpt>
      <trkpt lat="45.63365" lon="2.82127">
        <ele>1222.93</ele>
        <time>2014-08-31T14:06:00Z</time>
      </trkpt>
      <trkpt lat="45.63365" lon="2.82148">
        <ele>1220.53</ele>
        <time>2014-08-31T14:06:14Z</time>
      </trkpt>
      <trkpt lat="45.63362" lon="2.82157">
        <ele>1220.05</ele>
        <time>2014-08-31T14:06:26Z</time>
      </trkpt>
      <trkpt lat="45.63363" lon="2.82165">
        <ele>1217.65</ele>
        <time>2014-08-31T14:06:40Z</time>
      </trkpt>
      <trkpt lat="45.63361" lon="2.82171">
        <ele>1217.17</ele>
        <time>2014-08-31T14:06:42Z</time>
      </trkpt>
      <trkpt lat="45.63356" lon="2.82186">
        <ele>1216.69</ele>
        <time>2014-08-31T14:06:54Z</time>
      </trkpt>
      <trkpt lat="45.63353" lon="2.82191">
        <ele>1216.21</ele>
        <time>2014-08-31T14:07:08Z</time>
      </trkpt>
      <trkpt lat="45.63348" lon="2.822">
        <ele>1215.24</ele>
        <time>2014-08-31T14:07:20Z</time>
      </trkpt>
      <trkpt lat="45.63347" lon="2.82204">
        <ele>1212.84</ele>
        <time>2014-08-31T14:07:33Z</time>
      </trkpt>
      <trkpt lat="45.63341" lon="2.82215">
        <ele>1210.92</ele>
        <time>2014-08-31T14:07:41Z</time>
      </trkpt>
      <trkpt lat="45.63331" lon="2.82233">
        <ele>1209.96</ele>
        <time>2014-08-31T14:07:48Z</time>
      </trkpt>
      <trkpt lat="45.63329" lon="2.8224">
        <ele>1207.55</ele>
        <time>2014-08-31T14:07:57Z</time>
      </trkpt>
      <trkpt lat="45.63328" lon="2.82243">
        <ele>1207.55</ele>
        <time>2014-08-31T14:08:14Z</time>
      </trkpt>
      <trkpt lat="45.63327" lon="2.82246">
        <ele>1206.59</ele>
        <time>2014-08-31T14:08:21Z</time>
      </trkpt>
      <trkpt lat="45.63327" lon="2.8225">
        <ele>1205.63</ele>
        <time>2014-08-31T14:08:23Z</time>
      </trkpt>
      <trkpt lat="45.63328" lon="2.82257">
        <ele>1204.19</ele>
        <time>2014-08-31T14:08:35Z</time>
      </trkpt>
      <trkpt lat="45.63326" lon="2.82261">
        <ele>1202.75</ele>
        <time>2014-08-31T14:08:59Z</time>
      </trkpt>
      <trkpt lat="45.63324" lon="2.82275">
        <ele>1199.38</ele>
        <time>2014-08-31T14:09:12Z</time>
      </trkpt>
      <trkpt lat="45.63325" lon="2.82279">
        <ele>1198.9</ele>
        <time>2014-08-31T14:09:26Z</time>
      </trkpt>
      <trkpt lat="45.63327" lon="2.82283">
        <ele>1197.94</ele>
        <time>2014-08-31T14:09:29Z</time>
      </trkpt>
      <trkpt lat="45.63333" lon="2.82295">
        <ele>1194.58</ele>
        <time>2014-08-31T14:09:40Z</time>
      </trkpt>
      <trkpt lat="45.63336" lon="2.82302">
        <ele>1193.13</ele>
        <time>2014-08-31T14:09:44Z</time>
      </trkpt>
      <trkpt lat="45.6334" lon="2.82309">
        <ele>1190.73</ele>
        <time>2014-08-31T14:09:54Z</time>
      </trkpt>
      <trkpt lat="45.63336" lon="2.82315">
        <ele>1190.25</ele>
        <time>2014-08-31T14:10:03Z</time>
      </trkpt>
      <trkpt lat="45.63337" lon="2.82325">
        <ele>1189.77</ele>
        <time>2014-08-31T14:10:19Z</time>
      </trkpt>
      <trkpt lat="45.63339" lon="2.8233">
        <ele>1189.77</ele>
        <time>2014-08-31T14:10:33Z</time>
      </trkpt>
      <trkpt lat="45.63338" lon="2.82333">
        <ele>1189.77</ele>
        <time>2014-08-31T14:10:35Z</time>
      </trkpt>
      <trkpt lat="45.63337" lon="2.8234">
        <ele>1189.77</ele>
        <time>2014-08-31T14:10:49Z</time>
      </trkpt>
      <trkpt lat="45.63337" lon="2.82354">
        <ele>1190.25</ele>
        <time>2014-08-31T14:11:04Z</time>
      </trkpt>
      <trkpt lat="45.63336" lon="2.8236">
        <ele>1190.73</ele>
        <time>2014-08-31T14:11:17Z</time>
      </trkpt>
      <trkpt lat="45.63331" lon="2.82362">
        <ele>1191.21</ele>
        <time>2014-08-31T14:11:25Z</time>
      </trkpt>
      <trkpt lat="45.63324" lon="2.82354">
        <ele>1192.17</ele>
        <time>2014-08-31T14:11:34Z</time>
      </trkpt>
      <trkpt lat="45.63319" lon="2.82351">
        <ele>1193.61</ele>
        <time>2014-08-31T14:11:44Z</time>
      </trkpt>
      <trkpt lat="45.63313" lon="2.82342">
        <ele>1195.06</ele>
        <time>2014-08-31T14:11:56Z</time>
      </trkpt>
      <trkpt lat="45.63307" lon="2.82334">
        <ele>1197.46</ele>
        <time>2014-08-31T14:12:09Z</time>
      </trkpt>
      <trkpt lat="45.63297" lon="2.82324">
        <ele>1199.38</ele>
        <time>2014-08-31T14:12:21Z</time>
      </trkpt>
      <trkpt lat="45.63296" lon="2.82325">
        <ele>1199.38</ele>
        <time>2014-08-31T14:12:33Z</time>
      </trkpt>
      <trkpt lat="45.63296" lon="2.82325">
        <ele>1199.38</ele>
        <time>2014-08-31T14:12:50Z</time>
      </trkpt>
      <trkpt lat="45.63297" lon="2.82325">
        <ele>1199.38</ele>
        <time>2014-08-31T14:13:13Z</time>
      </trkpt>
      <trkpt lat="45.63297" lon="2.82325">
        <ele>1199.86</ele>
        <time>2014-08-31T14:13:34Z</time>
      </trkpt>
      <trkpt lat="45.63298" lon="2.82325">
        <ele>1199.38</ele>
        <time>2014-08-31T14:13:45Z</time>
      </trkpt>
      <trkpt lat="45.63299" lon="2.82327">
        <ele>1199.38</ele>
        <time>2014-08-31T14:14:11Z</time>
      </trkpt>
      <trkpt lat="45.63299" lon="2.82327">
        <ele>1199.38</ele>
        <time>2014-08-31T14:14:35Z</time>
      </trkpt>
      <trkpt lat="45.63298" lon="2.82326">
        <ele>1199.38</ele>
        <time>2014-08-31T14:15:05Z</time>
      </trkpt>
      <trkpt lat="45.63299" lon="2.82329">
        <ele>1199.86</ele>
        <time>2014-08-31T14:15:30Z</time>
      </trkpt>
      <trkpt lat="45.63299" lon="2.82328">
        <ele>1199.38</ele>
        <time>2014-08-31T14:15:41Z</time>
      </trkpt>
      <trkpt lat="45.63299" lon="2.82328">
        <ele>1198.9</ele>
        <time>2014-08-31T14:15:57Z</time>
      </trkpt>
      <trkpt lat="45.63298" lon="2.82327">
        <ele>1198.9</ele>
        <time>2014-08-31T14:16:19Z</time>
      </trkpt>
      <trkpt lat="45.63296" lon="2.82325">
        <ele>1198.42</ele>
        <time>2014-08-31T14:16:25Z</time>
      </trkpt>
      <trkpt lat="45.63285" lon="2.8232">
        <ele>1195.54</ele>
        <time>2014-08-31T14:16:37Z</time>
      </trkpt>
      <trkpt lat="45.6327" lon="2.8231">
        <ele>1192.65</ele>
        <time>2014-08-31T14:16:53Z</time>
      </trkpt>
      <trkpt lat="45.63257" lon="2.8231">
        <ele>1190.25</ele>
        <time>2014-08-31T14:17:07Z</time>
      </trkpt>
      <trkpt lat="45.63254" lon="2.8231">
        <ele>1189.29</ele>
        <time>2014-08-31T14:17:15Z</time>
      </trkpt>
      <trkpt lat="45.63243" lon="2.82311">
        <ele>1187.37</ele>
        <time>2014-08-31T14:17:27Z</time>
      </trkpt>
      <trkpt lat="45.63232" lon="2.82315">
        <ele>1186.4</ele>
        <time>2014-08-31T14:17:42Z</time>
      </trkpt>
      <trkpt lat="45.6323" lon="2.82316">
        <ele>1186.4</ele>
        <time>2014-08-31T14:17:44Z</time>
      </trkpt>
      <trkpt lat="45.63219" lon="2.82314">
        <ele>1185.92</ele>
        <time>2014-08-31T14:17:50Z</time>
      </trkpt>
      <trkpt lat="45.63204" lon="2.8231">
        <ele>1184.48</ele>
        <time>2014-08-31T14:18:04Z</time>
      </trkpt>
      <trkpt lat="45.63198" lon="2.82312">
        <ele>1184</ele>
        <time>2014-08-31T14:18:14Z</time>
      </trkpt>
      <trkpt lat="45.63177" lon="2.82317">
        <ele>1183.52</ele>
        <time>2014-08-31T14:18:27Z</time>
      </trkpt>
      <trkpt lat="45.63165" lon="2.82334">
        <ele>1180.64</ele>
        <time>2014-08-31T14:18:40Z</time>
      </trkpt>
      <trkpt lat="45.63163" lon="2.82337">
        <ele>1181.12</ele>
        <time>2014-08-31T14:18:45Z</time>
      </trkpt>
      <trkpt lat="45.63159" lon="2.82336">
        <ele>1180.64</ele>
        <time>2014-08-31T14:18:49Z</time>
      </trkpt>
      <trkpt lat="45.63154" lon="2.8234">
        <ele>1179.19</ele>
        <time>2014-08-31T14:18:56Z</time>
      </trkpt>
      <trkpt lat="45.63147" lon="2.8234">
        <ele>1178.23</ele>
        <time>2014-08-31T14:19:00Z</time>
      </trkpt>
      <trkpt lat="45.63133" lon="2.82341">
        <ele>1176.79</ele>
        <time>2014-08-31T14:19:10Z</time>
      </trkpt>
      <trkpt lat="45.63133" lon="2.82341">
        <ele>1176.31</ele>
        <time>2014-08-31T14:19:11Z</time>
      </trkpt>
      <trkpt lat="45.63117" lon="2.82339">
        <ele>1174.87</ele>
        <time>2014-08-31T14:19:24Z</time>
      </trkpt>
      <trkpt lat="45.63114" lon="2.82339">
        <ele>1174.87</ele>
        <time>2014-08-31T14:19:27Z</time>
      </trkpt>
      <trkpt lat="45.63099" lon="2.82339">
        <ele>1175.83</ele>
        <time>2014-08-31T14:19:42Z</time>
      </trkpt>
      <trkpt lat="45.63095" lon="2.8234">
        <ele>1178.23</ele>
        <time>2014-08-31T14:19:53Z</time>
      </trkpt>
      <trkpt lat="45.63091" lon="2.8234">
        <ele>1178.23</ele>
        <time>2014-08-31T14:19:59Z</time>
      </trkpt>
      <trkpt lat="45.63091" lon="2.82338">
        <ele>1177.75</ele>
        <time>2014-08-31T14:20:13Z</time>
      </trkpt>
      <trkpt lat="45.63092" lon="2.82339">
        <ele>1177.75</ele>
        <time>2014-08-31T14:20:16Z</time>
      </trkpt>
      <trkpt lat="45.63069" lon="2.82336">
        <ele>1174.87</ele>
        <time>2014-08-31T14:20:30Z</time>
      </trkpt>
      <trkpt lat="45.63055" lon="2.82336">
        <ele>1172.47</ele>
        <time>2014-08-31T14:20:44Z</time>
      </trkpt>
      <trkpt lat="45.63051" lon="2.82335">
        <ele>1171.02</ele>
        <time>2014-08-31T14:20:53Z</time>
      </trkpt>
      <trkpt lat="45.63048" lon="2.82335">
        <ele>1171.5</ele>
        <time>2014-08-31T14:20:56Z</time>
      </trkpt>
      <trkpt lat="45.63038" lon="2.82337">
        <ele>1171.02</ele>
        <time>2014-08-31T14:21:00Z</time>
      </trkpt>
      <trkpt lat="45.63021" lon="2.82346">
        <ele>1170.06</ele>
        <time>2014-08-31T14:21:13Z</time>
      </trkpt>
      <trkpt lat="45.6301" lon="2.82341">
        <ele>1169.1</ele>
        <time>2014-08-31T14:21:24Z</time>
      </trkpt>
      <trkpt lat="45.63003" lon="2.82344">
        <ele>1168.62</ele>
        <time>2014-08-31T14:21:36Z</time>
      </trkpt>
      <trkpt lat="45.63002" lon="2.82345">
        <ele>1168.62</ele>
        <time>2014-08-31T14:21:37Z</time>
      </trkpt>
      <trkpt lat="45.62989" lon="2.82357">
        <ele>1168.62</ele>
        <time>2014-08-31T14:21:42Z</time>
      </trkpt>
      <trkpt lat="45.62985" lon="2.82361">
        <ele>1168.62</ele>
        <time>2014-08-31T14:21:46Z</time>
      </trkpt>
      <trkpt lat="45.62968" lon="2.82376">
        <ele>1166.7</ele>
        <time>2014-08-31T14:21:59Z</time>
      </trkpt>
      <trkpt lat="45.62965" lon="2.82381">
        <ele>1165.26</ele>
        <time>2014-08-31T14:22:10Z</time>
      </trkpt>
      <trkpt lat="45.62961" lon="2.82384">
        <ele>1164.29</ele>
        <time>2014-08-31T14:22:15Z</time>
      </trkpt>
      <trkpt lat="45.62956" lon="2.82385">
        <ele>1164.29</ele>
        <time>2014-08-31T14:22:18Z</time>
      </trkpt>
      <trkpt lat="45.62948" lon="2.8239">
        <ele>1162.85</ele>
        <time>2014-08-31T14:22:26Z</time>
      </trkpt>
      <trkpt lat="45.62947" lon="2.82391">
        <ele>1162.85</ele>
        <time>2014-08-31T14:22:33Z</time>
      </trkpt>
      <trkpt lat="45.62947" lon="2.82393">
        <ele>1163.33</ele>
        <time>2014-08-31T14:22:36Z</time>
      </trkpt>
      <trkpt lat="45.62933" lon="2.82399">
        <ele>1164.29</ele>
        <time>2014-08-31T14:22:46Z</time>
      </trkpt>
      <trkpt lat="45.62918" lon="2.824">
        <ele>1164.77</ele>
        <time>2014-08-31T14:22:59Z</time>
      </trkpt>
      <trkpt lat="45.62903" lon="2.82401">
        <ele>1165.74</ele>
        <time>2014-08-31T14:23:08Z</time>
      </trkpt>
      <trkpt lat="45.62896" lon="2.82399">
        <ele>1166.7</ele>
        <time>2014-08-31T14:23:14Z</time>
      </trkpt>
      <trkpt lat="45.62893" lon="2.824">
        <ele>1166.7</ele>
        <time>2014-08-31T14:23:17Z</time>
      </trkpt>
      <trkpt lat="45.62871" lon="2.82398">
        <ele>1168.14</ele>
        <time>2014-08-31T14:23:32Z</time>
      </trkpt>
      <trkpt lat="45.62864" lon="2.82398">
        <ele>1169.1</ele>
        <time>2014-08-31T14:23:37Z</time>
      </trkpt>
      <trkpt lat="45.62859" lon="2.82399">
        <ele>1170.06</ele>
        <time>2014-08-31T14:23:49Z</time>
      </trkpt>
      <trkpt lat="45.62845" lon="2.82396">
        <ele>1171.02</ele>
        <time>2014-08-31T14:23:59Z</time>
      </trkpt>
      <trkpt lat="45.62822" lon="2.82397">
        <ele>1171.98</ele>
        <time>2014-08-31T14:24:11Z</time>
      </trkpt>
      <trkpt lat="45.62815" lon="2.82395">
        <ele>1172.95</ele>
        <time>2014-08-31T14:24:19Z</time>
      </trkpt>
      <trkpt lat="45.62798" lon="2.82396">
        <ele>1173.43</ele>
        <time>2014-08-31T14:24:30Z</time>
      </trkpt>
      <trkpt lat="45.62779" lon="2.82401">
        <ele>1174.87</ele>
        <time>2014-08-31T14:24:42Z</time>
      </trkpt>
      <trkpt lat="45.62759" lon="2.82413">
        <ele>1176.31</ele>
        <time>2014-08-31T14:24:55Z</time>
      </trkpt>
      <trkpt lat="45.62757" lon="2.82426">
        <ele>1177.27</ele>
        <time>2014-08-31T14:25:06Z</time>
      </trkpt>
      <trkpt lat="45.62753" lon="2.82427">
        <ele>1178.23</ele>
        <time>2014-08-31T14:25:18Z</time>
      </trkpt>
      <trkpt lat="45.62746" lon="2.82432">
        <ele>1179.19</ele>
        <time>2014-08-31T14:25:29Z</time>
      </trkpt>
      <trkpt lat="45.62744" lon="2.82434">
        <ele>1179.67</ele>
        <time>2014-08-31T14:25:43Z</time>
      </trkpt>
      <trkpt lat="45.62736" lon="2.82442">
        <ele>1180.16</ele>
        <time>2014-08-31T14:25:52Z</time>
      </trkpt>
      <trkpt lat="45.62716" lon="2.82455">
        <ele>1182.08</ele>
        <time>2014-08-31T14:26:08Z</time>
      </trkpt>
      <trkpt lat="45.62714" lon="2.82455">
        <ele>1182.08</ele>
        <time>2014-08-31T14:26:10Z</time>
      </trkpt>
      <trkpt lat="45.62709" lon="2.82451">
        <ele>1182.56</ele>
        <time>2014-08-31T14:26:15Z</time>
      </trkpt>
      <trkpt lat="45.62704" lon="2.82444">
        <ele>1183.52</ele>
        <time>2014-08-31T14:26:23Z</time>
      </trkpt>
      <trkpt lat="45.62702" lon="2.82427">
        <ele>1184.96</ele>
        <time>2014-08-31T14:26:36Z</time>
      </trkpt>
      <trkpt lat="45.62689" lon="2.82414">
        <ele>1183.04</ele>
        <time>2014-08-31T14:26:44Z</time>
      </trkpt>
      <trkpt lat="45.62679" lon="2.82404">
        <ele>1185.92</ele>
        <time>2014-08-31T14:26:54Z</time>
      </trkpt>
      <trkpt lat="45.6267" lon="2.82393">
        <ele>1186.88</ele>
        <time>2014-08-31T14:27:07Z</time>
      </trkpt>
      <trkpt lat="45.62659" lon="2.82383">
        <ele>1188.33</ele>
        <time>2014-08-31T14:27:22Z</time>
      </trkpt>
      <trkpt lat="45.62658" lon="2.82382">
        <ele>1188.33</ele>
        <time>2014-08-31T14:27:24Z</time>
      </trkpt>
      <trkpt lat="45.62649" lon="2.82368">
        <ele>1190.25</ele>
        <time>2014-08-31T14:27:36Z</time>
      </trkpt>
      <trkpt lat="45.62629" lon="2.82358">
        <ele>1192.17</ele>
        <time>2014-08-31T14:27:50Z</time>
      </trkpt>
      <trkpt lat="45.62628" lon="2.82357">
        <ele>1192.17</ele>
        <time>2014-08-31T14:27:51Z</time>
      </trkpt>
      <trkpt lat="45.62607" lon="2.82335">
        <ele>1193.13</ele>
        <time>2014-08-31T14:28:05Z</time>
      </trkpt>
      <trkpt lat="45.62594" lon="2.82327">
        <ele>1195.54</ele>
        <time>2014-08-31T14:28:18Z</time>
      </trkpt>
      <trkpt lat="45.62573" lon="2.82324">
        <ele>1196.5</ele>
        <time>2014-08-31T14:28:31Z</time>
      </trkpt>
      <trkpt lat="45.62563" lon="2.82327">
        <ele>1197.46</ele>
        <time>2014-08-31T14:28:37Z</time>
      </trkpt>
      <trkpt lat="45.62558" lon="2.82326">
        <ele>1198.42</ele>
        <time>2014-08-31T14:28:48Z</time>
      </trkpt>
      <trkpt lat="45.62557" lon="2.82326">
        <ele>1198.42</ele>
        <time>2014-08-31T14:28:53Z</time>
      </trkpt>
      <trkpt lat="45.62551" lon="2.82326">
        <ele>1198.42</ele>
        <time>2014-08-31T14:28:56Z</time>
      </trkpt>
      <trkpt lat="45.62543" lon="2.82323">
        <ele>1199.38</ele>
        <time>2014-08-31T14:29:01Z</time>
      </trkpt>
      <trkpt lat="45.62535" lon="2.82316">
        <ele>1200.82</ele>
        <time>2014-08-31T14:29:13Z</time>
      </trkpt>
      <trkpt lat="45.62529" lon="2.82302">
        <ele>1201.3</ele>
        <time>2014-08-31T14:29:25Z</time>
      </trkpt>
      <trkpt lat="45.62527" lon="2.82295">
        <ele>1202.27</ele>
        <time>2014-08-31T14:29:30Z</time>
      </trkpt>
      <trkpt lat="45.62499" lon="2.82278">
        <ele>1203.71</ele>
        <time>2014-08-31T14:29:43Z</time>
      </trkpt>
      <trkpt lat="45.62495" lon="2.82275">
        <ele>1204.67</ele>
        <time>2014-08-31T14:29:53Z</time>
      </trkpt>
      <trkpt lat="45.62485" lon="2.82263">
        <ele>1206.11</ele>
        <time>2014-08-31T14:30:06Z</time>
      </trkpt>
      <trkpt lat="45.6246" lon="2.82244">
        <ele>1207.07</ele>
        <time>2014-08-31T14:30:16Z</time>
      </trkpt>
      <trkpt lat="45.62439" lon="2.82228">
        <ele>1208.51</ele>
        <time>2014-08-31T14:30:29Z</time>
      </trkpt>
      <trkpt lat="45.62428" lon="2.82218">
        <ele>1209.48</ele>
        <time>2014-08-31T14:30:41Z</time>
      </trkpt>
      <trkpt lat="45.62425" lon="2.82213">
        <ele>1210.44</ele>
        <time>2014-08-31T14:30:52Z</time>
      </trkpt>
      <trkpt lat="45.62418" lon="2.82207">
        <ele>1211.4</ele>
        <time>2014-08-31T14:31:04Z</time>
      </trkpt>
      <trkpt lat="45.6241" lon="2.82201">
        <ele>1212.84</ele>
        <time>2014-08-31T14:31:18Z</time>
      </trkpt>
      <trkpt lat="45.62394" lon="2.82184">
        <ele>1214.76</ele>
        <time>2014-08-31T14:31:33Z</time>
      </trkpt>
      <trkpt lat="45.6238" lon="2.82184">
        <ele>1216.21</ele>
        <time>2014-08-31T14:31:47Z</time>
      </trkpt>
      <trkpt lat="45.6236" lon="2.82182">
        <ele>1218.13</ele>
        <time>2014-08-31T14:32:02Z</time>
      </trkpt>
      <trkpt lat="45.62344" lon="2.82163">
        <ele>1219.57</ele>
        <time>2014-08-31T14:32:15Z</time>
      </trkpt>
      <trkpt lat="45.62331" lon="2.82141">
        <ele>1220.05</ele>
        <time>2014-08-31T14:32:26Z</time>
      </trkpt>
      <trkpt lat="45.6231" lon="2.8212">
        <ele>1221.49</ele>
        <time>2014-08-31T14:32:38Z</time>
      </trkpt>
      <trkpt lat="45.62298" lon="2.82102">
        <ele>1222.93</ele>
        <time>2014-08-31T14:32:50Z</time>
      </trkpt>
      <trkpt lat="45.62293" lon="2.82081">
        <ele>1224.38</ele>
        <time>2014-08-31T14:33:00Z</time>
      </trkpt>
      <trkpt lat="45.62293" lon="2.82057">
        <ele>1225.82</ele>
        <time>2014-08-31T14:33:12Z</time>
      </trkpt>
      <trkpt lat="45.62286" lon="2.82036">
        <ele>1227.26</ele>
        <time>2014-08-31T14:33:23Z</time>
      </trkpt>
      <trkpt lat="45.62278" lon="2.82017">
        <ele>1228.7</ele>
        <time>2014-08-31T14:33:35Z</time>
      </trkpt>
      <trkpt lat="45.62293" lon="2.82028">
        <ele>1229.66</ele>
        <time>2014-08-31T14:33:44Z</time>
      </trkpt>
      <trkpt lat="45.62294" lon="2.82027">
        <ele>1230.14</ele>
        <time>2014-08-31T14:33:45Z</time>
      </trkpt>
      <trkpt lat="45.62295" lon="2.82013">
        <ele>1231.11</ele>
        <time>2014-08-31T14:33:55Z</time>
      </trkpt>
      <trkpt lat="45.62286" lon="2.82">
        <ele>1232.07</ele>
        <time>2014-08-31T14:34:02Z</time>
      </trkpt>
      <trkpt lat="45.62265" lon="2.81978">
        <ele>1233.51</ele>
        <time>2014-08-31T14:34:15Z</time>
      </trkpt>
      <trkpt lat="45.62251" lon="2.81968">
        <ele>1234.95</ele>
        <time>2014-08-31T14:34:29Z</time>
      </trkpt>
      <trkpt lat="45.62245" lon="2.81962">
        <ele>1235.43</ele>
        <time>2014-08-31T14:34:34Z</time>
      </trkpt>
      <trkpt lat="45.6223" lon="2.81944">
        <ele>1235.91</ele>
        <time>2014-08-31T14:34:47Z</time>
      </trkpt>
      <trkpt lat="45.62225" lon="2.81937">
        <ele>1236.87</ele>
        <time>2014-08-31T14:34:50Z</time>
      </trkpt>
      <trkpt lat="45.62215" lon="2.81909">
        <ele>1237.83</ele>
        <time>2014-08-31T14:35:03Z</time>
      </trkpt>
      <trkpt lat="45.62216" lon="2.81895">
        <ele>1239.28</ele>
        <time>2014-08-31T14:35:14Z</time>
      </trkpt>
      <trkpt lat="45.62216" lon="2.81871">
        <ele>1239.76</ele>
        <time>2014-08-31T14:35:27Z</time>
      </trkpt>
      <trkpt lat="45.62217" lon="2.81853">
        <ele>1241.68</ele>
        <time>2014-08-31T14:35:35Z</time>
      </trkpt>
      <trkpt lat="45.6223" lon="2.81827">
        <ele>1243.12</ele>
        <time>2014-08-31T14:35:48Z</time>
      </trkpt>
      <trkpt lat="45.62244" lon="2.81803">
        <ele>1244.08</ele>
        <time>2014-08-31T14:36:01Z</time>
      </trkpt>
      <trkpt lat="45.62249" lon="2.81795">
        <ele>1245.04</ele>
        <time>2014-08-31T14:36:12Z</time>
      </trkpt>
      <trkpt lat="45.62253" lon="2.81793">
        <ele>1246.01</ele>
        <time>2014-08-31T14:36:18Z</time>
      </trkpt>
      <trkpt lat="45.62257" lon="2.81791">
        <ele>1246.49</ele>
        <time>2014-08-31T14:36:21Z</time>
      </trkpt>
      <trkpt lat="45.62254" lon="2.81775">
        <ele>1247.45</ele>
        <time>2014-08-31T14:36:33Z</time>
      </trkpt>
      <trkpt lat="45.62254" lon="2.81771">
        <ele>1247.45</ele>
        <time>2014-08-31T14:36:36Z</time>
      </trkpt>
      <trkpt lat="45.62254" lon="2.81767">
        <ele>1247.93</ele>
        <time>2014-08-31T14:36:44Z</time>
      </trkpt>
      <trkpt lat="45.62255" lon="2.81761">
        <ele>1248.41</ele>
        <time>2014-08-31T14:36:47Z</time>
      </trkpt>
      <trkpt lat="45.62245" lon="2.8174">
        <ele>1249.37</ele>
        <time>2014-08-31T14:36:57Z</time>
      </trkpt>
      <trkpt lat="45.62243" lon="2.81739">
        <ele>1249.37</ele>
        <time>2014-08-31T14:36:58Z</time>
      </trkpt>
      <trkpt lat="45.62226" lon="2.81735">
        <ele>1250.33</ele>
        <time>2014-08-31T14:37:12Z</time>
      </trkpt>
      <trkpt lat="45.62215" lon="2.81743">
        <ele>1250.81</ele>
        <time>2014-08-31T14:37:22Z</time>
      </trkpt>
      <trkpt lat="45.62213" lon="2.81745">
        <ele>1251.29</ele>
        <time>2014-08-31T14:37:25Z</time>
      </trkpt>
      <trkpt lat="45.62218" lon="2.81759">
        <ele>1252.25</ele>
        <time>2014-08-31T14:37:38Z</time>
      </trkpt>
      <trkpt lat="45.62218" lon="2.8176">
        <ele>1251.77</ele>
        <time>2014-08-31T14:37:39Z</time>
      </trkpt>
      <trkpt lat="45.62218" lon="2.81777">
        <ele>1252.74</ele>
        <time>2014-08-31T14:37:46Z</time>
      </trkpt>
      <trkpt lat="45.62205" lon="2.81805">
        <ele>1254.18</ele>
        <time>2014-08-31T14:37:59Z</time>
      </trkpt>
      <trkpt lat="45.62203" lon="2.81814">
        <ele>1254.66</ele>
        <time>2014-08-31T14:38:05Z</time>
      </trkpt>
      <trkpt lat="45.62199" lon="2.81818">
        <ele>1255.14</ele>
        <time>2014-08-31T14:38:11Z</time>
      </trkpt>
      <trkpt lat="45.62187" lon="2.81835">
        <ele>1256.1</ele>
        <time>2014-08-31T14:38:24Z</time>
      </trkpt>
      <trkpt lat="45.62186" lon="2.81837">
        <ele>1256.58</ele>
        <time>2014-08-31T14:38:25Z</time>
      </trkpt>
      <trkpt lat="45.62182" lon="2.81845">
        <ele>1257.06</ele>
        <time>2014-08-31T14:38:31Z</time>
      </trkpt>
      <trkpt lat="45.62182" lon="2.81846">
        <ele>1257.06</ele>
        <time>2014-08-31T14:38:32Z</time>
      </trkpt>
      <trkpt lat="45.62181" lon="2.8185">
        <ele>1257.06</ele>
        <time>2014-08-31T14:38:34Z</time>
      </trkpt>
      <trkpt lat="45.62175" lon="2.81856">
        <ele>1257.54</ele>
        <time>2014-08-31T14:38:43Z</time>
      </trkpt>
      <trkpt lat="45.62173" lon="2.8187">
        <ele>1258.5</ele>
        <time>2014-08-31T14:38:59Z</time>
      </trkpt>
      <trkpt lat="45.6217" lon="2.81881">
        <ele>1258.98</ele>
        <time>2014-08-31T14:39:12Z</time>
      </trkpt>
      <trkpt lat="45.62173" lon="2.81898">
        <ele>1259.94</ele>
        <time>2014-08-31T14:39:23Z</time>
      </trkpt>
      <trkpt lat="45.62168" lon="2.81915">
        <ele>1260.91</ele>
        <time>2014-08-31T14:39:34Z</time>
      </trkpt>
      <trkpt lat="45.6216" lon="2.81946">
        <ele>1262.35</ele>
        <time>2014-08-31T14:39:45Z</time>
      </trkpt>
      <trkpt lat="45.62162" lon="2.81954">
        <ele>1262.83</ele>
        <time>2014-08-31T14:39:53Z</time>
      </trkpt>
      <trkpt lat="45.62169" lon="2.81979">
        <ele>1266.19</ele>
        <time>2014-08-31T14:40:05Z</time>
      </trkpt>
      <trkpt lat="45.62169" lon="2.81982">
        <ele>1264.27</ele>
        <time>2014-08-31T14:40:07Z</time>
      </trkpt>
      <trkpt lat="45.62183" lon="2.82">
        <ele>1265.23</ele>
        <time>2014-08-31T14:40:24Z</time>
      </trkpt>
    </trkseg>
  </trk>
</gpx>